<?xml version="1.0" encoding="UTF-8"?>
<gpx version="1.1" creator="GPSBabel - https://www.gpsbabel.org" xmlns="http://www.topografix.com/GPX/1/1" xmlns:xsi="http://www.w3.org/2001/XMLSchema-instance">
  <metadata>
    <name>Planachaux et Dent de Corjon</name>
    <time>2026-05-08T09:41:03.639Z</time>
    <bounds minlat="46.439712483" minlon="7.004980151" maxlat="46.469720216" maxlon="7.090320160"/>
  </metadata>
  <trk>
    <name>Planachaux et Dent de Corjon</name>
    <trkseg>
      <trkpt lat="46.464960194" lon="7.082690137">
        <ele>891.570</ele>
        <time>2026-05-08T00:00:00Z</time>
      </trkpt>
      <trkpt lat="46.464950194" lon="7.082610138">
        <ele>891.570</ele>
        <time>2026-05-08T00:01:00Z</time>
      </trkpt>
      <trkpt lat="46.464920194" lon="7.082460138">
        <ele>891.570</ele>
        <time>2026-05-08T00:02:00Z</time>
      </trkpt>
      <trkpt lat="46.464910194" lon="7.082350138">
        <ele>891.610</ele>
        <time>2026-05-08T00:03:00Z</time>
      </trkpt>
      <trkpt lat="46.464910194" lon="7.082250138">
        <ele>891.780</ele>
        <time>2026-05-08T00:04:00Z</time>
      </trkpt>
      <trkpt lat="46.464940195" lon="7.081950138">
        <ele>892.330</ele>
        <time>2026-05-08T00:05:00Z</time>
      </trkpt>
      <trkpt lat="46.464610194" lon="7.081880137">
        <ele>889.650</ele>
        <time>2026-05-08T00:06:00Z</time>
      </trkpt>
      <trkpt lat="46.464430193" lon="7.081840137">
        <ele>887.570</ele>
        <time>2026-05-08T00:07:00Z</time>
      </trkpt>
      <trkpt lat="46.464360193" lon="7.081830137">
        <ele>886.740</ele>
        <time>2026-05-08T00:08:00Z</time>
      </trkpt>
      <trkpt lat="46.464300193" lon="7.081830137">
        <ele>886.120</ele>
        <time>2026-05-08T00:09:00Z</time>
      </trkpt>
      <trkpt lat="46.464190193" lon="7.081830136">
        <ele>884.900</ele>
        <time>2026-05-08T00:10:00Z</time>
      </trkpt>
      <trkpt lat="46.464190193" lon="7.081830136">
        <ele>884.870</ele>
        <time>2026-05-08T00:11:00Z</time>
      </trkpt>
      <trkpt lat="46.464090193" lon="7.081830136">
        <ele>883.800</ele>
        <time>2026-05-08T00:12:00Z</time>
      </trkpt>
      <trkpt lat="46.463770192" lon="7.081830136">
        <ele>880.320</ele>
        <time>2026-05-08T00:13:00Z</time>
      </trkpt>
      <trkpt lat="46.463720192" lon="7.081830136">
        <ele>879.770</ele>
        <time>2026-05-08T00:14:00Z</time>
      </trkpt>
      <trkpt lat="46.463690192" lon="7.081830136">
        <ele>879.300</ele>
        <time>2026-05-08T00:15:00Z</time>
      </trkpt>
      <trkpt lat="46.463630192" lon="7.081820136">
        <ele>878.700</ele>
        <time>2026-05-08T00:16:00Z</time>
      </trkpt>
      <trkpt lat="46.463550191" lon="7.081780136">
        <ele>877.530</ele>
        <time>2026-05-08T00:17:00Z</time>
      </trkpt>
      <trkpt lat="46.463290191" lon="7.081660135">
        <ele>874.400</ele>
        <time>2026-05-08T00:18:00Z</time>
      </trkpt>
      <trkpt lat="46.463170190" lon="7.081630135">
        <ele>872.900</ele>
        <time>2026-05-08T00:19:00Z</time>
      </trkpt>
      <trkpt lat="46.462860190" lon="7.081580135">
        <ele>871.300</ele>
        <time>2026-05-08T00:20:00Z</time>
      </trkpt>
      <trkpt lat="46.462610190" lon="7.081590135">
        <ele>871.500</ele>
        <time>2026-05-08T00:21:00Z</time>
      </trkpt>
      <trkpt lat="46.462610190" lon="7.081590135">
        <ele>871.480</ele>
        <time>2026-05-08T00:22:00Z</time>
      </trkpt>
      <trkpt lat="46.462580190" lon="7.081600135">
        <ele>871.670</ele>
        <time>2026-05-08T00:23:00Z</time>
      </trkpt>
      <trkpt lat="46.462530190" lon="7.081600135">
        <ele>871.900</ele>
        <time>2026-05-08T00:24:00Z</time>
      </trkpt>
      <trkpt lat="46.462340191" lon="7.081580135">
        <ele>873.400</ele>
        <time>2026-05-08T00:25:00Z</time>
      </trkpt>
      <trkpt lat="46.462150191" lon="7.081540135">
        <ele>875.370</ele>
        <time>2026-05-08T00:26:00Z</time>
      </trkpt>
      <trkpt lat="46.461860192" lon="7.081470136">
        <ele>878.800</ele>
        <time>2026-05-08T00:27:00Z</time>
      </trkpt>
      <trkpt lat="46.461700192" lon="7.081440136">
        <ele>880.600</ele>
        <time>2026-05-08T00:28:00Z</time>
      </trkpt>
      <trkpt lat="46.461570192" lon="7.081440136">
        <ele>882.250</ele>
        <time>2026-05-08T00:29:00Z</time>
      </trkpt>
      <trkpt lat="46.461420192" lon="7.081460136">
        <ele>883.300</ele>
        <time>2026-05-08T00:30:00Z</time>
      </trkpt>
      <trkpt lat="46.461420192" lon="7.081450136">
        <ele>883.310</ele>
        <time>2026-05-08T00:31:00Z</time>
      </trkpt>
      <trkpt lat="46.461390193" lon="7.081420137">
        <ele>883.410</ele>
        <time>2026-05-08T00:32:00Z</time>
      </trkpt>
      <trkpt lat="46.461360192" lon="7.081360137">
        <ele>883.600</ele>
        <time>2026-05-08T00:33:00Z</time>
      </trkpt>
      <trkpt lat="46.461230192" lon="7.081200136">
        <ele>883.660</ele>
        <time>2026-05-08T00:34:00Z</time>
      </trkpt>
      <trkpt lat="46.461160193" lon="7.081110137">
        <ele>883.610</ele>
        <time>2026-05-08T00:35:00Z</time>
      </trkpt>
      <trkpt lat="46.461100192" lon="7.081030136">
        <ele>883.400</ele>
        <time>2026-05-08T00:36:00Z</time>
      </trkpt>
      <trkpt lat="46.461090193" lon="7.081000137">
        <ele>883.360</ele>
        <time>2026-05-08T00:37:00Z</time>
      </trkpt>
      <trkpt lat="46.461070193" lon="7.080970136">
        <ele>883.330</ele>
        <time>2026-05-08T00:38:00Z</time>
      </trkpt>
      <trkpt lat="46.461060192" lon="7.080940136">
        <ele>883.300</ele>
        <time>2026-05-08T00:39:00Z</time>
      </trkpt>
      <trkpt lat="46.461040192" lon="7.080830136">
        <ele>883.300</ele>
        <time>2026-05-08T00:40:00Z</time>
      </trkpt>
      <trkpt lat="46.461030193" lon="7.080750137">
        <ele>883.300</ele>
        <time>2026-05-08T00:41:00Z</time>
      </trkpt>
      <trkpt lat="46.461030193" lon="7.080700136">
        <ele>883.300</ele>
        <time>2026-05-08T00:42:00Z</time>
      </trkpt>
      <trkpt lat="46.461030193" lon="7.080630137">
        <ele>883.450</ele>
        <time>2026-05-08T00:43:00Z</time>
      </trkpt>
      <trkpt lat="46.461040192" lon="7.080580136">
        <ele>883.480</ele>
        <time>2026-05-08T00:44:00Z</time>
      </trkpt>
      <trkpt lat="46.461040192" lon="7.080470136">
        <ele>883.640</ele>
        <time>2026-05-08T00:45:00Z</time>
      </trkpt>
      <trkpt lat="46.461040193" lon="7.080400136">
        <ele>883.700</ele>
        <time>2026-05-08T00:46:00Z</time>
      </trkpt>
      <trkpt lat="46.461060192" lon="7.080330137">
        <ele>883.650</ele>
        <time>2026-05-08T00:47:00Z</time>
      </trkpt>
      <trkpt lat="46.461110192" lon="7.080030136">
        <ele>883.300</ele>
        <time>2026-05-08T00:48:00Z</time>
      </trkpt>
      <trkpt lat="46.461120192" lon="7.079940137">
        <ele>883.220</ele>
        <time>2026-05-08T00:49:00Z</time>
      </trkpt>
      <trkpt lat="46.461130193" lon="7.079840136">
        <ele>883.150</ele>
        <time>2026-05-08T00:50:00Z</time>
      </trkpt>
      <trkpt lat="46.461140193" lon="7.079790136">
        <ele>883.100</ele>
        <time>2026-05-08T00:51:00Z</time>
      </trkpt>
      <trkpt lat="46.461140193" lon="7.079770137">
        <ele>883.110</ele>
        <time>2026-05-08T00:52:00Z</time>
      </trkpt>
      <trkpt lat="46.461140241" lon="7.079770316">
        <ele>882.300</ele>
        <time>2026-05-08T00:53:00Z</time>
      </trkpt>
      <trkpt lat="46.461051132" lon="7.079753985">
        <ele>881.100</ele>
        <time>2026-05-08T00:54:00Z</time>
      </trkpt>
      <trkpt lat="46.460962026" lon="7.079738956">
        <ele>880.200</ele>
        <time>2026-05-08T00:55:00Z</time>
      </trkpt>
      <trkpt lat="46.460872017" lon="7.079722631">
        <ele>879.800</ele>
        <time>2026-05-08T00:56:00Z</time>
      </trkpt>
      <trkpt lat="46.460782912" lon="7.079707602">
        <ele>879.500</ele>
        <time>2026-05-08T00:57:00Z</time>
      </trkpt>
      <trkpt lat="46.460693803" lon="7.079691271">
        <ele>879.400</ele>
        <time>2026-05-08T00:58:00Z</time>
      </trkpt>
      <trkpt lat="46.460604697" lon="7.079676243">
        <ele>879.600</ele>
        <time>2026-05-08T00:59:00Z</time>
      </trkpt>
      <trkpt lat="46.460514688" lon="7.079659918">
        <ele>879.700</ele>
        <time>2026-05-08T01:00:00Z</time>
      </trkpt>
      <trkpt lat="46.460425583" lon="7.079644889">
        <ele>879.800</ele>
        <time>2026-05-08T01:01:00Z</time>
      </trkpt>
      <trkpt lat="46.460336474" lon="7.079628559">
        <ele>879.900</ele>
        <time>2026-05-08T01:02:00Z</time>
      </trkpt>
      <trkpt lat="46.460247369" lon="7.079613530">
        <ele>880.300</ele>
        <time>2026-05-08T01:03:00Z</time>
      </trkpt>
      <trkpt lat="46.460158260" lon="7.079597200">
        <ele>881.000</ele>
        <time>2026-05-08T01:04:00Z</time>
      </trkpt>
      <trkpt lat="46.460068255" lon="7.079582178">
        <ele>882.100</ele>
        <time>2026-05-08T01:05:00Z</time>
      </trkpt>
      <trkpt lat="46.459979146" lon="7.079565847">
        <ele>883.800</ele>
        <time>2026-05-08T01:06:00Z</time>
      </trkpt>
      <trkpt lat="46.459890042" lon="7.079550819">
        <ele>886.400</ele>
        <time>2026-05-08T01:07:00Z</time>
      </trkpt>
      <trkpt lat="46.459800933" lon="7.079534490">
        <ele>889.500</ele>
        <time>2026-05-08T01:08:00Z</time>
      </trkpt>
      <trkpt lat="46.459733429" lon="7.079523223">
        <ele>892.200</ele>
        <time>2026-05-08T01:09:00Z</time>
      </trkpt>
      <trkpt lat="46.459762604" lon="7.079645390">
        <ele>891.900</ele>
        <time>2026-05-08T01:10:00Z</time>
      </trkpt>
      <trkpt lat="46.459792681" lon="7.079768853">
        <ele>891.600</ele>
        <time>2026-05-08T01:11:00Z</time>
      </trkpt>
      <trkpt lat="46.459822754" lon="7.079891015">
        <ele>891.600</ele>
        <time>2026-05-08T01:12:00Z</time>
      </trkpt>
      <trkpt lat="46.459851932" lon="7.080014484">
        <ele>891.700</ele>
        <time>2026-05-08T01:13:00Z</time>
      </trkpt>
      <trkpt lat="46.459882005" lon="7.080136646">
        <ele>892.400</ele>
        <time>2026-05-08T01:14:00Z</time>
      </trkpt>
      <trkpt lat="46.459911183" lon="7.080260116">
        <ele>893.300</ele>
        <time>2026-05-08T01:15:00Z</time>
      </trkpt>
      <trkpt lat="46.459941260" lon="7.080383579">
        <ele>894.300</ele>
        <time>2026-05-08T01:16:00Z</time>
      </trkpt>
      <trkpt lat="46.459970433" lon="7.080505748">
        <ele>895.600</ele>
        <time>2026-05-08T01:17:00Z</time>
      </trkpt>
      <trkpt lat="46.460000509" lon="7.080629212">
        <ele>897.100</ele>
        <time>2026-05-08T01:18:00Z</time>
      </trkpt>
      <trkpt lat="46.460030582" lon="7.080751374">
        <ele>898.300</ele>
        <time>2026-05-08T01:19:00Z</time>
      </trkpt>
      <trkpt lat="46.460059759" lon="7.080874845">
        <ele>899.400</ele>
        <time>2026-05-08T01:20:00Z</time>
      </trkpt>
      <trkpt lat="46.460089831" lon="7.080997008">
        <ele>900.400</ele>
        <time>2026-05-08T01:21:00Z</time>
      </trkpt>
      <trkpt lat="46.460119008" lon="7.081120478">
        <ele>901.200</ele>
        <time>2026-05-08T01:22:00Z</time>
      </trkpt>
      <trkpt lat="46.460149080" lon="7.081242641">
        <ele>901.300</ele>
        <time>2026-05-08T01:23:00Z</time>
      </trkpt>
      <trkpt lat="46.460170045" lon="7.081329718">
        <ele>901.100</ele>
        <time>2026-05-08T01:24:00Z</time>
      </trkpt>
      <trkpt lat="46.460170196" lon="7.081330139">
        <ele>901.110</ele>
        <time>2026-05-08T01:25:00Z</time>
      </trkpt>
      <trkpt lat="46.460150196" lon="7.081320139">
        <ele>901.800</ele>
        <time>2026-05-08T01:26:00Z</time>
      </trkpt>
      <trkpt lat="46.460100196" lon="7.081280139">
        <ele>903.400</ele>
        <time>2026-05-08T01:27:00Z</time>
      </trkpt>
      <trkpt lat="46.460060197" lon="7.081230139">
        <ele>905.700</ele>
        <time>2026-05-08T01:28:00Z</time>
      </trkpt>
      <trkpt lat="46.460000197" lon="7.081130140">
        <ele>906.700</ele>
        <time>2026-05-08T01:29:00Z</time>
      </trkpt>
      <trkpt lat="46.459790197" lon="7.080690140">
        <ele>907.800</ele>
        <time>2026-05-08T01:30:00Z</time>
      </trkpt>
      <trkpt lat="46.459580197" lon="7.080260140">
        <ele>909.500</ele>
        <time>2026-05-08T01:31:00Z</time>
      </trkpt>
      <trkpt lat="46.459540198" lon="7.080190140">
        <ele>910.350</ele>
        <time>2026-05-08T01:32:00Z</time>
      </trkpt>
      <trkpt lat="46.459510198" lon="7.080130140">
        <ele>911.000</ele>
        <time>2026-05-08T01:33:00Z</time>
      </trkpt>
      <trkpt lat="46.459390198" lon="7.079960140">
        <ele>913.400</ele>
        <time>2026-05-08T01:34:00Z</time>
      </trkpt>
      <trkpt lat="46.459310199" lon="7.079860141">
        <ele>915.670</ele>
        <time>2026-05-08T01:35:00Z</time>
      </trkpt>
      <trkpt lat="46.459270199" lon="7.079800141">
        <ele>916.800</ele>
        <time>2026-05-08T01:36:00Z</time>
      </trkpt>
      <trkpt lat="46.459200200" lon="7.079670141">
        <ele>919.160</ele>
        <time>2026-05-08T01:37:00Z</time>
      </trkpt>
      <trkpt lat="46.459190200" lon="7.079660141">
        <ele>919.400</ele>
        <time>2026-05-08T01:38:00Z</time>
      </trkpt>
      <trkpt lat="46.459180200" lon="7.079640142">
        <ele>919.650</ele>
        <time>2026-05-08T01:39:00Z</time>
      </trkpt>
      <trkpt lat="46.459090200" lon="7.079400142">
        <ele>922.700</ele>
        <time>2026-05-08T01:40:00Z</time>
      </trkpt>
      <trkpt lat="46.459040200" lon="7.079180142">
        <ele>923.700</ele>
        <time>2026-05-08T01:41:00Z</time>
      </trkpt>
      <trkpt lat="46.459000201" lon="7.079020143">
        <ele>928.500</ele>
        <time>2026-05-08T01:42:00Z</time>
      </trkpt>
      <trkpt lat="46.458960202" lon="7.078890143">
        <ele>929.200</ele>
        <time>2026-05-08T01:43:00Z</time>
      </trkpt>
      <trkpt lat="46.458940202" lon="7.078920143">
        <ele>930.700</ele>
        <time>2026-05-08T01:44:00Z</time>
      </trkpt>
      <trkpt lat="46.458920202" lon="7.078950143">
        <ele>932.100</ele>
        <time>2026-05-08T01:45:00Z</time>
      </trkpt>
      <trkpt lat="46.458920202" lon="7.078950143">
        <ele>932.040</ele>
        <time>2026-05-08T01:46:00Z</time>
      </trkpt>
      <trkpt lat="46.458920202" lon="7.078950143">
        <ele>932.090</ele>
        <time>2026-05-08T01:47:00Z</time>
      </trkpt>
      <trkpt lat="46.458890202" lon="7.079080143">
        <ele>933.500</ele>
        <time>2026-05-08T01:48:00Z</time>
      </trkpt>
      <trkpt lat="46.458890202" lon="7.079230143">
        <ele>933.600</ele>
        <time>2026-05-08T01:49:00Z</time>
      </trkpt>
      <trkpt lat="46.458890202" lon="7.079280144">
        <ele>934.220</ele>
        <time>2026-05-08T01:50:00Z</time>
      </trkpt>
      <trkpt lat="46.458890203" lon="7.079390144">
        <ele>935.610</ele>
        <time>2026-05-08T01:51:00Z</time>
      </trkpt>
      <trkpt lat="46.458880203" lon="7.079550144">
        <ele>937.800</ele>
        <time>2026-05-08T01:52:00Z</time>
      </trkpt>
      <trkpt lat="46.458890203" lon="7.079570144">
        <ele>938.090</ele>
        <time>2026-05-08T01:53:00Z</time>
      </trkpt>
      <trkpt lat="46.458890203" lon="7.079650144">
        <ele>938.800</ele>
        <time>2026-05-08T01:54:00Z</time>
      </trkpt>
      <trkpt lat="46.458890203" lon="7.079740144">
        <ele>939.500</ele>
        <time>2026-05-08T01:55:00Z</time>
      </trkpt>
      <trkpt lat="46.458890204" lon="7.079780144">
        <ele>940.260</ele>
        <time>2026-05-08T01:56:00Z</time>
      </trkpt>
      <trkpt lat="46.458880204" lon="7.079820144">
        <ele>941.000</ele>
        <time>2026-05-08T01:57:00Z</time>
      </trkpt>
      <trkpt lat="46.458890204" lon="7.079860144">
        <ele>941.300</ele>
        <time>2026-05-08T01:58:00Z</time>
      </trkpt>
      <trkpt lat="46.458920204" lon="7.079980145">
        <ele>942.710</ele>
        <time>2026-05-08T01:59:00Z</time>
      </trkpt>
      <trkpt lat="46.458990205" lon="7.080290145">
        <ele>947.180</ele>
        <time>2026-05-08T02:00:00Z</time>
      </trkpt>
      <trkpt lat="46.459030205" lon="7.080480146">
        <ele>949.200</ele>
        <time>2026-05-08T02:01:00Z</time>
      </trkpt>
      <trkpt lat="46.459040205" lon="7.080520146">
        <ele>949.880</ele>
        <time>2026-05-08T02:02:00Z</time>
      </trkpt>
      <trkpt lat="46.459050206" lon="7.080550146">
        <ele>950.200</ele>
        <time>2026-05-08T02:03:00Z</time>
      </trkpt>
      <trkpt lat="46.459050206" lon="7.080580146">
        <ele>950.720</ele>
        <time>2026-05-08T02:04:00Z</time>
      </trkpt>
      <trkpt lat="46.459050206" lon="7.080630146">
        <ele>951.300</ele>
        <time>2026-05-08T02:05:00Z</time>
      </trkpt>
      <trkpt lat="46.459070206" lon="7.080800146">
        <ele>953.580</ele>
        <time>2026-05-08T02:06:00Z</time>
      </trkpt>
      <trkpt lat="46.459090206" lon="7.080890146">
        <ele>953.900</ele>
        <time>2026-05-08T02:07:00Z</time>
      </trkpt>
      <trkpt lat="46.459090206" lon="7.080920146">
        <ele>954.280</ele>
        <time>2026-05-08T02:08:00Z</time>
      </trkpt>
      <trkpt lat="46.459090207" lon="7.080960146">
        <ele>954.800</ele>
        <time>2026-05-08T02:09:00Z</time>
      </trkpt>
      <trkpt lat="46.459090207" lon="7.081040146">
        <ele>955.200</ele>
        <time>2026-05-08T02:10:00Z</time>
      </trkpt>
      <trkpt lat="46.459120207" lon="7.081200147">
        <ele>958.300</ele>
        <time>2026-05-08T02:11:00Z</time>
      </trkpt>
      <trkpt lat="46.459160207" lon="7.081290147">
        <ele>959.100</ele>
        <time>2026-05-08T02:12:00Z</time>
      </trkpt>
      <trkpt lat="46.459200208" lon="7.081440147">
        <ele>959.530</ele>
        <time>2026-05-08T02:13:00Z</time>
      </trkpt>
      <trkpt lat="46.459200208" lon="7.081440147">
        <ele>959.530</ele>
        <time>2026-05-08T02:14:00Z</time>
      </trkpt>
      <trkpt lat="46.459210208" lon="7.081460147">
        <ele>959.890</ele>
        <time>2026-05-08T02:15:00Z</time>
      </trkpt>
      <trkpt lat="46.459210208" lon="7.081560147">
        <ele>962.300</ele>
        <time>2026-05-08T02:16:00Z</time>
      </trkpt>
      <trkpt lat="46.459200209" lon="7.081730148">
        <ele>965.690</ele>
        <time>2026-05-08T02:17:00Z</time>
      </trkpt>
      <trkpt lat="46.459180209" lon="7.081830148">
        <ele>966.500</ele>
        <time>2026-05-08T02:18:00Z</time>
      </trkpt>
      <trkpt lat="46.459170209" lon="7.081890148">
        <ele>965.700</ele>
        <time>2026-05-08T02:19:00Z</time>
      </trkpt>
      <trkpt lat="46.459180209" lon="7.081920148">
        <ele>965.620</ele>
        <time>2026-05-08T02:20:00Z</time>
      </trkpt>
      <trkpt lat="46.459210209" lon="7.081990148">
        <ele>966.400</ele>
        <time>2026-05-08T02:21:00Z</time>
      </trkpt>
      <trkpt lat="46.459210209" lon="7.082000148">
        <ele>966.540</ele>
        <time>2026-05-08T02:22:00Z</time>
      </trkpt>
      <trkpt lat="46.459210209" lon="7.082030148">
        <ele>966.900</ele>
        <time>2026-05-08T02:23:00Z</time>
      </trkpt>
      <trkpt lat="46.459200210" lon="7.082310149">
        <ele>971.280</ele>
        <time>2026-05-08T02:24:00Z</time>
      </trkpt>
      <trkpt lat="46.459200210" lon="7.082420149">
        <ele>972.200</ele>
        <time>2026-05-08T02:25:00Z</time>
      </trkpt>
      <trkpt lat="46.459200210" lon="7.082470149">
        <ele>973.360</ele>
        <time>2026-05-08T02:26:00Z</time>
      </trkpt>
      <trkpt lat="46.459200210" lon="7.082510149">
        <ele>974.100</ele>
        <time>2026-05-08T02:27:00Z</time>
      </trkpt>
      <trkpt lat="46.459210210" lon="7.082540149">
        <ele>974.260</ele>
        <time>2026-05-08T02:28:00Z</time>
      </trkpt>
      <trkpt lat="46.459220211" lon="7.082590149">
        <ele>974.500</ele>
        <time>2026-05-08T02:29:00Z</time>
      </trkpt>
      <trkpt lat="46.459220211" lon="7.082670149">
        <ele>975.450</ele>
        <time>2026-05-08T02:30:00Z</time>
      </trkpt>
      <trkpt lat="46.459220211" lon="7.082730149">
        <ele>976.200</ele>
        <time>2026-05-08T02:31:00Z</time>
      </trkpt>
      <trkpt lat="46.459240211" lon="7.082930150">
        <ele>978.400</ele>
        <time>2026-05-08T02:32:00Z</time>
      </trkpt>
      <trkpt lat="46.459250212" lon="7.083020150">
        <ele>979.900</ele>
        <time>2026-05-08T02:33:00Z</time>
      </trkpt>
      <trkpt lat="46.459270211" lon="7.083050150">
        <ele>979.950</ele>
        <time>2026-05-08T02:34:00Z</time>
      </trkpt>
      <trkpt lat="46.459290212" lon="7.083110150">
        <ele>980.300</ele>
        <time>2026-05-08T02:35:00Z</time>
      </trkpt>
      <trkpt lat="46.459290212" lon="7.083180150">
        <ele>981.460</ele>
        <time>2026-05-08T02:36:00Z</time>
      </trkpt>
      <trkpt lat="46.459290212" lon="7.083230150">
        <ele>982.200</ele>
        <time>2026-05-08T02:37:00Z</time>
      </trkpt>
      <trkpt lat="46.459310212" lon="7.083290150">
        <ele>982.900</ele>
        <time>2026-05-08T02:38:00Z</time>
      </trkpt>
      <trkpt lat="46.459320212" lon="7.083370151">
        <ele>983.600</ele>
        <time>2026-05-08T02:39:00Z</time>
      </trkpt>
      <trkpt lat="46.459320213" lon="7.083540151">
        <ele>986.040</ele>
        <time>2026-05-08T02:40:00Z</time>
      </trkpt>
      <trkpt lat="46.459320213" lon="7.083620151">
        <ele>986.600</ele>
        <time>2026-05-08T02:41:00Z</time>
      </trkpt>
      <trkpt lat="46.459320213" lon="7.083630151">
        <ele>986.680</ele>
        <time>2026-05-08T02:42:00Z</time>
      </trkpt>
      <trkpt lat="46.459310213" lon="7.083710151">
        <ele>987.500</ele>
        <time>2026-05-08T02:43:00Z</time>
      </trkpt>
      <trkpt lat="46.459270214" lon="7.083890151">
        <ele>990.300</ele>
        <time>2026-05-08T02:44:00Z</time>
      </trkpt>
      <trkpt lat="46.459240214" lon="7.084040152">
        <ele>992.770</ele>
        <time>2026-05-08T02:45:00Z</time>
      </trkpt>
      <trkpt lat="46.459230214" lon="7.084090152">
        <ele>993.700</ele>
        <time>2026-05-08T02:46:00Z</time>
      </trkpt>
      <trkpt lat="46.459230214" lon="7.084240152">
        <ele>994.550</ele>
        <time>2026-05-08T02:47:00Z</time>
      </trkpt>
      <trkpt lat="46.459230215" lon="7.084290152">
        <ele>995.700</ele>
        <time>2026-05-08T02:48:00Z</time>
      </trkpt>
      <trkpt lat="46.459250215" lon="7.084530153">
        <ele>999.600</ele>
        <time>2026-05-08T02:49:00Z</time>
      </trkpt>
      <trkpt lat="46.459260216" lon="7.084620153">
        <ele>1000.300</ele>
        <time>2026-05-08T02:50:00Z</time>
      </trkpt>
      <trkpt lat="46.459290216" lon="7.084840153">
        <ele>1001.480</ele>
        <time>2026-05-08T02:51:00Z</time>
      </trkpt>
      <trkpt lat="46.459310216" lon="7.085010153">
        <ele>1002.700</ele>
        <time>2026-05-08T02:52:00Z</time>
      </trkpt>
      <trkpt lat="46.459310216" lon="7.085030153">
        <ele>1003.180</ele>
        <time>2026-05-08T02:53:00Z</time>
      </trkpt>
      <trkpt lat="46.459310216" lon="7.085130153">
        <ele>1004.600</ele>
        <time>2026-05-08T02:54:00Z</time>
      </trkpt>
      <trkpt lat="46.459330217" lon="7.085310154">
        <ele>1005.910</ele>
        <time>2026-05-08T02:55:00Z</time>
      </trkpt>
      <trkpt lat="46.459330217" lon="7.085340153">
        <ele>1006.100</ele>
        <time>2026-05-08T02:56:00Z</time>
      </trkpt>
      <trkpt lat="46.459330217" lon="7.085340153">
        <ele>1006.190</ele>
        <time>2026-05-08T02:57:00Z</time>
      </trkpt>
      <trkpt lat="46.459320217" lon="7.085520154">
        <ele>1008.700</ele>
        <time>2026-05-08T02:58:00Z</time>
      </trkpt>
      <trkpt lat="46.459300217" lon="7.085630154">
        <ele>1009.000</ele>
        <time>2026-05-08T02:59:00Z</time>
      </trkpt>
      <trkpt lat="46.459260218" lon="7.085900154">
        <ele>1012.900</ele>
        <time>2026-05-08T03:00:00Z</time>
      </trkpt>
      <trkpt lat="46.459250218" lon="7.086000155">
        <ele>1014.220</ele>
        <time>2026-05-08T03:01:00Z</time>
      </trkpt>
      <trkpt lat="46.459230219" lon="7.086130155">
        <ele>1016.100</ele>
        <time>2026-05-08T03:02:00Z</time>
      </trkpt>
      <trkpt lat="46.459220219" lon="7.086290155">
        <ele>1017.300</ele>
        <time>2026-05-08T03:03:00Z</time>
      </trkpt>
      <trkpt lat="46.459220219" lon="7.086420155">
        <ele>1018.400</ele>
        <time>2026-05-08T03:04:00Z</time>
      </trkpt>
      <trkpt lat="46.459240220" lon="7.086700156">
        <ele>1020.600</ele>
        <time>2026-05-08T03:05:00Z</time>
      </trkpt>
      <trkpt lat="46.459250220" lon="7.086770156">
        <ele>1021.590</ele>
        <time>2026-05-08T03:06:00Z</time>
      </trkpt>
      <trkpt lat="46.459270220" lon="7.086860156">
        <ele>1022.800</ele>
        <time>2026-05-08T03:07:00Z</time>
      </trkpt>
      <trkpt lat="46.459280220" lon="7.086940156">
        <ele>1023.800</ele>
        <time>2026-05-08T03:08:00Z</time>
      </trkpt>
      <trkpt lat="46.459340221" lon="7.087200156">
        <ele>1025.000</ele>
        <time>2026-05-08T03:09:00Z</time>
      </trkpt>
      <trkpt lat="46.459360221" lon="7.087300156">
        <ele>1026.200</ele>
        <time>2026-05-08T03:10:00Z</time>
      </trkpt>
      <trkpt lat="46.459360221" lon="7.087340157">
        <ele>1026.500</ele>
        <time>2026-05-08T03:11:00Z</time>
      </trkpt>
      <trkpt lat="46.459370221" lon="7.087420157">
        <ele>1027.100</ele>
        <time>2026-05-08T03:12:00Z</time>
      </trkpt>
      <trkpt lat="46.459370221" lon="7.087690156">
        <ele>1026.810</ele>
        <time>2026-05-08T03:13:00Z</time>
      </trkpt>
      <trkpt lat="46.459370221" lon="7.087810157">
        <ele>1030.300</ele>
        <time>2026-05-08T03:14:00Z</time>
      </trkpt>
      <trkpt lat="46.459360222" lon="7.087880157">
        <ele>1031.270</ele>
        <time>2026-05-08T03:15:00Z</time>
      </trkpt>
      <trkpt lat="46.459350222" lon="7.087910157">
        <ele>1031.700</ele>
        <time>2026-05-08T03:16:00Z</time>
      </trkpt>
      <trkpt lat="46.459340222" lon="7.087950157">
        <ele>1031.580</ele>
        <time>2026-05-08T03:17:00Z</time>
      </trkpt>
      <trkpt lat="46.459320222" lon="7.088020157">
        <ele>1031.400</ele>
        <time>2026-05-08T03:18:00Z</time>
      </trkpt>
      <trkpt lat="46.459250222" lon="7.088220157">
        <ele>1032.310</ele>
        <time>2026-05-08T03:19:00Z</time>
      </trkpt>
      <trkpt lat="46.459220222" lon="7.088320157">
        <ele>1033.600</ele>
        <time>2026-05-08T03:20:00Z</time>
      </trkpt>
      <trkpt lat="46.459160223" lon="7.088530158">
        <ele>1035.900</ele>
        <time>2026-05-08T03:21:00Z</time>
      </trkpt>
      <trkpt lat="46.459110223" lon="7.088760158">
        <ele>1037.400</ele>
        <time>2026-05-08T03:22:00Z</time>
      </trkpt>
      <trkpt lat="46.459050224" lon="7.089060158">
        <ele>1040.900</ele>
        <time>2026-05-08T03:23:00Z</time>
      </trkpt>
      <trkpt lat="46.459010224" lon="7.089250159">
        <ele>1042.600</ele>
        <time>2026-05-08T03:24:00Z</time>
      </trkpt>
      <trkpt lat="46.458990224" lon="7.089410159">
        <ele>1044.000</ele>
        <time>2026-05-08T03:25:00Z</time>
      </trkpt>
      <trkpt lat="46.458980225" lon="7.089430159">
        <ele>1044.170</ele>
        <time>2026-05-08T03:26:00Z</time>
      </trkpt>
      <trkpt lat="46.458970224" lon="7.089480159">
        <ele>1044.500</ele>
        <time>2026-05-08T03:27:00Z</time>
      </trkpt>
      <trkpt lat="46.458920225" lon="7.089780160">
        <ele>1048.600</ele>
        <time>2026-05-08T03:28:00Z</time>
      </trkpt>
      <trkpt lat="46.458890225" lon="7.090020160">
        <ele>1049.500</ele>
        <time>2026-05-08T03:29:00Z</time>
      </trkpt>
      <trkpt lat="46.458870226" lon="7.090110160">
        <ele>1050.020</ele>
        <time>2026-05-08T03:30:00Z</time>
      </trkpt>
      <trkpt lat="46.458860226" lon="7.090170160">
        <ele>1050.400</ele>
        <time>2026-05-08T03:31:00Z</time>
      </trkpt>
      <trkpt lat="46.458850225" lon="7.090230160">
        <ele>1050.700</ele>
        <time>2026-05-08T03:32:00Z</time>
      </trkpt>
      <trkpt lat="46.458840226" lon="7.090300160">
        <ele>1052.100</ele>
        <time>2026-05-08T03:33:00Z</time>
      </trkpt>
      <trkpt lat="46.458820226" lon="7.090310160">
        <ele>1052.900</ele>
        <time>2026-05-08T03:34:00Z</time>
      </trkpt>
      <trkpt lat="46.458810226" lon="7.090320160">
        <ele>1053.700</ele>
        <time>2026-05-08T03:35:00Z</time>
      </trkpt>
      <trkpt lat="46.458790226" lon="7.090310161">
        <ele>1055.470</ele>
        <time>2026-05-08T03:36:00Z</time>
      </trkpt>
      <trkpt lat="46.458780227" lon="7.090310161">
        <ele>1055.700</ele>
        <time>2026-05-08T03:37:00Z</time>
      </trkpt>
      <trkpt lat="46.458760227" lon="7.090260161">
        <ele>1057.400</ele>
        <time>2026-05-08T03:38:00Z</time>
      </trkpt>
      <trkpt lat="46.458760228" lon="7.089960161">
        <ele>1060.570</ele>
        <time>2026-05-08T03:39:00Z</time>
      </trkpt>
      <trkpt lat="46.458750228" lon="7.089660162">
        <ele>1063.900</ele>
        <time>2026-05-08T03:40:00Z</time>
      </trkpt>
      <trkpt lat="46.458750228" lon="7.089600162">
        <ele>1064.930</ele>
        <time>2026-05-08T03:41:00Z</time>
      </trkpt>
      <trkpt lat="46.458730229" lon="7.089440162">
        <ele>1067.500</ele>
        <time>2026-05-08T03:42:00Z</time>
      </trkpt>
      <trkpt lat="46.458710229" lon="7.089260162">
        <ele>1069.400</ele>
        <time>2026-05-08T03:43:00Z</time>
      </trkpt>
      <trkpt lat="46.458640230" lon="7.088850163">
        <ele>1074.100</ele>
        <time>2026-05-08T03:44:00Z</time>
      </trkpt>
      <trkpt lat="46.458620231" lon="7.088690164">
        <ele>1075.700</ele>
        <time>2026-05-08T03:45:00Z</time>
      </trkpt>
      <trkpt lat="46.458620231" lon="7.088570164">
        <ele>1076.700</ele>
        <time>2026-05-08T03:46:00Z</time>
      </trkpt>
      <trkpt lat="46.458610231" lon="7.088440164">
        <ele>1077.800</ele>
        <time>2026-05-08T03:47:00Z</time>
      </trkpt>
      <trkpt lat="46.458590232" lon="7.088230164">
        <ele>1080.700</ele>
        <time>2026-05-08T03:48:00Z</time>
      </trkpt>
      <trkpt lat="46.458570232" lon="7.088090164">
        <ele>1081.700</ele>
        <time>2026-05-08T03:49:00Z</time>
      </trkpt>
      <trkpt lat="46.458540232" lon="7.087980165">
        <ele>1084.000</ele>
        <time>2026-05-08T03:50:00Z</time>
      </trkpt>
      <trkpt lat="46.458510233" lon="7.087840165">
        <ele>1087.040</ele>
        <time>2026-05-08T03:51:00Z</time>
      </trkpt>
      <trkpt lat="46.458490233" lon="7.087730165">
        <ele>1090.170</ele>
        <time>2026-05-08T03:52:00Z</time>
      </trkpt>
      <trkpt lat="46.458490233" lon="7.087730166">
        <ele>1090.230</ele>
        <time>2026-05-08T03:53:00Z</time>
      </trkpt>
      <trkpt lat="46.458480234" lon="7.087660166">
        <ele>1091.000</ele>
        <time>2026-05-08T03:54:00Z</time>
      </trkpt>
      <trkpt lat="46.458460234" lon="7.087460166">
        <ele>1092.660</ele>
        <time>2026-05-08T03:55:00Z</time>
      </trkpt>
      <trkpt lat="46.458460234" lon="7.087370166">
        <ele>1093.500</ele>
        <time>2026-05-08T03:56:00Z</time>
      </trkpt>
      <trkpt lat="46.458450234" lon="7.087320166">
        <ele>1093.720</ele>
        <time>2026-05-08T03:57:00Z</time>
      </trkpt>
      <trkpt lat="46.458380235" lon="7.086680166">
        <ele>1097.800</ele>
        <time>2026-05-08T03:58:00Z</time>
      </trkpt>
      <trkpt lat="46.458370235" lon="7.086620166">
        <ele>1098.400</ele>
        <time>2026-05-08T03:59:00Z</time>
      </trkpt>
      <trkpt lat="46.458340236" lon="7.086530167">
        <ele>1099.730</ele>
        <time>2026-05-08T04:00:00Z</time>
      </trkpt>
      <trkpt lat="46.458270236" lon="7.086290167">
        <ele>1102.000</ele>
        <time>2026-05-08T04:01:00Z</time>
      </trkpt>
      <trkpt lat="46.458160237" lon="7.085920168">
        <ele>1107.190</ele>
        <time>2026-05-08T04:02:00Z</time>
      </trkpt>
      <trkpt lat="46.458140237" lon="7.085880168">
        <ele>1108.100</ele>
        <time>2026-05-08T04:03:00Z</time>
      </trkpt>
      <trkpt lat="46.458140237" lon="7.085840168">
        <ele>1108.450</ele>
        <time>2026-05-08T04:04:00Z</time>
      </trkpt>
      <trkpt lat="46.458140237" lon="7.085820168">
        <ele>1108.700</ele>
        <time>2026-05-08T04:05:00Z</time>
      </trkpt>
      <trkpt lat="46.458120238" lon="7.085750168">
        <ele>1109.740</ele>
        <time>2026-05-08T04:06:00Z</time>
      </trkpt>
      <trkpt lat="46.458120238" lon="7.085730168">
        <ele>1109.900</ele>
        <time>2026-05-08T04:07:00Z</time>
      </trkpt>
      <trkpt lat="46.458120238" lon="7.085720168">
        <ele>1109.990</ele>
        <time>2026-05-08T04:08:00Z</time>
      </trkpt>
      <trkpt lat="46.458120238" lon="7.085670168">
        <ele>1110.300</ele>
        <time>2026-05-08T04:09:00Z</time>
      </trkpt>
      <trkpt lat="46.458100237" lon="7.085580168">
        <ele>1110.880</ele>
        <time>2026-05-08T04:10:00Z</time>
      </trkpt>
      <trkpt lat="46.458100237" lon="7.085550168">
        <ele>1111.040</ele>
        <time>2026-05-08T04:11:00Z</time>
      </trkpt>
      <trkpt lat="46.458060239" lon="7.085200169">
        <ele>1114.800</ele>
        <time>2026-05-08T04:12:00Z</time>
      </trkpt>
      <trkpt lat="46.458060239" lon="7.085110169">
        <ele>1115.000</ele>
        <time>2026-05-08T04:13:00Z</time>
      </trkpt>
      <trkpt lat="46.458020239" lon="7.084810169">
        <ele>1118.100</ele>
        <time>2026-05-08T04:14:00Z</time>
      </trkpt>
      <trkpt lat="46.458010240" lon="7.084470170">
        <ele>1124.400</ele>
        <time>2026-05-08T04:15:00Z</time>
      </trkpt>
      <trkpt lat="46.457990240" lon="7.084390170">
        <ele>1125.200</ele>
        <time>2026-05-08T04:16:00Z</time>
      </trkpt>
      <trkpt lat="46.457970241" lon="7.084280170">
        <ele>1124.960</ele>
        <time>2026-05-08T04:17:00Z</time>
      </trkpt>
      <trkpt lat="46.457960241" lon="7.084250170">
        <ele>1124.900</ele>
        <time>2026-05-08T04:18:00Z</time>
      </trkpt>
      <trkpt lat="46.457940240" lon="7.084190170">
        <ele>1125.210</ele>
        <time>2026-05-08T04:19:00Z</time>
      </trkpt>
      <trkpt lat="46.457940240" lon="7.084170170">
        <ele>1125.300</ele>
        <time>2026-05-08T04:20:00Z</time>
      </trkpt>
      <trkpt lat="46.457870241" lon="7.084030170">
        <ele>1127.400</ele>
        <time>2026-05-08T04:21:00Z</time>
      </trkpt>
      <trkpt lat="46.457810242" lon="7.083910171">
        <ele>1131.800</ele>
        <time>2026-05-08T04:22:00Z</time>
      </trkpt>
      <trkpt lat="46.457770242" lon="7.083860171">
        <ele>1133.400</ele>
        <time>2026-05-08T04:23:00Z</time>
      </trkpt>
      <trkpt lat="46.457670243" lon="7.083710171">
        <ele>1135.340</ele>
        <time>2026-05-08T04:24:00Z</time>
      </trkpt>
      <trkpt lat="46.457660242" lon="7.083710171">
        <ele>1135.390</ele>
        <time>2026-05-08T04:25:00Z</time>
      </trkpt>
      <trkpt lat="46.457650242" lon="7.083640172">
        <ele>1136.000</ele>
        <time>2026-05-08T04:26:00Z</time>
      </trkpt>
      <trkpt lat="46.457660242" lon="7.083600171">
        <ele>1135.790</ele>
        <time>2026-05-08T04:27:00Z</time>
      </trkpt>
      <trkpt lat="46.457660242" lon="7.083540171">
        <ele>1135.500</ele>
        <time>2026-05-08T04:28:00Z</time>
      </trkpt>
      <trkpt lat="46.457680243" lon="7.083490171">
        <ele>1135.240</ele>
        <time>2026-05-08T04:29:00Z</time>
      </trkpt>
      <trkpt lat="46.457690242" lon="7.083460171">
        <ele>1135.000</ele>
        <time>2026-05-08T04:30:00Z</time>
      </trkpt>
      <trkpt lat="46.457720243" lon="7.083240172">
        <ele>1138.300</ele>
        <time>2026-05-08T04:31:00Z</time>
      </trkpt>
      <trkpt lat="46.457720243" lon="7.083190172">
        <ele>1138.700</ele>
        <time>2026-05-08T04:32:00Z</time>
      </trkpt>
      <trkpt lat="46.457700243" lon="7.083160172">
        <ele>1138.980</ele>
        <time>2026-05-08T04:33:00Z</time>
      </trkpt>
      <trkpt lat="46.457690243" lon="7.083120172">
        <ele>1139.400</ele>
        <time>2026-05-08T04:34:00Z</time>
      </trkpt>
      <trkpt lat="46.457680244" lon="7.083110172">
        <ele>1139.860</ele>
        <time>2026-05-08T04:35:00Z</time>
      </trkpt>
      <trkpt lat="46.457650244" lon="7.083080172">
        <ele>1141.300</ele>
        <time>2026-05-08T04:36:00Z</time>
      </trkpt>
      <trkpt lat="46.457630244" lon="7.083070172">
        <ele>1141.850</ele>
        <time>2026-05-08T04:37:00Z</time>
      </trkpt>
      <trkpt lat="46.457620244" lon="7.083070172">
        <ele>1142.200</ele>
        <time>2026-05-08T04:38:00Z</time>
      </trkpt>
      <trkpt lat="46.457590244" lon="7.083000172">
        <ele>1141.500</ele>
        <time>2026-05-08T04:39:00Z</time>
      </trkpt>
      <trkpt lat="46.457570244" lon="7.082910173">
        <ele>1142.550</ele>
        <time>2026-05-08T04:40:00Z</time>
      </trkpt>
      <trkpt lat="46.457560244" lon="7.082870172">
        <ele>1143.000</ele>
        <time>2026-05-08T04:41:00Z</time>
      </trkpt>
      <trkpt lat="46.457500244" lon="7.082700173">
        <ele>1145.800</ele>
        <time>2026-05-08T04:42:00Z</time>
      </trkpt>
      <trkpt lat="46.457440245" lon="7.082470173">
        <ele>1146.900</ele>
        <time>2026-05-08T04:43:00Z</time>
      </trkpt>
      <trkpt lat="46.457400245" lon="7.082420173">
        <ele>1147.430</ele>
        <time>2026-05-08T04:44:00Z</time>
      </trkpt>
      <trkpt lat="46.457370245" lon="7.082360173">
        <ele>1148.100</ele>
        <time>2026-05-08T04:45:00Z</time>
      </trkpt>
      <trkpt lat="46.457360245" lon="7.082350173">
        <ele>1148.100</ele>
        <time>2026-05-08T04:46:00Z</time>
      </trkpt>
      <trkpt lat="46.457320245" lon="7.082320173">
        <ele>1148.700</ele>
        <time>2026-05-08T04:47:00Z</time>
      </trkpt>
      <trkpt lat="46.457230246" lon="7.082250174">
        <ele>1152.180</ele>
        <time>2026-05-08T04:48:00Z</time>
      </trkpt>
      <trkpt lat="46.457210246" lon="7.082240174">
        <ele>1153.100</ele>
        <time>2026-05-08T04:49:00Z</time>
      </trkpt>
      <trkpt lat="46.457170246" lon="7.082200174">
        <ele>1153.100</ele>
        <time>2026-05-08T04:50:00Z</time>
      </trkpt>
      <trkpt lat="46.457170246" lon="7.082170174">
        <ele>1153.530</ele>
        <time>2026-05-08T04:51:00Z</time>
      </trkpt>
      <trkpt lat="46.457170246" lon="7.082140174">
        <ele>1154.340</ele>
        <time>2026-05-08T04:52:00Z</time>
      </trkpt>
      <trkpt lat="46.457170246" lon="7.082120174">
        <ele>1155.000</ele>
        <time>2026-05-08T04:53:00Z</time>
      </trkpt>
      <trkpt lat="46.457210246" lon="7.082070174">
        <ele>1156.500</ele>
        <time>2026-05-08T04:54:00Z</time>
      </trkpt>
      <trkpt lat="46.457240246" lon="7.082040174">
        <ele>1155.480</ele>
        <time>2026-05-08T04:55:00Z</time>
      </trkpt>
      <trkpt lat="46.457250246" lon="7.082030174">
        <ele>1155.100</ele>
        <time>2026-05-08T04:56:00Z</time>
      </trkpt>
      <trkpt lat="46.457260246" lon="7.082010174">
        <ele>1155.180</ele>
        <time>2026-05-08T04:57:00Z</time>
      </trkpt>
      <trkpt lat="46.457280247" lon="7.081960174">
        <ele>1155.400</ele>
        <time>2026-05-08T04:58:00Z</time>
      </trkpt>
      <trkpt lat="46.457300246" lon="7.081940174">
        <ele>1154.460</ele>
        <time>2026-05-08T04:59:00Z</time>
      </trkpt>
      <trkpt lat="46.457310246" lon="7.081930174">
        <ele>1153.900</ele>
        <time>2026-05-08T05:00:00Z</time>
      </trkpt>
      <trkpt lat="46.457300246" lon="7.081900174">
        <ele>1154.320</ele>
        <time>2026-05-08T05:01:00Z</time>
      </trkpt>
      <trkpt lat="46.457290247" lon="7.081850174">
        <ele>1155.260</ele>
        <time>2026-05-08T05:02:00Z</time>
      </trkpt>
      <trkpt lat="46.457290247" lon="7.081810175">
        <ele>1156.000</ele>
        <time>2026-05-08T05:03:00Z</time>
      </trkpt>
      <trkpt lat="46.457280247" lon="7.081780174">
        <ele>1156.400</ele>
        <time>2026-05-08T05:04:00Z</time>
      </trkpt>
      <trkpt lat="46.457260247" lon="7.081740174">
        <ele>1156.800</ele>
        <time>2026-05-08T05:05:00Z</time>
      </trkpt>
      <trkpt lat="46.457220247" lon="7.081610174">
        <ele>1158.200</ele>
        <time>2026-05-08T05:06:00Z</time>
      </trkpt>
      <trkpt lat="46.457200247" lon="7.081570175">
        <ele>1158.670</ele>
        <time>2026-05-08T05:07:00Z</time>
      </trkpt>
      <trkpt lat="46.457150247" lon="7.081470175">
        <ele>1159.600</ele>
        <time>2026-05-08T05:08:00Z</time>
      </trkpt>
      <trkpt lat="46.457020248" lon="7.081240175">
        <ele>1163.300</ele>
        <time>2026-05-08T05:09:00Z</time>
      </trkpt>
      <trkpt lat="46.456970248" lon="7.081140175">
        <ele>1164.350</ele>
        <time>2026-05-08T05:10:00Z</time>
      </trkpt>
      <trkpt lat="46.456870249" lon="7.080940176">
        <ele>1166.300</ele>
        <time>2026-05-08T05:11:00Z</time>
      </trkpt>
      <trkpt lat="46.456790249" lon="7.080800176">
        <ele>1168.700</ele>
        <time>2026-05-08T05:12:00Z</time>
      </trkpt>
      <trkpt lat="46.456730249" lon="7.080700176">
        <ele>1170.560</ele>
        <time>2026-05-08T05:13:00Z</time>
      </trkpt>
      <trkpt lat="46.456690249" lon="7.080640176">
        <ele>1171.700</ele>
        <time>2026-05-08T05:14:00Z</time>
      </trkpt>
      <trkpt lat="46.456590250" lon="7.080450177">
        <ele>1173.400</ele>
        <time>2026-05-08T05:15:00Z</time>
      </trkpt>
      <trkpt lat="46.456490250" lon="7.080210177">
        <ele>1176.000</ele>
        <time>2026-05-08T05:16:00Z</time>
      </trkpt>
      <trkpt lat="46.456480251" lon="7.080170177">
        <ele>1176.510</ele>
        <time>2026-05-08T05:17:00Z</time>
      </trkpt>
      <trkpt lat="46.456470251" lon="7.080130177">
        <ele>1176.800</ele>
        <time>2026-05-08T05:18:00Z</time>
      </trkpt>
      <trkpt lat="46.456430251" lon="7.080040177">
        <ele>1177.300</ele>
        <time>2026-05-08T05:19:00Z</time>
      </trkpt>
      <trkpt lat="46.456380251" lon="7.079980177">
        <ele>1178.900</ele>
        <time>2026-05-08T05:20:00Z</time>
      </trkpt>
      <trkpt lat="46.456330251" lon="7.079880178">
        <ele>1180.600</ele>
        <time>2026-05-08T05:21:00Z</time>
      </trkpt>
      <trkpt lat="46.456330251" lon="7.079870177">
        <ele>1180.600</ele>
        <time>2026-05-08T05:22:00Z</time>
      </trkpt>
      <trkpt lat="46.456320251" lon="7.079860178">
        <ele>1180.720</ele>
        <time>2026-05-08T05:23:00Z</time>
      </trkpt>
      <trkpt lat="46.456260252" lon="7.079720178">
        <ele>1184.000</ele>
        <time>2026-05-08T05:24:00Z</time>
      </trkpt>
      <trkpt lat="46.456250252" lon="7.079690178">
        <ele>1184.020</ele>
        <time>2026-05-08T05:25:00Z</time>
      </trkpt>
      <trkpt lat="46.456230252" lon="7.079600178">
        <ele>1184.800</ele>
        <time>2026-05-08T05:26:00Z</time>
      </trkpt>
      <trkpt lat="46.456240253" lon="7.079510178">
        <ele>1186.100</ele>
        <time>2026-05-08T05:27:00Z</time>
      </trkpt>
      <trkpt lat="46.456250252" lon="7.079450178">
        <ele>1185.600</ele>
        <time>2026-05-08T05:28:00Z</time>
      </trkpt>
      <trkpt lat="46.456250252" lon="7.079440178">
        <ele>1185.590</ele>
        <time>2026-05-08T05:29:00Z</time>
      </trkpt>
      <trkpt lat="46.456260252" lon="7.079380178">
        <ele>1186.000</ele>
        <time>2026-05-08T05:30:00Z</time>
      </trkpt>
      <trkpt lat="46.456250253" lon="7.079350179">
        <ele>1185.900</ele>
        <time>2026-05-08T05:31:00Z</time>
      </trkpt>
      <trkpt lat="46.456240253" lon="7.079270178">
        <ele>1186.020</ele>
        <time>2026-05-08T05:32:00Z</time>
      </trkpt>
      <trkpt lat="46.456240253" lon="7.079220179">
        <ele>1186.200</ele>
        <time>2026-05-08T05:33:00Z</time>
      </trkpt>
      <trkpt lat="46.456230253" lon="7.079190178">
        <ele>1186.190</ele>
        <time>2026-05-08T05:34:00Z</time>
      </trkpt>
      <trkpt lat="46.456220252" lon="7.079150178">
        <ele>1186.100</ele>
        <time>2026-05-08T05:35:00Z</time>
      </trkpt>
      <trkpt lat="46.456150253" lon="7.079040179">
        <ele>1190.700</ele>
        <time>2026-05-08T05:36:00Z</time>
      </trkpt>
      <trkpt lat="46.456110253" lon="7.079010179">
        <ele>1191.330</ele>
        <time>2026-05-08T05:37:00Z</time>
      </trkpt>
      <trkpt lat="46.456070254" lon="7.078970179">
        <ele>1192.200</ele>
        <time>2026-05-08T05:38:00Z</time>
      </trkpt>
      <trkpt lat="46.456040254" lon="7.078960179">
        <ele>1192.480</ele>
        <time>2026-05-08T05:39:00Z</time>
      </trkpt>
      <trkpt lat="46.455980254" lon="7.078930180">
        <ele>1193.290</ele>
        <time>2026-05-08T05:40:00Z</time>
      </trkpt>
      <trkpt lat="46.455950254" lon="7.078940180">
        <ele>1194.030</ele>
        <time>2026-05-08T05:41:00Z</time>
      </trkpt>
      <trkpt lat="46.455890255" lon="7.078990180">
        <ele>1196.100</ele>
        <time>2026-05-08T05:42:00Z</time>
      </trkpt>
      <trkpt lat="46.455870254" lon="7.079000180">
        <ele>1196.000</ele>
        <time>2026-05-08T05:43:00Z</time>
      </trkpt>
      <trkpt lat="46.455840255" lon="7.079010180">
        <ele>1195.900</ele>
        <time>2026-05-08T05:44:00Z</time>
      </trkpt>
      <trkpt lat="46.455830255" lon="7.078990180">
        <ele>1195.840</ele>
        <time>2026-05-08T05:45:00Z</time>
      </trkpt>
      <trkpt lat="46.455770255" lon="7.078880180">
        <ele>1196.900</ele>
        <time>2026-05-08T05:46:00Z</time>
      </trkpt>
      <trkpt lat="46.455740255" lon="7.078810180">
        <ele>1198.800</ele>
        <time>2026-05-08T05:47:00Z</time>
      </trkpt>
      <trkpt lat="46.455740255" lon="7.078780180">
        <ele>1198.630</ele>
        <time>2026-05-08T05:48:00Z</time>
      </trkpt>
      <trkpt lat="46.455730255" lon="7.078750180">
        <ele>1198.400</ele>
        <time>2026-05-08T05:49:00Z</time>
      </trkpt>
      <trkpt lat="46.455700255" lon="7.078670180">
        <ele>1199.200</ele>
        <time>2026-05-08T05:50:00Z</time>
      </trkpt>
      <trkpt lat="46.455670255" lon="7.078630180">
        <ele>1199.380</ele>
        <time>2026-05-08T05:51:00Z</time>
      </trkpt>
      <trkpt lat="46.455650255" lon="7.078590180">
        <ele>1199.500</ele>
        <time>2026-05-08T05:52:00Z</time>
      </trkpt>
      <trkpt lat="46.455630255" lon="7.078520180">
        <ele>1199.520</ele>
        <time>2026-05-08T05:53:00Z</time>
      </trkpt>
      <trkpt lat="46.455610255" lon="7.078490180">
        <ele>1199.500</ele>
        <time>2026-05-08T05:54:00Z</time>
      </trkpt>
      <trkpt lat="46.455600256" lon="7.078460181">
        <ele>1200.930</ele>
        <time>2026-05-08T05:55:00Z</time>
      </trkpt>
      <trkpt lat="46.455570256" lon="7.078410181">
        <ele>1203.000</ele>
        <time>2026-05-08T05:56:00Z</time>
      </trkpt>
      <trkpt lat="46.455550256" lon="7.078330181">
        <ele>1203.490</ele>
        <time>2026-05-08T05:57:00Z</time>
      </trkpt>
      <trkpt lat="46.455540256" lon="7.078280181">
        <ele>1203.800</ele>
        <time>2026-05-08T05:58:00Z</time>
      </trkpt>
      <trkpt lat="46.455500256" lon="7.078140181">
        <ele>1206.200</ele>
        <time>2026-05-08T05:59:00Z</time>
      </trkpt>
      <trkpt lat="46.455490257" lon="7.078080181">
        <ele>1206.600</ele>
        <time>2026-05-08T06:00:00Z</time>
      </trkpt>
      <trkpt lat="46.455440257" lon="7.077880181">
        <ele>1206.900</ele>
        <time>2026-05-08T06:01:00Z</time>
      </trkpt>
      <trkpt lat="46.455410257" lon="7.077810181">
        <ele>1207.920</ele>
        <time>2026-05-08T06:02:00Z</time>
      </trkpt>
      <trkpt lat="46.455380257" lon="7.077750182">
        <ele>1209.200</ele>
        <time>2026-05-08T06:03:00Z</time>
      </trkpt>
      <trkpt lat="46.455380257" lon="7.077720182">
        <ele>1209.270</ele>
        <time>2026-05-08T06:04:00Z</time>
      </trkpt>
      <trkpt lat="46.455360257" lon="7.077580182">
        <ele>1210.200</ele>
        <time>2026-05-08T06:05:00Z</time>
      </trkpt>
      <trkpt lat="46.455360257" lon="7.077590181">
        <ele>1210.140</ele>
        <time>2026-05-08T06:06:00Z</time>
      </trkpt>
      <trkpt lat="46.455340258" lon="7.077640182">
        <ele>1212.600</ele>
        <time>2026-05-08T06:07:00Z</time>
      </trkpt>
      <trkpt lat="46.455340258" lon="7.077750182">
        <ele>1212.300</ele>
        <time>2026-05-08T06:08:00Z</time>
      </trkpt>
      <trkpt lat="46.455340258" lon="7.077810182">
        <ele>1214.080</ele>
        <time>2026-05-08T06:09:00Z</time>
      </trkpt>
      <trkpt lat="46.455330258" lon="7.077850183">
        <ele>1215.400</ele>
        <time>2026-05-08T06:10:00Z</time>
      </trkpt>
      <trkpt lat="46.455350258" lon="7.077930183">
        <ele>1215.680</ele>
        <time>2026-05-08T06:11:00Z</time>
      </trkpt>
      <trkpt lat="46.455350258" lon="7.077970183">
        <ele>1215.800</ele>
        <time>2026-05-08T06:12:00Z</time>
      </trkpt>
      <trkpt lat="46.455350258" lon="7.077990183">
        <ele>1215.970</ele>
        <time>2026-05-08T06:13:00Z</time>
      </trkpt>
      <trkpt lat="46.455360258" lon="7.078090183">
        <ele>1216.800</ele>
        <time>2026-05-08T06:14:00Z</time>
      </trkpt>
      <trkpt lat="46.455360258" lon="7.078120183">
        <ele>1217.110</ele>
        <time>2026-05-08T06:15:00Z</time>
      </trkpt>
      <trkpt lat="46.455360259" lon="7.078150182">
        <ele>1217.500</ele>
        <time>2026-05-08T06:16:00Z</time>
      </trkpt>
      <trkpt lat="46.455350259" lon="7.078230183">
        <ele>1218.600</ele>
        <time>2026-05-08T06:17:00Z</time>
      </trkpt>
      <trkpt lat="46.455340259" lon="7.078370183">
        <ele>1221.000</ele>
        <time>2026-05-08T06:18:00Z</time>
      </trkpt>
      <trkpt lat="46.455340259" lon="7.078400183">
        <ele>1221.140</ele>
        <time>2026-05-08T06:19:00Z</time>
      </trkpt>
      <trkpt lat="46.455340260" lon="7.078490183">
        <ele>1221.900</ele>
        <time>2026-05-08T06:20:00Z</time>
      </trkpt>
      <trkpt lat="46.455350260" lon="7.078640183">
        <ele>1223.190</ele>
        <time>2026-05-08T06:21:00Z</time>
      </trkpt>
      <trkpt lat="46.455350260" lon="7.078680184">
        <ele>1223.600</ele>
        <time>2026-05-08T06:22:00Z</time>
      </trkpt>
      <trkpt lat="46.455370260" lon="7.078930184">
        <ele>1225.700</ele>
        <time>2026-05-08T06:23:00Z</time>
      </trkpt>
      <trkpt lat="46.455400261" lon="7.079100184">
        <ele>1227.400</ele>
        <time>2026-05-08T06:24:00Z</time>
      </trkpt>
      <trkpt lat="46.455420261" lon="7.079260184">
        <ele>1229.800</ele>
        <time>2026-05-08T06:25:00Z</time>
      </trkpt>
      <trkpt lat="46.455450261" lon="7.079440185">
        <ele>1232.440</ele>
        <time>2026-05-08T06:26:00Z</time>
      </trkpt>
      <trkpt lat="46.455500263" lon="7.079740185">
        <ele>1237.300</ele>
        <time>2026-05-08T06:27:00Z</time>
      </trkpt>
      <trkpt lat="46.455530263" lon="7.079850186">
        <ele>1238.340</ele>
        <time>2026-05-08T06:28:00Z</time>
      </trkpt>
      <trkpt lat="46.455540263" lon="7.079880186">
        <ele>1238.650</ele>
        <time>2026-05-08T06:29:00Z</time>
      </trkpt>
      <trkpt lat="46.455590263" lon="7.080090186">
        <ele>1242.600</ele>
        <time>2026-05-08T06:30:00Z</time>
      </trkpt>
      <trkpt lat="46.455670265" lon="7.080280187">
        <ele>1247.100</ele>
        <time>2026-05-08T06:31:00Z</time>
      </trkpt>
      <trkpt lat="46.455730265" lon="7.080430187">
        <ele>1248.410</ele>
        <time>2026-05-08T06:32:00Z</time>
      </trkpt>
      <trkpt lat="46.455750265" lon="7.080450187">
        <ele>1248.600</ele>
        <time>2026-05-08T06:33:00Z</time>
      </trkpt>
      <trkpt lat="46.455810265" lon="7.080530187">
        <ele>1249.890</ele>
        <time>2026-05-08T06:34:00Z</time>
      </trkpt>
      <trkpt lat="46.455870266" lon="7.080660188">
        <ele>1251.500</ele>
        <time>2026-05-08T06:35:00Z</time>
      </trkpt>
      <trkpt lat="46.455900265" lon="7.080700187">
        <ele>1251.890</ele>
        <time>2026-05-08T06:36:00Z</time>
      </trkpt>
      <trkpt lat="46.455940266" lon="7.080760187">
        <ele>1252.500</ele>
        <time>2026-05-08T06:37:00Z</time>
      </trkpt>
      <trkpt lat="46.455960266" lon="7.080840188">
        <ele>1253.450</ele>
        <time>2026-05-08T06:38:00Z</time>
      </trkpt>
      <trkpt lat="46.455970266" lon="7.080870188">
        <ele>1253.700</ele>
        <time>2026-05-08T06:39:00Z</time>
      </trkpt>
      <trkpt lat="46.456010266" lon="7.081010188">
        <ele>1255.000</ele>
        <time>2026-05-08T06:40:00Z</time>
      </trkpt>
      <trkpt lat="46.456020267" lon="7.081130188">
        <ele>1258.400</ele>
        <time>2026-05-08T06:41:00Z</time>
      </trkpt>
      <trkpt lat="46.456040267" lon="7.081230189">
        <ele>1259.680</ele>
        <time>2026-05-08T06:42:00Z</time>
      </trkpt>
      <trkpt lat="46.456050267" lon="7.081300189">
        <ele>1260.400</ele>
        <time>2026-05-08T06:43:00Z</time>
      </trkpt>
      <trkpt lat="46.456050267" lon="7.081330189">
        <ele>1260.510</ele>
        <time>2026-05-08T06:44:00Z</time>
      </trkpt>
      <trkpt lat="46.456050267" lon="7.081390189">
        <ele>1260.820</ele>
        <time>2026-05-08T06:45:00Z</time>
      </trkpt>
      <trkpt lat="46.456050267" lon="7.081410189">
        <ele>1261.100</ele>
        <time>2026-05-08T06:46:00Z</time>
      </trkpt>
      <trkpt lat="46.455990268" lon="7.081400190">
        <ele>1264.470</ele>
        <time>2026-05-08T06:47:00Z</time>
      </trkpt>
      <trkpt lat="46.455940268" lon="7.081360190">
        <ele>1267.400</ele>
        <time>2026-05-08T06:48:00Z</time>
      </trkpt>
      <trkpt lat="46.455880269" lon="7.081350190">
        <ele>1271.100</ele>
        <time>2026-05-08T06:49:00Z</time>
      </trkpt>
      <trkpt lat="46.455830270" lon="7.081320191">
        <ele>1274.700</ele>
        <time>2026-05-08T06:50:00Z</time>
      </trkpt>
      <trkpt lat="46.455720271" lon="7.081300192">
        <ele>1279.300</ele>
        <time>2026-05-08T06:51:00Z</time>
      </trkpt>
      <trkpt lat="46.455700271" lon="7.081290192">
        <ele>1279.540</ele>
        <time>2026-05-08T06:52:00Z</time>
      </trkpt>
      <trkpt lat="46.455670271" lon="7.081270191">
        <ele>1280.300</ele>
        <time>2026-05-08T06:53:00Z</time>
      </trkpt>
      <trkpt lat="46.455550272" lon="7.081230192">
        <ele>1281.200</ele>
        <time>2026-05-08T06:54:00Z</time>
      </trkpt>
      <trkpt lat="46.455430272" lon="7.081250192">
        <ele>1285.700</ele>
        <time>2026-05-08T06:55:00Z</time>
      </trkpt>
      <trkpt lat="46.455380273" lon="7.081240193">
        <ele>1288.020</ele>
        <time>2026-05-08T06:56:00Z</time>
      </trkpt>
      <trkpt lat="46.455310273" lon="7.081220193">
        <ele>1290.400</ele>
        <time>2026-05-08T06:57:00Z</time>
      </trkpt>
      <trkpt lat="46.455220274" lon="7.081240193">
        <ele>1292.900</ele>
        <time>2026-05-08T06:58:00Z</time>
      </trkpt>
      <trkpt lat="46.455160274" lon="7.081280194">
        <ele>1295.500</ele>
        <time>2026-05-08T06:59:00Z</time>
      </trkpt>
      <trkpt lat="46.455150274" lon="7.081280194">
        <ele>1295.600</ele>
        <time>2026-05-08T07:00:00Z</time>
      </trkpt>
      <trkpt lat="46.455110274" lon="7.081290194">
        <ele>1296.500</ele>
        <time>2026-05-08T07:01:00Z</time>
      </trkpt>
      <trkpt lat="46.455020275" lon="7.081420195">
        <ele>1302.600</ele>
        <time>2026-05-08T07:02:00Z</time>
      </trkpt>
      <trkpt lat="46.455000276" lon="7.081450195">
        <ele>1303.600</ele>
        <time>2026-05-08T07:03:00Z</time>
      </trkpt>
      <trkpt lat="46.454930277" lon="7.081560195">
        <ele>1308.100</ele>
        <time>2026-05-08T07:04:00Z</time>
      </trkpt>
      <trkpt lat="46.454890277" lon="7.081630196">
        <ele>1310.780</ele>
        <time>2026-05-08T07:05:00Z</time>
      </trkpt>
      <trkpt lat="46.454880277" lon="7.081640196">
        <ele>1311.330</ele>
        <time>2026-05-08T07:06:00Z</time>
      </trkpt>
      <trkpt lat="46.454820278" lon="7.081730196">
        <ele>1314.600</ele>
        <time>2026-05-08T07:07:00Z</time>
      </trkpt>
      <trkpt lat="46.454810278" lon="7.081770197">
        <ele>1315.750</ele>
        <time>2026-05-08T07:08:00Z</time>
      </trkpt>
      <trkpt lat="46.454800278" lon="7.081790197">
        <ele>1316.200</ele>
        <time>2026-05-08T07:09:00Z</time>
      </trkpt>
      <trkpt lat="46.454780278" lon="7.081790197">
        <ele>1316.890</ele>
        <time>2026-05-08T07:10:00Z</time>
      </trkpt>
      <trkpt lat="46.454770279" lon="7.081800197">
        <ele>1317.210</ele>
        <time>2026-05-08T07:11:00Z</time>
      </trkpt>
      <trkpt lat="46.454730279" lon="7.081900197">
        <ele>1319.200</ele>
        <time>2026-05-08T07:12:00Z</time>
      </trkpt>
      <trkpt lat="46.454730279" lon="7.081910197">
        <ele>1319.280</ele>
        <time>2026-05-08T07:13:00Z</time>
      </trkpt>
      <trkpt lat="46.454690279" lon="7.081930197">
        <ele>1319.700</ele>
        <time>2026-05-08T07:14:00Z</time>
      </trkpt>
      <trkpt lat="46.454650279" lon="7.082010197">
        <ele>1320.040</ele>
        <time>2026-05-08T07:15:00Z</time>
      </trkpt>
      <trkpt lat="46.454600279" lon="7.082060197">
        <ele>1320.800</ele>
        <time>2026-05-08T07:16:00Z</time>
      </trkpt>
      <trkpt lat="46.454550279" lon="7.082100197">
        <ele>1321.990</ele>
        <time>2026-05-08T07:17:00Z</time>
      </trkpt>
      <trkpt lat="46.454470280" lon="7.082150198">
        <ele>1323.660</ele>
        <time>2026-05-08T07:18:00Z</time>
      </trkpt>
      <trkpt lat="46.454450280" lon="7.082170198">
        <ele>1323.900</ele>
        <time>2026-05-08T07:19:00Z</time>
      </trkpt>
      <trkpt lat="46.454350280" lon="7.082220198">
        <ele>1325.000</ele>
        <time>2026-05-08T07:20:00Z</time>
      </trkpt>
      <trkpt lat="46.454350280" lon="7.082220198">
        <ele>1324.960</ele>
        <time>2026-05-08T07:21:00Z</time>
      </trkpt>
      <trkpt lat="46.454350280" lon="7.082220198">
        <ele>1324.970</ele>
        <time>2026-05-08T07:22:00Z</time>
      </trkpt>
      <trkpt lat="46.454340280" lon="7.082220198">
        <ele>1324.340</ele>
        <time>2026-05-08T07:23:00Z</time>
      </trkpt>
      <trkpt lat="46.454350280" lon="7.082220198">
        <ele>1324.970</ele>
        <time>2026-05-08T07:24:00Z</time>
      </trkpt>
      <trkpt lat="46.454350280" lon="7.082220198">
        <ele>1324.960</ele>
        <time>2026-05-08T07:25:00Z</time>
      </trkpt>
      <trkpt lat="46.454300280" lon="7.082140198">
        <ele>1326.800</ele>
        <time>2026-05-08T07:26:00Z</time>
      </trkpt>
      <trkpt lat="46.454280281" lon="7.082090198">
        <ele>1328.080</ele>
        <time>2026-05-08T07:27:00Z</time>
      </trkpt>
      <trkpt lat="46.454200282" lon="7.081950199">
        <ele>1332.800</ele>
        <time>2026-05-08T07:28:00Z</time>
      </trkpt>
      <trkpt lat="46.454190282" lon="7.081900199">
        <ele>1334.530</ele>
        <time>2026-05-08T07:29:00Z</time>
      </trkpt>
      <trkpt lat="46.454160283" lon="7.081790200">
        <ele>1338.300</ele>
        <time>2026-05-08T07:30:00Z</time>
      </trkpt>
      <trkpt lat="46.454130283" lon="7.081760200">
        <ele>1339.710</ele>
        <time>2026-05-08T07:31:00Z</time>
      </trkpt>
      <trkpt lat="46.454120283" lon="7.081750200">
        <ele>1340.400</ele>
        <time>2026-05-08T07:32:00Z</time>
      </trkpt>
      <trkpt lat="46.454120283" lon="7.081750200">
        <ele>1340.270</ele>
        <time>2026-05-08T07:33:00Z</time>
      </trkpt>
      <trkpt lat="46.454120283" lon="7.081730200">
        <ele>1340.710</ele>
        <time>2026-05-08T07:34:00Z</time>
      </trkpt>
      <trkpt lat="46.454100283" lon="7.081690200">
        <ele>1342.100</ele>
        <time>2026-05-08T07:35:00Z</time>
      </trkpt>
      <trkpt lat="46.454090284" lon="7.081530201">
        <ele>1345.500</ele>
        <time>2026-05-08T07:36:00Z</time>
      </trkpt>
      <trkpt lat="46.454090284" lon="7.081510201">
        <ele>1346.210</ele>
        <time>2026-05-08T07:37:00Z</time>
      </trkpt>
      <trkpt lat="46.454090285" lon="7.081450201">
        <ele>1347.600</ele>
        <time>2026-05-08T07:38:00Z</time>
      </trkpt>
      <trkpt lat="46.454050285" lon="7.081330202">
        <ele>1351.300</ele>
        <time>2026-05-08T07:39:00Z</time>
      </trkpt>
      <trkpt lat="46.454050285" lon="7.081300201">
        <ele>1351.840</ele>
        <time>2026-05-08T07:40:00Z</time>
      </trkpt>
      <trkpt lat="46.454050285" lon="7.081270202">
        <ele>1352.500</ele>
        <time>2026-05-08T07:41:00Z</time>
      </trkpt>
      <trkpt lat="46.454040286" lon="7.081190202">
        <ele>1354.030</ele>
        <time>2026-05-08T07:42:00Z</time>
      </trkpt>
      <trkpt lat="46.454040286" lon="7.081130202">
        <ele>1355.500</ele>
        <time>2026-05-08T07:43:00Z</time>
      </trkpt>
      <trkpt lat="46.454040286" lon="7.081090202">
        <ele>1355.920</ele>
        <time>2026-05-08T07:44:00Z</time>
      </trkpt>
      <trkpt lat="46.454040286" lon="7.081010202">
        <ele>1356.780</ele>
        <time>2026-05-08T07:45:00Z</time>
      </trkpt>
      <trkpt lat="46.454040286" lon="7.081000202">
        <ele>1356.900</ele>
        <time>2026-05-08T07:46:00Z</time>
      </trkpt>
      <trkpt lat="46.454030287" lon="7.080890202">
        <ele>1358.800</ele>
        <time>2026-05-08T07:47:00Z</time>
      </trkpt>
      <trkpt lat="46.454030287" lon="7.080810203">
        <ele>1359.900</ele>
        <time>2026-05-08T07:48:00Z</time>
      </trkpt>
      <trkpt lat="46.454030287" lon="7.080810203">
        <ele>1359.960</ele>
        <time>2026-05-08T07:49:00Z</time>
      </trkpt>
      <trkpt lat="46.454050287" lon="7.080700203">
        <ele>1360.800</ele>
        <time>2026-05-08T07:50:00Z</time>
      </trkpt>
      <trkpt lat="46.454070287" lon="7.080540203">
        <ele>1362.600</ele>
        <time>2026-05-08T07:51:00Z</time>
      </trkpt>
      <trkpt lat="46.454070287" lon="7.080520203">
        <ele>1362.750</ele>
        <time>2026-05-08T07:52:00Z</time>
      </trkpt>
      <trkpt lat="46.454060288" lon="7.080420203">
        <ele>1363.900</ele>
        <time>2026-05-08T07:53:00Z</time>
      </trkpt>
      <trkpt lat="46.454030288" lon="7.080310203">
        <ele>1365.690</ele>
        <time>2026-05-08T07:54:00Z</time>
      </trkpt>
      <trkpt lat="46.454030288" lon="7.080280203">
        <ele>1366.100</ele>
        <time>2026-05-08T07:55:00Z</time>
      </trkpt>
      <trkpt lat="46.453980288" lon="7.080160204">
        <ele>1368.700</ele>
        <time>2026-05-08T07:56:00Z</time>
      </trkpt>
      <trkpt lat="46.453930289" lon="7.080100204">
        <ele>1371.610</ele>
        <time>2026-05-08T07:57:00Z</time>
      </trkpt>
      <trkpt lat="46.453900290" lon="7.080050204">
        <ele>1372.800</ele>
        <time>2026-05-08T07:58:00Z</time>
      </trkpt>
      <trkpt lat="46.453850289" lon="7.080000204">
        <ele>1372.890</ele>
        <time>2026-05-08T07:59:00Z</time>
      </trkpt>
      <trkpt lat="46.453840290" lon="7.079990204">
        <ele>1373.100</ele>
        <time>2026-05-08T08:00:00Z</time>
      </trkpt>
      <trkpt lat="46.453790290" lon="7.079980204">
        <ele>1373.800</ele>
        <time>2026-05-08T08:01:00Z</time>
      </trkpt>
      <trkpt lat="46.453760290" lon="7.079980205">
        <ele>1375.100</ele>
        <time>2026-05-08T08:02:00Z</time>
      </trkpt>
      <trkpt lat="46.453740290" lon="7.079990205">
        <ele>1375.700</ele>
        <time>2026-05-08T08:03:00Z</time>
      </trkpt>
      <trkpt lat="46.453720290" lon="7.080000205">
        <ele>1376.700</ele>
        <time>2026-05-08T08:04:00Z</time>
      </trkpt>
      <trkpt lat="46.453660291" lon="7.080000205">
        <ele>1379.410</ele>
        <time>2026-05-08T08:05:00Z</time>
      </trkpt>
      <trkpt lat="46.453650291" lon="7.080000205">
        <ele>1380.000</ele>
        <time>2026-05-08T08:06:00Z</time>
      </trkpt>
      <trkpt lat="46.453620291" lon="7.080010206">
        <ele>1381.800</ele>
        <time>2026-05-08T08:07:00Z</time>
      </trkpt>
      <trkpt lat="46.453570292" lon="7.080080206">
        <ele>1384.900</ele>
        <time>2026-05-08T08:08:00Z</time>
      </trkpt>
      <trkpt lat="46.453490293" lon="7.080150207">
        <ele>1388.000</ele>
        <time>2026-05-08T08:09:00Z</time>
      </trkpt>
      <trkpt lat="46.453440293" lon="7.080190206">
        <ele>1388.800</ele>
        <time>2026-05-08T08:10:00Z</time>
      </trkpt>
      <trkpt lat="46.453430293" lon="7.080200206">
        <ele>1389.150</ele>
        <time>2026-05-08T08:11:00Z</time>
      </trkpt>
      <trkpt lat="46.453380293" lon="7.080220207">
        <ele>1389.900</ele>
        <time>2026-05-08T08:12:00Z</time>
      </trkpt>
      <trkpt lat="46.453300293" lon="7.080230207">
        <ele>1391.030</ele>
        <time>2026-05-08T08:13:00Z</time>
      </trkpt>
      <trkpt lat="46.453250293" lon="7.080220207">
        <ele>1391.900</ele>
        <time>2026-05-08T08:14:00Z</time>
      </trkpt>
      <trkpt lat="46.453220293" lon="7.080200207">
        <ele>1392.790</ele>
        <time>2026-05-08T08:15:00Z</time>
      </trkpt>
      <trkpt lat="46.453200294" lon="7.080180207">
        <ele>1393.400</ele>
        <time>2026-05-08T08:16:00Z</time>
      </trkpt>
      <trkpt lat="46.453150294" lon="7.080130207">
        <ele>1394.900</ele>
        <time>2026-05-08T08:17:00Z</time>
      </trkpt>
      <trkpt lat="46.453110294" lon="7.080090208">
        <ele>1396.840</ele>
        <time>2026-05-08T08:18:00Z</time>
      </trkpt>
      <trkpt lat="46.453070295" lon="7.080040208">
        <ele>1398.700</ele>
        <time>2026-05-08T08:19:00Z</time>
      </trkpt>
      <trkpt lat="46.453020295" lon="7.079960208">
        <ele>1401.100</ele>
        <time>2026-05-08T08:20:00Z</time>
      </trkpt>
      <trkpt lat="46.453000295" lon="7.079910208">
        <ele>1402.250</ele>
        <time>2026-05-08T08:21:00Z</time>
      </trkpt>
      <trkpt lat="46.453000295" lon="7.079900208">
        <ele>1402.500</ele>
        <time>2026-05-08T08:22:00Z</time>
      </trkpt>
      <trkpt lat="46.452980295" lon="7.079850208">
        <ele>1402.300</ele>
        <time>2026-05-08T08:23:00Z</time>
      </trkpt>
      <trkpt lat="46.452960295" lon="7.079820208">
        <ele>1402.360</ele>
        <time>2026-05-08T08:24:00Z</time>
      </trkpt>
      <trkpt lat="46.452950296" lon="7.079810209">
        <ele>1402.400</ele>
        <time>2026-05-08T08:25:00Z</time>
      </trkpt>
      <trkpt lat="46.452940295" lon="7.079800209">
        <ele>1402.440</ele>
        <time>2026-05-08T08:26:00Z</time>
      </trkpt>
      <trkpt lat="46.452930295" lon="7.079750209">
        <ele>1402.700</ele>
        <time>2026-05-08T08:27:00Z</time>
      </trkpt>
      <trkpt lat="46.452930295" lon="7.079720208">
        <ele>1403.520</ele>
        <time>2026-05-08T08:28:00Z</time>
      </trkpt>
      <trkpt lat="46.452930295" lon="7.079720208">
        <ele>1403.540</ele>
        <time>2026-05-08T08:29:00Z</time>
      </trkpt>
      <trkpt lat="46.452950296" lon="7.079690209">
        <ele>1404.600</ele>
        <time>2026-05-08T08:30:00Z</time>
      </trkpt>
      <trkpt lat="46.452960296" lon="7.079650209">
        <ele>1405.800</ele>
        <time>2026-05-08T08:31:00Z</time>
      </trkpt>
      <trkpt lat="46.452970296" lon="7.079630209">
        <ele>1406.400</ele>
        <time>2026-05-08T08:32:00Z</time>
      </trkpt>
      <trkpt lat="46.453000297" lon="7.079530209">
        <ele>1409.000</ele>
        <time>2026-05-08T08:33:00Z</time>
      </trkpt>
      <trkpt lat="46.453030298" lon="7.079400210">
        <ele>1412.500</ele>
        <time>2026-05-08T08:34:00Z</time>
      </trkpt>
      <trkpt lat="46.453080298" lon="7.079230210">
        <ele>1416.100</ele>
        <time>2026-05-08T08:35:00Z</time>
      </trkpt>
      <trkpt lat="46.453090298" lon="7.079170210">
        <ele>1416.800</ele>
        <time>2026-05-08T08:36:00Z</time>
      </trkpt>
      <trkpt lat="46.453080298" lon="7.079110210">
        <ele>1417.430</ele>
        <time>2026-05-08T08:37:00Z</time>
      </trkpt>
      <trkpt lat="46.453080298" lon="7.079080211">
        <ele>1417.800</ele>
        <time>2026-05-08T08:38:00Z</time>
      </trkpt>
      <trkpt lat="46.453070298" lon="7.079070210">
        <ele>1417.860</ele>
        <time>2026-05-08T08:39:00Z</time>
      </trkpt>
      <trkpt lat="46.453050299" lon="7.079040211">
        <ele>1418.100</ele>
        <time>2026-05-08T08:40:00Z</time>
      </trkpt>
      <trkpt lat="46.453030298" lon="7.079040211">
        <ele>1418.400</ele>
        <time>2026-05-08T08:41:00Z</time>
      </trkpt>
      <trkpt lat="46.453010299" lon="7.079030211">
        <ele>1418.580</ele>
        <time>2026-05-08T08:42:00Z</time>
      </trkpt>
      <trkpt lat="46.453010299" lon="7.079030211">
        <ele>1418.700</ele>
        <time>2026-05-08T08:43:00Z</time>
      </trkpt>
      <trkpt lat="46.452940299" lon="7.079030211">
        <ele>1419.300</ele>
        <time>2026-05-08T08:44:00Z</time>
      </trkpt>
      <trkpt lat="46.452910298" lon="7.079040211">
        <ele>1419.200</ele>
        <time>2026-05-08T08:45:00Z</time>
      </trkpt>
      <trkpt lat="46.452890299" lon="7.079040211">
        <ele>1419.200</ele>
        <time>2026-05-08T08:46:00Z</time>
      </trkpt>
      <trkpt lat="46.452890299" lon="7.079040211">
        <ele>1419.190</ele>
        <time>2026-05-08T08:47:00Z</time>
      </trkpt>
      <trkpt lat="46.452850299" lon="7.079010211">
        <ele>1419.400</ele>
        <time>2026-05-08T08:48:00Z</time>
      </trkpt>
      <trkpt lat="46.452830299" lon="7.078980211">
        <ele>1419.840</ele>
        <time>2026-05-08T08:49:00Z</time>
      </trkpt>
      <trkpt lat="46.452800299" lon="7.078920211">
        <ele>1421.070</ele>
        <time>2026-05-08T08:50:00Z</time>
      </trkpt>
      <trkpt lat="46.452770299" lon="7.078870211">
        <ele>1422.200</ele>
        <time>2026-05-08T08:51:00Z</time>
      </trkpt>
      <trkpt lat="46.452760300" lon="7.078780212">
        <ele>1424.740</ele>
        <time>2026-05-08T08:52:00Z</time>
      </trkpt>
      <trkpt lat="46.452750300" lon="7.078690212">
        <ele>1426.400</ele>
        <time>2026-05-08T08:53:00Z</time>
      </trkpt>
      <trkpt lat="46.452750300" lon="7.078680212">
        <ele>1426.600</ele>
        <time>2026-05-08T08:54:00Z</time>
      </trkpt>
      <trkpt lat="46.452740300" lon="7.078650212">
        <ele>1427.700</ele>
        <time>2026-05-08T08:55:00Z</time>
      </trkpt>
      <trkpt lat="46.452720301" lon="7.078620212">
        <ele>1428.600</ele>
        <time>2026-05-08T08:56:00Z</time>
      </trkpt>
      <trkpt lat="46.452720301" lon="7.078620212">
        <ele>1428.750</ele>
        <time>2026-05-08T08:57:00Z</time>
      </trkpt>
      <trkpt lat="46.452720301" lon="7.078580212">
        <ele>1429.560</ele>
        <time>2026-05-08T08:58:00Z</time>
      </trkpt>
      <trkpt lat="46.452720301" lon="7.078570212">
        <ele>1429.600</ele>
        <time>2026-05-08T08:59:00Z</time>
      </trkpt>
      <trkpt lat="46.452730301" lon="7.078550212">
        <ele>1430.140</ele>
        <time>2026-05-08T09:00:00Z</time>
      </trkpt>
      <trkpt lat="46.452730301" lon="7.078540212">
        <ele>1430.300</ele>
        <time>2026-05-08T09:01:00Z</time>
      </trkpt>
      <trkpt lat="46.452730301" lon="7.078540212">
        <ele>1430.490</ele>
        <time>2026-05-08T09:02:00Z</time>
      </trkpt>
      <trkpt lat="46.452730301" lon="7.078520212">
        <ele>1430.700</ele>
        <time>2026-05-08T09:03:00Z</time>
      </trkpt>
      <trkpt lat="46.452660301" lon="7.078500213">
        <ele>1432.000</ele>
        <time>2026-05-08T09:04:00Z</time>
      </trkpt>
      <trkpt lat="46.452640302" lon="7.078490213">
        <ele>1432.630</ele>
        <time>2026-05-08T09:05:00Z</time>
      </trkpt>
      <trkpt lat="46.452590302" lon="7.078510213">
        <ele>1433.400</ele>
        <time>2026-05-08T09:06:00Z</time>
      </trkpt>
      <trkpt lat="46.452490302" lon="7.078530213">
        <ele>1434.200</ele>
        <time>2026-05-08T09:07:00Z</time>
      </trkpt>
      <trkpt lat="46.452480302" lon="7.078530213">
        <ele>1434.190</ele>
        <time>2026-05-08T09:08:00Z</time>
      </trkpt>
      <trkpt lat="46.452490302" lon="7.078530213">
        <ele>1434.190</ele>
        <time>2026-05-08T09:09:00Z</time>
      </trkpt>
      <trkpt lat="46.452450302" lon="7.078380213">
        <ele>1437.160</ele>
        <time>2026-05-08T09:10:00Z</time>
      </trkpt>
      <trkpt lat="46.452470303" lon="7.078300213">
        <ele>1438.550</ele>
        <time>2026-05-08T09:11:00Z</time>
      </trkpt>
      <trkpt lat="46.452500303" lon="7.078140214">
        <ele>1441.500</ele>
        <time>2026-05-08T09:12:00Z</time>
      </trkpt>
      <trkpt lat="46.452500303" lon="7.078040214">
        <ele>1442.950</ele>
        <time>2026-05-08T09:13:00Z</time>
      </trkpt>
      <trkpt lat="46.452480304" lon="7.077970214">
        <ele>1444.230</ele>
        <time>2026-05-08T09:14:00Z</time>
      </trkpt>
      <trkpt lat="46.452430304" lon="7.077900214">
        <ele>1445.300</ele>
        <time>2026-05-08T09:15:00Z</time>
      </trkpt>
      <trkpt lat="46.452410304" lon="7.077870214">
        <ele>1445.940</ele>
        <time>2026-05-08T09:16:00Z</time>
      </trkpt>
      <trkpt lat="46.452370304" lon="7.077870214">
        <ele>1446.580</ele>
        <time>2026-05-08T09:17:00Z</time>
      </trkpt>
      <trkpt lat="46.452320304" lon="7.077900215">
        <ele>1447.110</ele>
        <time>2026-05-08T09:18:00Z</time>
      </trkpt>
      <trkpt lat="46.452250304" lon="7.077930215">
        <ele>1447.750</ele>
        <time>2026-05-08T09:19:00Z</time>
      </trkpt>
      <trkpt lat="46.452080305" lon="7.077970215">
        <ele>1449.350</ele>
        <time>2026-05-08T09:20:00Z</time>
      </trkpt>
      <trkpt lat="46.452020305" lon="7.077990215">
        <ele>1449.990</ele>
        <time>2026-05-08T09:21:00Z</time>
      </trkpt>
      <trkpt lat="46.451990305" lon="7.077970215">
        <ele>1450.420</ele>
        <time>2026-05-08T09:22:00Z</time>
      </trkpt>
      <trkpt lat="46.451970305" lon="7.077940215">
        <ele>1451.060</ele>
        <time>2026-05-08T09:23:00Z</time>
      </trkpt>
      <trkpt lat="46.451960305" lon="7.077920215">
        <ele>1451.590</ele>
        <time>2026-05-08T09:24:00Z</time>
      </trkpt>
      <trkpt lat="46.451970305" lon="7.077890215">
        <ele>1452.230</ele>
        <time>2026-05-08T09:25:00Z</time>
      </trkpt>
      <trkpt lat="46.452000306" lon="7.077840216">
        <ele>1453.510</ele>
        <time>2026-05-08T09:26:00Z</time>
      </trkpt>
      <trkpt lat="46.452040306" lon="7.077780216">
        <ele>1455.220</ele>
        <time>2026-05-08T09:27:00Z</time>
      </trkpt>
      <trkpt lat="46.452110306" lon="7.077690216">
        <ele>1456.800</ele>
        <time>2026-05-08T09:28:00Z</time>
      </trkpt>
      <trkpt lat="46.452140307" lon="7.077610216">
        <ele>1458.140</ele>
        <time>2026-05-08T09:29:00Z</time>
      </trkpt>
      <trkpt lat="46.452180307" lon="7.077460216">
        <ele>1460.700</ele>
        <time>2026-05-08T09:30:00Z</time>
      </trkpt>
      <trkpt lat="46.452240307" lon="7.077330217">
        <ele>1462.610</ele>
        <time>2026-05-08T09:31:00Z</time>
      </trkpt>
      <trkpt lat="46.452320307" lon="7.077230217">
        <ele>1464.170</ele>
        <time>2026-05-08T09:32:00Z</time>
      </trkpt>
      <trkpt lat="46.452420308" lon="7.077070218">
        <ele>1467.870</ele>
        <time>2026-05-08T09:33:00Z</time>
      </trkpt>
      <trkpt lat="46.452460309" lon="7.076970218">
        <ele>1470.330</ele>
        <time>2026-05-08T09:34:00Z</time>
      </trkpt>
      <trkpt lat="46.452480309" lon="7.076910218">
        <ele>1471.890</ele>
        <time>2026-05-08T09:35:00Z</time>
      </trkpt>
      <trkpt lat="46.452490310" lon="7.076810218">
        <ele>1473.800</ele>
        <time>2026-05-08T09:36:00Z</time>
      </trkpt>
      <trkpt lat="46.452490310" lon="7.076750218">
        <ele>1474.810</ele>
        <time>2026-05-08T09:37:00Z</time>
      </trkpt>
      <trkpt lat="46.452470310" lon="7.076660219">
        <ele>1476.880</ele>
        <time>2026-05-08T09:38:00Z</time>
      </trkpt>
      <trkpt lat="46.452450310" lon="7.076600219">
        <ele>1478.110</ele>
        <time>2026-05-08T09:39:00Z</time>
      </trkpt>
      <trkpt lat="46.452420311" lon="7.076550219">
        <ele>1478.990</ele>
        <time>2026-05-08T09:40:00Z</time>
      </trkpt>
      <trkpt lat="46.452390311" lon="7.076540219">
        <ele>1479.730</ele>
        <time>2026-05-08T09:41:00Z</time>
      </trkpt>
      <trkpt lat="46.452370311" lon="7.076550219">
        <ele>1480.140</ele>
        <time>2026-05-08T09:42:00Z</time>
      </trkpt>
      <trkpt lat="46.452340311" lon="7.076580219">
        <ele>1481.320</ele>
        <time>2026-05-08T09:43:00Z</time>
      </trkpt>
      <trkpt lat="46.452300312" lon="7.076720220">
        <ele>1484.200</ele>
        <time>2026-05-08T09:44:00Z</time>
      </trkpt>
      <trkpt lat="46.452280312" lon="7.076750220">
        <ele>1484.700</ele>
        <time>2026-05-08T09:45:00Z</time>
      </trkpt>
      <trkpt lat="46.452260312" lon="7.076770220">
        <ele>1485.020</ele>
        <time>2026-05-08T09:46:00Z</time>
      </trkpt>
      <trkpt lat="46.452250312" lon="7.076770220">
        <ele>1485.270</ele>
        <time>2026-05-08T09:47:00Z</time>
      </trkpt>
      <trkpt lat="46.452240312" lon="7.076760220">
        <ele>1485.390</ele>
        <time>2026-05-08T09:48:00Z</time>
      </trkpt>
      <trkpt lat="46.452230312" lon="7.076730220">
        <ele>1486.040</ele>
        <time>2026-05-08T09:49:00Z</time>
      </trkpt>
      <trkpt lat="46.452230312" lon="7.076620220">
        <ele>1487.740</ele>
        <time>2026-05-08T09:50:00Z</time>
      </trkpt>
      <trkpt lat="46.452230312" lon="7.076570220">
        <ele>1488.680</ele>
        <time>2026-05-08T09:51:00Z</time>
      </trkpt>
      <trkpt lat="46.452200313" lon="7.076410220">
        <ele>1491.860</ele>
        <time>2026-05-08T09:52:00Z</time>
      </trkpt>
      <trkpt lat="46.452190313" lon="7.076250221">
        <ele>1493.760</ele>
        <time>2026-05-08T09:53:00Z</time>
      </trkpt>
      <trkpt lat="46.452180313" lon="7.076180221">
        <ele>1493.940</ele>
        <time>2026-05-08T09:54:00Z</time>
      </trkpt>
      <trkpt lat="46.452140314" lon="7.076100221">
        <ele>1494.290</ele>
        <time>2026-05-08T09:55:00Z</time>
      </trkpt>
      <trkpt lat="46.452110314" lon="7.076040221">
        <ele>1495.070</ele>
        <time>2026-05-08T09:56:00Z</time>
      </trkpt>
      <trkpt lat="46.452070314" lon="7.076010221">
        <ele>1496.110</ele>
        <time>2026-05-08T09:57:00Z</time>
      </trkpt>
      <trkpt lat="46.452040314" lon="7.076010222">
        <ele>1497.070</ele>
        <time>2026-05-08T09:58:00Z</time>
      </trkpt>
      <trkpt lat="46.451990314" lon="7.076020222">
        <ele>1497.940</ele>
        <time>2026-05-08T09:59:00Z</time>
      </trkpt>
      <trkpt lat="46.451960315" lon="7.076050222">
        <ele>1499.240</ele>
        <time>2026-05-08T10:00:00Z</time>
      </trkpt>
      <trkpt lat="46.451930315" lon="7.076080222">
        <ele>1500.280</ele>
        <time>2026-05-08T10:01:00Z</time>
      </trkpt>
      <trkpt lat="46.451920315" lon="7.076120222">
        <ele>1500.800</ele>
        <time>2026-05-08T10:02:00Z</time>
      </trkpt>
      <trkpt lat="46.451910315" lon="7.076170222">
        <ele>1501.320</ele>
        <time>2026-05-08T10:03:00Z</time>
      </trkpt>
      <trkpt lat="46.451920315" lon="7.076260222">
        <ele>1502.360</ele>
        <time>2026-05-08T10:04:00Z</time>
      </trkpt>
      <trkpt lat="46.451910316" lon="7.076340222">
        <ele>1503.750</ele>
        <time>2026-05-08T10:05:00Z</time>
      </trkpt>
      <trkpt lat="46.451890315" lon="7.076370222">
        <ele>1504.190</ele>
        <time>2026-05-08T10:06:00Z</time>
      </trkpt>
      <trkpt lat="46.451870316" lon="7.076390223">
        <ele>1504.970</ele>
        <time>2026-05-08T10:07:00Z</time>
      </trkpt>
      <trkpt lat="46.451820316" lon="7.076400223">
        <ele>1505.930</ele>
        <time>2026-05-08T10:08:00Z</time>
      </trkpt>
      <trkpt lat="46.451790316" lon="7.076400223">
        <ele>1506.450</ele>
        <time>2026-05-08T10:09:00Z</time>
      </trkpt>
      <trkpt lat="46.451760316" lon="7.076390223">
        <ele>1506.970</ele>
        <time>2026-05-08T10:10:00Z</time>
      </trkpt>
      <trkpt lat="46.451720316" lon="7.076350223">
        <ele>1508.010</ele>
        <time>2026-05-08T10:11:00Z</time>
      </trkpt>
      <trkpt lat="46.451680317" lon="7.076290223">
        <ele>1509.050</ele>
        <time>2026-05-08T10:12:00Z</time>
      </trkpt>
      <trkpt lat="46.451640317" lon="7.076230223">
        <ele>1511.400</ele>
        <time>2026-05-08T10:13:00Z</time>
      </trkpt>
      <trkpt lat="46.451610317" lon="7.076180224">
        <ele>1513.220</ele>
        <time>2026-05-08T10:14:00Z</time>
      </trkpt>
      <trkpt lat="46.451580318" lon="7.076090224">
        <ele>1515.570</ele>
        <time>2026-05-08T10:15:00Z</time>
      </trkpt>
      <trkpt lat="46.451560318" lon="7.076000224">
        <ele>1517.220</ele>
        <time>2026-05-08T10:16:00Z</time>
      </trkpt>
      <trkpt lat="46.451550318" lon="7.075960224">
        <ele>1517.740</ele>
        <time>2026-05-08T10:17:00Z</time>
      </trkpt>
      <trkpt lat="46.451530318" lon="7.075920224">
        <ele>1518.260</ele>
        <time>2026-05-08T10:18:00Z</time>
      </trkpt>
      <trkpt lat="46.451510319" lon="7.075900225">
        <ele>1518.690</ele>
        <time>2026-05-08T10:19:00Z</time>
      </trkpt>
      <trkpt lat="46.451480318" lon="7.075880224">
        <ele>1519.310</ele>
        <time>2026-05-08T10:20:00Z</time>
      </trkpt>
      <trkpt lat="46.451440319" lon="7.075870225">
        <ele>1520.330</ele>
        <time>2026-05-08T10:21:00Z</time>
      </trkpt>
      <trkpt lat="46.451440448" lon="7.075870401">
        <ele>1521.500</ele>
        <time>2026-05-08T10:22:00Z</time>
      </trkpt>
      <trkpt lat="46.451356640" lon="7.075824110">
        <ele>1524.200</ele>
        <time>2026-05-08T10:23:00Z</time>
      </trkpt>
      <trkpt lat="46.451252105" lon="7.075766244">
        <ele>1529.700</ele>
        <time>2026-05-08T10:24:00Z</time>
      </trkpt>
      <trkpt lat="46.451168301" lon="7.075721255">
        <ele>1531.600</ele>
        <time>2026-05-08T10:25:00Z</time>
      </trkpt>
      <trkpt lat="46.451062866" lon="7.075663395">
        <ele>1532.900</ele>
        <time>2026-05-08T10:26:00Z</time>
      </trkpt>
      <trkpt lat="46.451060321" lon="7.075660226">
        <ele>1532.970</ele>
        <time>2026-05-08T10:27:00Z</time>
      </trkpt>
      <trkpt lat="46.451060321" lon="7.075640226">
        <ele>1533.330</ele>
        <time>2026-05-08T10:28:00Z</time>
      </trkpt>
      <trkpt lat="46.451050322" lon="7.075580227">
        <ele>1534.500</ele>
        <time>2026-05-08T10:29:00Z</time>
      </trkpt>
      <trkpt lat="46.451030322" lon="7.075510227">
        <ele>1535.980</ele>
        <time>2026-05-08T10:30:00Z</time>
      </trkpt>
      <trkpt lat="46.451010322" lon="7.075470227">
        <ele>1536.730</ele>
        <time>2026-05-08T10:31:00Z</time>
      </trkpt>
      <trkpt lat="46.450970322" lon="7.075430227">
        <ele>1537.660</ele>
        <time>2026-05-08T10:32:00Z</time>
      </trkpt>
      <trkpt lat="46.450940323" lon="7.075350227">
        <ele>1539.650</ele>
        <time>2026-05-08T10:33:00Z</time>
      </trkpt>
      <trkpt lat="46.450940323" lon="7.075300227">
        <ele>1540.730</ele>
        <time>2026-05-08T10:34:00Z</time>
      </trkpt>
      <trkpt lat="46.450940323" lon="7.075230228">
        <ele>1542.390</ele>
        <time>2026-05-08T10:35:00Z</time>
      </trkpt>
      <trkpt lat="46.450940324" lon="7.075180228">
        <ele>1544.010</ele>
        <time>2026-05-08T10:36:00Z</time>
      </trkpt>
      <trkpt lat="46.450920323" lon="7.075160228">
        <ele>1544.740</ele>
        <time>2026-05-08T10:37:00Z</time>
      </trkpt>
      <trkpt lat="46.450890324" lon="7.075150228">
        <ele>1545.150</ele>
        <time>2026-05-08T10:38:00Z</time>
      </trkpt>
      <trkpt lat="46.450840324" lon="7.075150228">
        <ele>1546.860</ele>
        <time>2026-05-08T10:39:00Z</time>
      </trkpt>
      <trkpt lat="46.450810324" lon="7.075130228">
        <ele>1548.160</ele>
        <time>2026-05-08T10:40:00Z</time>
      </trkpt>
      <trkpt lat="46.450800324" lon="7.075110229">
        <ele>1548.810</ele>
        <time>2026-05-08T10:41:00Z</time>
      </trkpt>
      <trkpt lat="46.450810325" lon="7.075000229">
        <ele>1551.970</ele>
        <time>2026-05-08T10:42:00Z</time>
      </trkpt>
      <trkpt lat="46.450810325" lon="7.074910229">
        <ele>1553.690</ele>
        <time>2026-05-08T10:43:00Z</time>
      </trkpt>
      <trkpt lat="46.450800325" lon="7.074870229">
        <ele>1554.160</ele>
        <time>2026-05-08T10:44:00Z</time>
      </trkpt>
      <trkpt lat="46.450760326" lon="7.074750230">
        <ele>1556.260</ele>
        <time>2026-05-08T10:45:00Z</time>
      </trkpt>
      <trkpt lat="46.450680327" lon="7.074490230">
        <ele>1560.820</ele>
        <time>2026-05-08T10:46:00Z</time>
      </trkpt>
      <trkpt lat="46.450680327" lon="7.074370231">
        <ele>1562.040</ele>
        <time>2026-05-08T10:47:00Z</time>
      </trkpt>
      <trkpt lat="46.450660327" lon="7.074210231">
        <ele>1564.320</ele>
        <time>2026-05-08T10:48:00Z</time>
      </trkpt>
      <trkpt lat="46.450660327" lon="7.074120231">
        <ele>1565.380</ele>
        <time>2026-05-08T10:49:00Z</time>
      </trkpt>
      <trkpt lat="46.450660328" lon="7.073990231">
        <ele>1566.900</ele>
        <time>2026-05-08T10:50:00Z</time>
      </trkpt>
      <trkpt lat="46.450640328" lon="7.073910231">
        <ele>1567.500</ele>
        <time>2026-05-08T10:51:00Z</time>
      </trkpt>
      <trkpt lat="46.450630328" lon="7.073810231">
        <ele>1568.230</ele>
        <time>2026-05-08T10:52:00Z</time>
      </trkpt>
      <trkpt lat="46.450620328" lon="7.073780231">
        <ele>1568.640</ele>
        <time>2026-05-08T10:53:00Z</time>
      </trkpt>
      <trkpt lat="46.450600328" lon="7.073750231">
        <ele>1569.080</ele>
        <time>2026-05-08T10:54:00Z</time>
      </trkpt>
      <trkpt lat="46.450580328" lon="7.073670231">
        <ele>1568.670</ele>
        <time>2026-05-08T10:55:00Z</time>
      </trkpt>
      <trkpt lat="46.450570328" lon="7.073600231">
        <ele>1567.910</ele>
        <time>2026-05-08T10:56:00Z</time>
      </trkpt>
      <trkpt lat="46.450540327" lon="7.073480231">
        <ele>1564.530</ele>
        <time>2026-05-08T10:57:00Z</time>
      </trkpt>
      <trkpt lat="46.450530327" lon="7.073440231">
        <ele>1564.840</ele>
        <time>2026-05-08T10:58:00Z</time>
      </trkpt>
      <trkpt lat="46.450500328" lon="7.073410231">
        <ele>1565.150</ele>
        <time>2026-05-08T10:59:00Z</time>
      </trkpt>
      <trkpt lat="46.450460328" lon="7.073400231">
        <ele>1566.140</ele>
        <time>2026-05-08T11:00:00Z</time>
      </trkpt>
      <trkpt lat="46.450420328" lon="7.073390231">
        <ele>1567.240</ele>
        <time>2026-05-08T11:01:00Z</time>
      </trkpt>
      <trkpt lat="46.450370329" lon="7.073400231">
        <ele>1568.900</ele>
        <time>2026-05-08T11:02:00Z</time>
      </trkpt>
      <trkpt lat="46.450340329" lon="7.073420231">
        <ele>1569.880</ele>
        <time>2026-05-08T11:03:00Z</time>
      </trkpt>
      <trkpt lat="46.450320329" lon="7.073470232">
        <ele>1571.730</ele>
        <time>2026-05-08T11:04:00Z</time>
      </trkpt>
      <trkpt lat="46.450260329" lon="7.073500232">
        <ele>1573.620</ele>
        <time>2026-05-08T11:05:00Z</time>
      </trkpt>
      <trkpt lat="46.450180329" lon="7.073530232">
        <ele>1574.960</ele>
        <time>2026-05-08T11:06:00Z</time>
      </trkpt>
      <trkpt lat="46.450130330" lon="7.073520232">
        <ele>1576.230</ele>
        <time>2026-05-08T11:07:00Z</time>
      </trkpt>
      <trkpt lat="46.450110330" lon="7.073460232">
        <ele>1578.120</ele>
        <time>2026-05-08T11:08:00Z</time>
      </trkpt>
      <trkpt lat="46.450120330" lon="7.073380233">
        <ele>1579.050</ele>
        <time>2026-05-08T11:09:00Z</time>
      </trkpt>
      <trkpt lat="46.450180330" lon="7.073270233">
        <ele>1579.380</ele>
        <time>2026-05-08T11:10:00Z</time>
      </trkpt>
      <trkpt lat="46.450200330" lon="7.073150233">
        <ele>1580.300</ele>
        <time>2026-05-08T11:11:00Z</time>
      </trkpt>
      <trkpt lat="46.450210331" lon="7.073050233">
        <ele>1579.860</ele>
        <time>2026-05-08T11:12:00Z</time>
      </trkpt>
      <trkpt lat="46.450200330" lon="7.072920233">
        <ele>1579.580</ele>
        <time>2026-05-08T11:13:00Z</time>
      </trkpt>
      <trkpt lat="46.450170332" lon="7.072740234">
        <ele>1585.070</ele>
        <time>2026-05-08T11:14:00Z</time>
      </trkpt>
      <trkpt lat="46.450130332" lon="7.072670234">
        <ele>1589.600</ele>
        <time>2026-05-08T11:15:00Z</time>
      </trkpt>
      <trkpt lat="46.450080333" lon="7.072660234">
        <ele>1591.660</ele>
        <time>2026-05-08T11:16:00Z</time>
      </trkpt>
      <trkpt lat="46.450030333" lon="7.072680234">
        <ele>1593.740</ele>
        <time>2026-05-08T11:17:00Z</time>
      </trkpt>
      <trkpt lat="46.449980334" lon="7.072730235">
        <ele>1596.510</ele>
        <time>2026-05-08T11:18:00Z</time>
      </trkpt>
      <trkpt lat="46.449930334" lon="7.072750235">
        <ele>1597.900</ele>
        <time>2026-05-08T11:19:00Z</time>
      </trkpt>
      <trkpt lat="46.449910334" lon="7.072740235">
        <ele>1599.360</ele>
        <time>2026-05-08T11:20:00Z</time>
      </trkpt>
      <trkpt lat="46.449890335" lon="7.072710236">
        <ele>1600.900</ele>
        <time>2026-05-08T11:21:00Z</time>
      </trkpt>
      <trkpt lat="46.449890335" lon="7.072670236">
        <ele>1601.570</ele>
        <time>2026-05-08T11:22:00Z</time>
      </trkpt>
      <trkpt lat="46.449910335" lon="7.072620236">
        <ele>1602.380</ele>
        <time>2026-05-08T11:23:00Z</time>
      </trkpt>
      <trkpt lat="46.449940335" lon="7.072560236">
        <ele>1602.960</ele>
        <time>2026-05-08T11:24:00Z</time>
      </trkpt>
      <trkpt lat="46.449950335" lon="7.072530236">
        <ele>1603.040</ele>
        <time>2026-05-08T11:25:00Z</time>
      </trkpt>
      <trkpt lat="46.449950335" lon="7.072500236">
        <ele>1603.360</ele>
        <time>2026-05-08T11:26:00Z</time>
      </trkpt>
      <trkpt lat="46.449950336" lon="7.072450236">
        <ele>1604.150</ele>
        <time>2026-05-08T11:27:00Z</time>
      </trkpt>
      <trkpt lat="46.449940335" lon="7.072400237">
        <ele>1605.470</ele>
        <time>2026-05-08T11:28:00Z</time>
      </trkpt>
      <trkpt lat="46.449930336" lon="7.072360237">
        <ele>1606.650</ele>
        <time>2026-05-08T11:29:00Z</time>
      </trkpt>
      <trkpt lat="46.449840337" lon="7.072240237">
        <ele>1610.250</ele>
        <time>2026-05-08T11:30:00Z</time>
      </trkpt>
      <trkpt lat="46.449780337" lon="7.072130237">
        <ele>1611.000</ele>
        <time>2026-05-08T11:31:00Z</time>
      </trkpt>
      <trkpt lat="46.449750337" lon="7.072110237">
        <ele>1611.210</ele>
        <time>2026-05-08T11:32:00Z</time>
      </trkpt>
      <trkpt lat="46.449720337" lon="7.072100237">
        <ele>1611.460</ele>
        <time>2026-05-08T11:33:00Z</time>
      </trkpt>
      <trkpt lat="46.449690337" lon="7.072080237">
        <ele>1611.440</ele>
        <time>2026-05-08T11:34:00Z</time>
      </trkpt>
      <trkpt lat="46.449680337" lon="7.072050237">
        <ele>1611.440</ele>
        <time>2026-05-08T11:35:00Z</time>
      </trkpt>
      <trkpt lat="46.449660337" lon="7.071980237">
        <ele>1611.490</ele>
        <time>2026-05-08T11:36:00Z</time>
      </trkpt>
      <trkpt lat="46.449640337" lon="7.071900237">
        <ele>1611.540</ele>
        <time>2026-05-08T11:37:00Z</time>
      </trkpt>
      <trkpt lat="46.449630337" lon="7.071830237">
        <ele>1612.210</ele>
        <time>2026-05-08T11:38:00Z</time>
      </trkpt>
      <trkpt lat="46.449620337" lon="7.071770237">
        <ele>1612.550</ele>
        <time>2026-05-08T11:39:00Z</time>
      </trkpt>
      <trkpt lat="46.449620337" lon="7.071710237">
        <ele>1612.830</ele>
        <time>2026-05-08T11:40:00Z</time>
      </trkpt>
      <trkpt lat="46.449620337" lon="7.071620238">
        <ele>1613.510</ele>
        <time>2026-05-08T11:41:00Z</time>
      </trkpt>
      <trkpt lat="46.449600337" lon="7.071580237">
        <ele>1614.000</ele>
        <time>2026-05-08T11:42:00Z</time>
      </trkpt>
      <trkpt lat="46.449580337" lon="7.071550237">
        <ele>1614.410</ele>
        <time>2026-05-08T11:43:00Z</time>
      </trkpt>
      <trkpt lat="46.449460338" lon="7.071470238">
        <ele>1617.030</ele>
        <time>2026-05-08T11:44:00Z</time>
      </trkpt>
      <trkpt lat="46.449400339" lon="7.071410238">
        <ele>1621.330</ele>
        <time>2026-05-08T11:45:00Z</time>
      </trkpt>
      <trkpt lat="46.449320339" lon="7.071350239">
        <ele>1624.440</ele>
        <time>2026-05-08T11:46:00Z</time>
      </trkpt>
      <trkpt lat="46.449250339" lon="7.071310238">
        <ele>1622.870</ele>
        <time>2026-05-08T11:47:00Z</time>
      </trkpt>
      <trkpt lat="46.449240339" lon="7.071260239">
        <ele>1622.690</ele>
        <time>2026-05-08T11:48:00Z</time>
      </trkpt>
      <trkpt lat="46.449240339" lon="7.071190238">
        <ele>1622.940</ele>
        <time>2026-05-08T11:49:00Z</time>
      </trkpt>
      <trkpt lat="46.449230339" lon="7.071160239">
        <ele>1623.080</ele>
        <time>2026-05-08T11:50:00Z</time>
      </trkpt>
      <trkpt lat="46.449180339" lon="7.071140239">
        <ele>1624.210</ele>
        <time>2026-05-08T11:51:00Z</time>
      </trkpt>
      <trkpt lat="46.449130340" lon="7.071120239">
        <ele>1626.050</ele>
        <time>2026-05-08T11:52:00Z</time>
      </trkpt>
      <trkpt lat="46.449120340" lon="7.071100239">
        <ele>1626.700</ele>
        <time>2026-05-08T11:53:00Z</time>
      </trkpt>
      <trkpt lat="46.449120340" lon="7.071060239">
        <ele>1627.690</ele>
        <time>2026-05-08T11:54:00Z</time>
      </trkpt>
      <trkpt lat="46.449120340" lon="7.071010239">
        <ele>1628.540</ele>
        <time>2026-05-08T11:55:00Z</time>
      </trkpt>
      <trkpt lat="46.449120340" lon="7.070980240">
        <ele>1628.710</ele>
        <time>2026-05-08T11:56:00Z</time>
      </trkpt>
      <trkpt lat="46.449150341" lon="7.070940240">
        <ele>1629.850</ele>
        <time>2026-05-08T11:57:00Z</time>
      </trkpt>
      <trkpt lat="46.449150341" lon="7.070880240">
        <ele>1630.950</ele>
        <time>2026-05-08T11:58:00Z</time>
      </trkpt>
      <trkpt lat="46.449100341" lon="7.070800240">
        <ele>1632.320</ele>
        <time>2026-05-08T11:59:00Z</time>
      </trkpt>
      <trkpt lat="46.448980342" lon="7.070540241">
        <ele>1638.620</ele>
        <time>2026-05-08T12:00:00Z</time>
      </trkpt>
      <trkpt lat="46.448940343" lon="7.070500241">
        <ele>1640.540</ele>
        <time>2026-05-08T12:01:00Z</time>
      </trkpt>
      <trkpt lat="46.448930343" lon="7.070490241">
        <ele>1640.760</ele>
        <time>2026-05-08T12:02:00Z</time>
      </trkpt>
      <trkpt lat="46.448890343" lon="7.070430241">
        <ele>1642.000</ele>
        <time>2026-05-08T12:03:00Z</time>
      </trkpt>
      <trkpt lat="46.448850343" lon="7.070340242">
        <ele>1645.230</ele>
        <time>2026-05-08T12:04:00Z</time>
      </trkpt>
      <trkpt lat="46.448830343" lon="7.070270242">
        <ele>1645.340</ele>
        <time>2026-05-08T12:05:00Z</time>
      </trkpt>
      <trkpt lat="46.448790344" lon="7.070140242">
        <ele>1647.940</ele>
        <time>2026-05-08T12:06:00Z</time>
      </trkpt>
      <trkpt lat="46.448760344" lon="7.070100242">
        <ele>1649.260</ele>
        <time>2026-05-08T12:07:00Z</time>
      </trkpt>
      <trkpt lat="46.448670344" lon="7.069990242">
        <ele>1650.050</ele>
        <time>2026-05-08T12:08:00Z</time>
      </trkpt>
      <trkpt lat="46.448590345" lon="7.069920243">
        <ele>1652.660</ele>
        <time>2026-05-08T12:09:00Z</time>
      </trkpt>
      <trkpt lat="46.448550345" lon="7.069890243">
        <ele>1653.740</ele>
        <time>2026-05-08T12:10:00Z</time>
      </trkpt>
      <trkpt lat="46.448520346" lon="7.069880243">
        <ele>1655.070</ele>
        <time>2026-05-08T12:11:00Z</time>
      </trkpt>
      <trkpt lat="46.448510346" lon="7.069840243">
        <ele>1656.330</ele>
        <time>2026-05-08T12:12:00Z</time>
      </trkpt>
      <trkpt lat="46.448500346" lon="7.069790244">
        <ele>1657.990</ele>
        <time>2026-05-08T12:13:00Z</time>
      </trkpt>
      <trkpt lat="46.448480346" lon="7.069760243">
        <ele>1658.760</ele>
        <time>2026-05-08T12:14:00Z</time>
      </trkpt>
      <trkpt lat="46.448470346" lon="7.069740244">
        <ele>1659.170</ele>
        <time>2026-05-08T12:15:00Z</time>
      </trkpt>
      <trkpt lat="46.448470056" lon="7.069739738">
        <ele>1660.800</ele>
        <time>2026-05-08T12:16:00Z</time>
      </trkpt>
      <trkpt lat="46.448455248" lon="7.069612298">
        <ele>1664.700</ele>
        <time>2026-05-08T12:17:00Z</time>
      </trkpt>
      <trkpt lat="46.448439537" lon="7.069483563">
        <ele>1670.900</ele>
        <time>2026-05-08T12:18:00Z</time>
      </trkpt>
      <trkpt lat="46.448423829" lon="7.069356130">
        <ele>1676.700</ele>
        <time>2026-05-08T12:19:00Z</time>
      </trkpt>
      <trkpt lat="46.448408118" lon="7.069227396">
        <ele>1681.800</ele>
        <time>2026-05-08T12:20:00Z</time>
      </trkpt>
      <trkpt lat="46.448393305" lon="7.069098655">
        <ele>1685.900</ele>
        <time>2026-05-08T12:21:00Z</time>
      </trkpt>
      <trkpt lat="46.448377596" lon="7.068971221">
        <ele>1688.500</ele>
        <time>2026-05-08T12:22:00Z</time>
      </trkpt>
      <trkpt lat="46.448361883" lon="7.068842486">
        <ele>1690.000</ele>
        <time>2026-05-08T12:23:00Z</time>
      </trkpt>
      <trkpt lat="46.448346174" lon="7.068715053">
        <ele>1691.100</ele>
        <time>2026-05-08T12:24:00Z</time>
      </trkpt>
      <trkpt lat="46.448323060" lon="7.068523900">
        <ele>1694.100</ele>
        <time>2026-05-08T12:25:00Z</time>
      </trkpt>
      <trkpt lat="46.448275922" lon="7.068413600">
        <ele>1696.200</ele>
        <time>2026-05-08T12:26:00Z</time>
      </trkpt>
      <trkpt lat="46.448227888" lon="7.068304610">
        <ele>1700.300</ele>
        <time>2026-05-08T12:27:00Z</time>
      </trkpt>
      <trkpt lat="46.448179851" lon="7.068194317">
        <ele>1704.300</ele>
        <time>2026-05-08T12:28:00Z</time>
      </trkpt>
      <trkpt lat="46.448114589" lon="7.068043798">
        <ele>1707.300</ele>
        <time>2026-05-08T12:29:00Z</time>
      </trkpt>
      <trkpt lat="46.448085403" lon="7.067921663">
        <ele>1706.800</ele>
        <time>2026-05-08T12:30:00Z</time>
      </trkpt>
      <trkpt lat="46.448056212" lon="7.067798228">
        <ele>1706.600</ele>
        <time>2026-05-08T12:31:00Z</time>
      </trkpt>
      <trkpt lat="46.448026126" lon="7.067676099">
        <ele>1707.000</ele>
        <time>2026-05-08T12:32:00Z</time>
      </trkpt>
      <trkpt lat="46.447996939" lon="7.067553965">
        <ele>1708.500</ele>
        <time>2026-05-08T12:33:00Z</time>
      </trkpt>
      <trkpt lat="46.447936354" lon="7.067458075">
        <ele>1710.000</ele>
        <time>2026-05-08T12:34:00Z</time>
      </trkpt>
      <trkpt lat="46.447876663" lon="7.067360878">
        <ele>1711.100</ele>
        <time>2026-05-08T12:35:00Z</time>
      </trkpt>
      <trkpt lat="46.447816077" lon="7.067264989">
        <ele>1710.900</ele>
        <time>2026-05-08T12:36:00Z</time>
      </trkpt>
      <trkpt lat="46.447755487" lon="7.067167798">
        <ele>1711.000</ele>
        <time>2026-05-08T12:37:00Z</time>
      </trkpt>
      <trkpt lat="46.447694901" lon="7.067071909">
        <ele>1713.300</ele>
        <time>2026-05-08T12:38:00Z</time>
      </trkpt>
      <trkpt lat="46.447608083" lon="7.066931953">
        <ele>1719.900</ele>
        <time>2026-05-08T12:39:00Z</time>
      </trkpt>
      <trkpt lat="46.447576202" lon="7.066811141">
        <ele>1723.500</ele>
        <time>2026-05-08T12:40:00Z</time>
      </trkpt>
      <trkpt lat="46.447543418" lon="7.066689034">
        <ele>1728.400</ele>
        <time>2026-05-08T12:41:00Z</time>
      </trkpt>
      <trkpt lat="46.447511536" lon="7.066568221">
        <ele>1732.700</ele>
        <time>2026-05-08T12:42:00Z</time>
      </trkpt>
      <trkpt lat="46.447478751" lon="7.066446114">
        <ele>1736.900</ele>
        <time>2026-05-08T12:43:00Z</time>
      </trkpt>
      <trkpt lat="46.447446869" lon="7.066325302">
        <ele>1741.900</ele>
        <time>2026-05-08T12:44:00Z</time>
      </trkpt>
      <trkpt lat="46.447414983" lon="7.066203190">
        <ele>1746.900</ele>
        <time>2026-05-08T12:45:00Z</time>
      </trkpt>
      <trkpt lat="46.447382201" lon="7.066082384">
        <ele>1751.600</ele>
        <time>2026-05-08T12:46:00Z</time>
      </trkpt>
      <trkpt lat="46.447350315" lon="7.065960271">
        <ele>1756.100</ele>
        <time>2026-05-08T12:47:00Z</time>
      </trkpt>
      <trkpt lat="46.447317534" lon="7.065839466">
        <ele>1760.800</ele>
        <time>2026-05-08T12:48:00Z</time>
      </trkpt>
      <trkpt lat="46.447285647" lon="7.065717354">
        <ele>1765.600</ele>
        <time>2026-05-08T12:49:00Z</time>
      </trkpt>
      <trkpt lat="46.447252865" lon="7.065596549">
        <ele>1770.900</ele>
        <time>2026-05-08T12:50:00Z</time>
      </trkpt>
      <trkpt lat="46.447220979" lon="7.065474437">
        <ele>1776.700</ele>
        <time>2026-05-08T12:51:00Z</time>
      </trkpt>
      <trkpt lat="46.447189096" lon="7.065353627">
        <ele>1782.400</ele>
        <time>2026-05-08T12:52:00Z</time>
      </trkpt>
      <trkpt lat="46.447152664" lon="7.065217231">
        <ele>1786.900</ele>
        <time>2026-05-08T12:53:00Z</time>
      </trkpt>
      <trkpt lat="46.447069742" lon="7.065168350">
        <ele>1786.400</ele>
        <time>2026-05-08T12:54:00Z</time>
      </trkpt>
      <trkpt lat="46.446986816" lon="7.065118168">
        <ele>1786.700</ele>
        <time>2026-05-08T12:55:00Z</time>
      </trkpt>
      <trkpt lat="46.446902994" lon="7.065069294">
        <ele>1785.300</ele>
        <time>2026-05-08T12:56:00Z</time>
      </trkpt>
      <trkpt lat="46.446820067" lon="7.065019111">
        <ele>1781.400</ele>
        <time>2026-05-08T12:57:00Z</time>
      </trkpt>
      <trkpt lat="46.446737144" lon="7.064970231">
        <ele>1778.100</ele>
        <time>2026-05-08T12:58:00Z</time>
      </trkpt>
      <trkpt lat="46.446654217" lon="7.064920049">
        <ele>1775.700</ele>
        <time>2026-05-08T12:59:00Z</time>
      </trkpt>
      <trkpt lat="46.446548759" lon="7.064857009">
        <ele>1773.600</ele>
        <time>2026-05-08T13:00:00Z</time>
      </trkpt>
      <trkpt lat="46.446487275" lon="7.064762433">
        <ele>1773.300</ele>
        <time>2026-05-08T13:01:00Z</time>
      </trkpt>
      <trkpt lat="46.446426687" lon="7.064666548">
        <ele>1772.600</ele>
        <time>2026-05-08T13:02:00Z</time>
      </trkpt>
      <trkpt lat="46.446365199" lon="7.064570670">
        <ele>1772.300</ele>
        <time>2026-05-08T13:03:00Z</time>
      </trkpt>
      <trkpt lat="46.446321797" lon="7.064503299">
        <ele>1772.700</ele>
        <time>2026-05-08T13:04:00Z</time>
      </trkpt>
      <trkpt lat="46.446286318" lon="7.064383816">
        <ele>1773.600</ele>
        <time>2026-05-08T13:05:00Z</time>
      </trkpt>
      <trkpt lat="46.446250840" lon="7.064264334">
        <ele>1773.900</ele>
        <time>2026-05-08T13:06:00Z</time>
      </trkpt>
      <trkpt lat="46.446215361" lon="7.064144852">
        <ele>1775.000</ele>
        <time>2026-05-08T13:07:00Z</time>
      </trkpt>
      <trkpt lat="46.446168064" lon="7.063987712">
        <ele>1778.100</ele>
        <time>2026-05-08T13:08:00Z</time>
      </trkpt>
      <trkpt lat="46.446101209" lon="7.063900983">
        <ele>1779.500</ele>
        <time>2026-05-08T13:09:00Z</time>
      </trkpt>
      <trkpt lat="46.446034353" lon="7.063814254">
        <ele>1781.500</ele>
        <time>2026-05-08T13:10:00Z</time>
      </trkpt>
      <trkpt lat="46.445967498" lon="7.063727525">
        <ele>1782.900</ele>
        <time>2026-05-08T13:11:00Z</time>
      </trkpt>
      <trkpt lat="46.445900642" lon="7.063640796">
        <ele>1785.600</ele>
        <time>2026-05-08T13:12:00Z</time>
      </trkpt>
      <trkpt lat="46.445833787" lon="7.063554068">
        <ele>1788.100</ele>
        <time>2026-05-08T13:13:00Z</time>
      </trkpt>
      <trkpt lat="46.445766927" lon="7.063466038">
        <ele>1788.800</ele>
        <time>2026-05-08T13:14:00Z</time>
      </trkpt>
      <trkpt lat="46.445699172" lon="7.063379317">
        <ele>1790.800</ele>
        <time>2026-05-08T13:15:00Z</time>
      </trkpt>
      <trkpt lat="46.445632317" lon="7.063292589">
        <ele>1793.500</ele>
        <time>2026-05-08T13:16:00Z</time>
      </trkpt>
      <trkpt lat="46.445589852" lon="7.063236924">
        <ele>1793.400</ele>
        <time>2026-05-08T13:17:00Z</time>
      </trkpt>
      <trkpt lat="46.445542708" lon="7.063126635">
        <ele>1792.900</ele>
        <time>2026-05-08T13:18:00Z</time>
      </trkpt>
      <trkpt lat="46.445494664" lon="7.063016352">
        <ele>1792.900</ele>
        <time>2026-05-08T13:19:00Z</time>
      </trkpt>
      <trkpt lat="46.445447521" lon="7.062906063">
        <ele>1793.500</ele>
        <time>2026-05-08T13:20:00Z</time>
      </trkpt>
      <trkpt lat="46.445399477" lon="7.062795781">
        <ele>1793.900</ele>
        <time>2026-05-08T13:21:00Z</time>
      </trkpt>
      <trkpt lat="46.445352333" lon="7.062685492">
        <ele>1794.400</ele>
        <time>2026-05-08T13:22:00Z</time>
      </trkpt>
      <trkpt lat="46.445304285" lon="7.062573909">
        <ele>1795.900</ele>
        <time>2026-05-08T13:23:00Z</time>
      </trkpt>
      <trkpt lat="46.445257141" lon="7.062463621">
        <ele>1797.900</ele>
        <time>2026-05-08T13:24:00Z</time>
      </trkpt>
      <trkpt lat="46.445209997" lon="7.062353333">
        <ele>1799.500</ele>
        <time>2026-05-08T13:25:00Z</time>
      </trkpt>
      <trkpt lat="46.445161953" lon="7.062243052">
        <ele>1800.800</ele>
        <time>2026-05-08T13:26:00Z</time>
      </trkpt>
      <trkpt lat="46.445114808" lon="7.062132765">
        <ele>1801.500</ele>
        <time>2026-05-08T13:27:00Z</time>
      </trkpt>
      <trkpt lat="46.445066764" lon="7.062022483">
        <ele>1802.200</ele>
        <time>2026-05-08T13:28:00Z</time>
      </trkpt>
      <trkpt lat="46.445019619" lon="7.061912196">
        <ele>1802.900</ele>
        <time>2026-05-08T13:29:00Z</time>
      </trkpt>
      <trkpt lat="46.444971570" lon="7.061800614">
        <ele>1803.000</ele>
        <time>2026-05-08T13:30:00Z</time>
      </trkpt>
      <trkpt lat="46.444924425" lon="7.061690327">
        <ele>1802.800</ele>
        <time>2026-05-08T13:31:00Z</time>
      </trkpt>
      <trkpt lat="46.444877280" lon="7.061580040">
        <ele>1802.900</ele>
        <time>2026-05-08T13:32:00Z</time>
      </trkpt>
      <trkpt lat="46.444829235" lon="7.061469760">
        <ele>1802.900</ele>
        <time>2026-05-08T13:33:00Z</time>
      </trkpt>
      <trkpt lat="46.444782089" lon="7.061359474">
        <ele>1803.000</ele>
        <time>2026-05-08T13:34:00Z</time>
      </trkpt>
      <trkpt lat="46.444734044" lon="7.061249195">
        <ele>1803.500</ele>
        <time>2026-05-08T13:35:00Z</time>
      </trkpt>
      <trkpt lat="46.444685986" lon="7.061135011">
        <ele>1803.700</ele>
        <time>2026-05-08T13:36:00Z</time>
      </trkpt>
      <trkpt lat="46.444648709" lon="7.061016848">
        <ele>1802.900</ele>
        <time>2026-05-08T13:37:00Z</time>
      </trkpt>
      <trkpt lat="46.444611432" lon="7.060898686">
        <ele>1804.000</ele>
        <time>2026-05-08T13:38:00Z</time>
      </trkpt>
      <trkpt lat="46.444555961" lon="7.060719488">
        <ele>1809.700</ele>
        <time>2026-05-08T13:39:00Z</time>
      </trkpt>
      <trkpt lat="46.444595155" lon="7.060603394">
        <ele>1814.900</ele>
        <time>2026-05-08T13:40:00Z</time>
      </trkpt>
      <trkpt lat="46.444656618" lon="7.060420777">
        <ele>1825.900</ele>
        <time>2026-05-08T13:41:00Z</time>
      </trkpt>
      <trkpt lat="46.444632812" lon="7.060296014">
        <ele>1828.100</ele>
        <time>2026-05-08T13:42:00Z</time>
      </trkpt>
      <trkpt lat="46.444609002" lon="7.060169950">
        <ele>1831.300</ele>
        <time>2026-05-08T13:43:00Z</time>
      </trkpt>
      <trkpt lat="46.444585197" lon="7.060045187">
        <ele>1833.900</ele>
        <time>2026-05-08T13:44:00Z</time>
      </trkpt>
      <trkpt lat="46.444560486" lon="7.059919130">
        <ele>1835.800</ele>
        <time>2026-05-08T13:45:00Z</time>
      </trkpt>
      <trkpt lat="46.444536680" lon="7.059794367">
        <ele>1837.300</ele>
        <time>2026-05-08T13:46:00Z</time>
      </trkpt>
      <trkpt lat="46.444512869" lon="7.059668303">
        <ele>1838.600</ele>
        <time>2026-05-08T13:47:00Z</time>
      </trkpt>
      <trkpt lat="46.444479911" lon="7.059496757">
        <ele>1841.000</ele>
        <time>2026-05-08T13:48:00Z</time>
      </trkpt>
      <trkpt lat="46.444501981" lon="7.059371673">
        <ele>1843.100</ele>
        <time>2026-05-08T13:49:00Z</time>
      </trkpt>
      <trkpt lat="46.444524947" lon="7.059245281">
        <ele>1846.100</ele>
        <time>2026-05-08T13:50:00Z</time>
      </trkpt>
      <trkpt lat="46.444547012" lon="7.059118896">
        <ele>1848.600</ele>
        <time>2026-05-08T13:51:00Z</time>
      </trkpt>
      <trkpt lat="46.444569078" lon="7.058992510">
        <ele>1851.000</ele>
        <time>2026-05-08T13:52:00Z</time>
      </trkpt>
      <trkpt lat="46.444585851" lon="7.058897394">
        <ele>1854.000</ele>
        <time>2026-05-08T13:53:00Z</time>
      </trkpt>
      <trkpt lat="46.444575524" lon="7.058768633">
        <ele>1854.900</ele>
        <time>2026-05-08T13:54:00Z</time>
      </trkpt>
      <trkpt lat="46.444565197" lon="7.058639872">
        <ele>1855.800</ele>
        <time>2026-05-08T13:55:00Z</time>
      </trkpt>
      <trkpt lat="46.444553965" lon="7.058509816">
        <ele>1857.000</ele>
        <time>2026-05-08T13:56:00Z</time>
      </trkpt>
      <trkpt lat="46.444543637" lon="7.058381055">
        <ele>1858.700</ele>
        <time>2026-05-08T13:57:00Z</time>
      </trkpt>
      <trkpt lat="46.444533309" lon="7.058252295">
        <ele>1859.600</ele>
        <time>2026-05-08T13:58:00Z</time>
      </trkpt>
      <trkpt lat="46.444522977" lon="7.058122233">
        <ele>1860.100</ele>
        <time>2026-05-08T13:59:00Z</time>
      </trkpt>
      <trkpt lat="46.444511749" lon="7.057993478">
        <ele>1860.800</ele>
        <time>2026-05-08T14:00:00Z</time>
      </trkpt>
      <trkpt lat="46.444501416" lon="7.057863416">
        <ele>1861.700</ele>
        <time>2026-05-08T14:01:00Z</time>
      </trkpt>
      <trkpt lat="46.444491088" lon="7.057734656">
        <ele>1863.000</ele>
        <time>2026-05-08T14:02:00Z</time>
      </trkpt>
      <trkpt lat="46.444479860" lon="7.057605901">
        <ele>1864.900</ele>
        <time>2026-05-08T14:03:00Z</time>
      </trkpt>
      <trkpt lat="46.444469527" lon="7.057475840">
        <ele>1867.400</ele>
        <time>2026-05-08T14:04:00Z</time>
      </trkpt>
      <trkpt lat="46.444459198" lon="7.057347080">
        <ele>1870.200</ele>
        <time>2026-05-08T14:05:00Z</time>
      </trkpt>
      <trkpt lat="46.444448870" lon="7.057218319">
        <ele>1873.700</ele>
        <time>2026-05-08T14:06:00Z</time>
      </trkpt>
      <trkpt lat="46.444437637" lon="7.057088265">
        <ele>1877.600</ele>
        <time>2026-05-08T14:07:00Z</time>
      </trkpt>
      <trkpt lat="46.444427308" lon="7.056959505">
        <ele>1881.300</ele>
        <time>2026-05-08T14:08:00Z</time>
      </trkpt>
      <trkpt lat="46.444416979" lon="7.056830745">
        <ele>1884.600</ele>
        <time>2026-05-08T14:09:00Z</time>
      </trkpt>
      <trkpt lat="46.444406645" lon="7.056700683">
        <ele>1887.300</ele>
        <time>2026-05-08T14:10:00Z</time>
      </trkpt>
      <trkpt lat="46.444395416" lon="7.056571930">
        <ele>1890.100</ele>
        <time>2026-05-08T14:11:00Z</time>
      </trkpt>
      <trkpt lat="46.444379457" lon="7.056374239">
        <ele>1895.300</ele>
        <time>2026-05-08T14:12:00Z</time>
      </trkpt>
      <trkpt lat="46.444359241" lon="7.056248151">
        <ele>1897.200</ele>
        <time>2026-05-08T14:13:00Z</time>
      </trkpt>
      <trkpt lat="46.444338120" lon="7.056120769">
        <ele>1899.600</ele>
        <time>2026-05-08T14:14:00Z</time>
      </trkpt>
      <trkpt lat="46.444317004" lon="7.055994689">
        <ele>1901.400</ele>
        <time>2026-05-08T14:15:00Z</time>
      </trkpt>
      <trkpt lat="46.444296787" lon="7.055868601">
        <ele>1902.900</ele>
        <time>2026-05-08T14:16:00Z</time>
      </trkpt>
      <trkpt lat="46.444275666" lon="7.055741220">
        <ele>1905.000</ele>
        <time>2026-05-08T14:17:00Z</time>
      </trkpt>
      <trkpt lat="46.444255449" lon="7.055615133">
        <ele>1907.700</ele>
        <time>2026-05-08T14:18:00Z</time>
      </trkpt>
      <trkpt lat="46.444234328" lon="7.055487751">
        <ele>1910.400</ele>
        <time>2026-05-08T14:19:00Z</time>
      </trkpt>
      <trkpt lat="46.444214111" lon="7.055361665">
        <ele>1912.800</ele>
        <time>2026-05-08T14:20:00Z</time>
      </trkpt>
      <trkpt lat="46.444192994" lon="7.055235585">
        <ele>1915.300</ele>
        <time>2026-05-08T14:21:00Z</time>
      </trkpt>
      <trkpt lat="46.444172773" lon="7.055108197">
        <ele>1918.100</ele>
        <time>2026-05-08T14:22:00Z</time>
      </trkpt>
      <trkpt lat="46.444151656" lon="7.054982117">
        <ele>1921.200</ele>
        <time>2026-05-08T14:23:00Z</time>
      </trkpt>
      <trkpt lat="46.444120418" lon="7.054789741">
        <ele>1923.500</ele>
        <time>2026-05-08T14:24:00Z</time>
      </trkpt>
      <trkpt lat="46.444120399" lon="7.054790280">
        <ele>1924.450</ele>
        <time>2026-05-08T14:25:00Z</time>
      </trkpt>
      <trkpt lat="46.444010399" lon="7.054610279">
        <ele>1924.080</ele>
        <time>2026-05-08T14:26:00Z</time>
      </trkpt>
      <trkpt lat="46.443870398" lon="7.054360279">
        <ele>1921.260</ele>
        <time>2026-05-08T14:27:00Z</time>
      </trkpt>
      <trkpt lat="46.443790398" lon="7.054210279">
        <ele>1919.900</ele>
        <time>2026-05-08T14:28:00Z</time>
      </trkpt>
      <trkpt lat="46.443760397" lon="7.054170279">
        <ele>1918.580</ele>
        <time>2026-05-08T14:29:00Z</time>
      </trkpt>
      <trkpt lat="46.443740397" lon="7.054130279">
        <ele>1918.010</ele>
        <time>2026-05-08T14:30:00Z</time>
      </trkpt>
      <trkpt lat="46.443680397" lon="7.054020279">
        <ele>1916.620</ele>
        <time>2026-05-08T14:31:00Z</time>
      </trkpt>
      <trkpt lat="46.443630397" lon="7.053930278">
        <ele>1914.720</ele>
        <time>2026-05-08T14:32:00Z</time>
      </trkpt>
      <trkpt lat="46.443610397" lon="7.053890278">
        <ele>1913.800</ele>
        <time>2026-05-08T14:33:00Z</time>
      </trkpt>
      <trkpt lat="46.443570396" lon="7.053830278">
        <ele>1912.690</ele>
        <time>2026-05-08T14:34:00Z</time>
      </trkpt>
      <trkpt lat="46.443550396" lon="7.053780278">
        <ele>1912.370</ele>
        <time>2026-05-08T14:35:00Z</time>
      </trkpt>
      <trkpt lat="46.443500396" lon="7.053670277">
        <ele>1909.910</ele>
        <time>2026-05-08T14:36:00Z</time>
      </trkpt>
      <trkpt lat="46.443430395" lon="7.053530277">
        <ele>1906.980</ele>
        <time>2026-05-08T14:37:00Z</time>
      </trkpt>
      <trkpt lat="46.443400395" lon="7.053510277">
        <ele>1905.910</ele>
        <time>2026-05-08T14:38:00Z</time>
      </trkpt>
      <trkpt lat="46.443350395" lon="7.053440277">
        <ele>1904.270</ele>
        <time>2026-05-08T14:39:00Z</time>
      </trkpt>
      <trkpt lat="46.443320394" lon="7.053390277">
        <ele>1902.200</ele>
        <time>2026-05-08T14:40:00Z</time>
      </trkpt>
      <trkpt lat="46.443300394" lon="7.053340276">
        <ele>1901.630</ele>
        <time>2026-05-08T14:41:00Z</time>
      </trkpt>
      <trkpt lat="46.443280394" lon="7.053270276">
        <ele>1901.090</ele>
        <time>2026-05-08T14:42:00Z</time>
      </trkpt>
      <trkpt lat="46.443230394" lon="7.053150276">
        <ele>1899.520</ele>
        <time>2026-05-08T14:43:00Z</time>
      </trkpt>
      <trkpt lat="46.443180393" lon="7.053070276">
        <ele>1898.110</ele>
        <time>2026-05-08T14:44:00Z</time>
      </trkpt>
      <trkpt lat="46.443140393" lon="7.052970276">
        <ele>1896.620</ele>
        <time>2026-05-08T14:45:00Z</time>
      </trkpt>
      <trkpt lat="46.443110393" lon="7.052890276">
        <ele>1896.130</ele>
        <time>2026-05-08T14:46:00Z</time>
      </trkpt>
      <trkpt lat="46.442970392" lon="7.052640275">
        <ele>1891.890</ele>
        <time>2026-05-08T14:47:00Z</time>
      </trkpt>
      <trkpt lat="46.442900392" lon="7.052480275">
        <ele>1890.280</ele>
        <time>2026-05-08T14:48:00Z</time>
      </trkpt>
      <trkpt lat="46.442850391" lon="7.052300274">
        <ele>1888.220</ele>
        <time>2026-05-08T14:49:00Z</time>
      </trkpt>
      <trkpt lat="46.442810392" lon="7.052240274">
        <ele>1887.360</ele>
        <time>2026-05-08T14:50:00Z</time>
      </trkpt>
      <trkpt lat="46.442710391" lon="7.052130274">
        <ele>1883.910</ele>
        <time>2026-05-08T14:51:00Z</time>
      </trkpt>
      <trkpt lat="46.442660390" lon="7.052070274">
        <ele>1881.950</ele>
        <time>2026-05-08T14:52:00Z</time>
      </trkpt>
      <trkpt lat="46.442580389" lon="7.051930273">
        <ele>1878.190</ele>
        <time>2026-05-08T14:53:00Z</time>
      </trkpt>
      <trkpt lat="46.442480389" lon="7.051730272">
        <ele>1874.650</ele>
        <time>2026-05-08T14:54:00Z</time>
      </trkpt>
      <trkpt lat="46.442380388" lon="7.051600272">
        <ele>1870.690</ele>
        <time>2026-05-08T14:55:00Z</time>
      </trkpt>
      <trkpt lat="46.442340387" lon="7.051470272">
        <ele>1867.930</ele>
        <time>2026-05-08T14:56:00Z</time>
      </trkpt>
      <trkpt lat="46.442310387" lon="7.051380272">
        <ele>1867.070</ele>
        <time>2026-05-08T14:57:00Z</time>
      </trkpt>
      <trkpt lat="46.442300387" lon="7.051290271">
        <ele>1866.570</ele>
        <time>2026-05-08T14:58:00Z</time>
      </trkpt>
      <trkpt lat="46.442280387" lon="7.051220271">
        <ele>1866.030</ele>
        <time>2026-05-08T14:59:00Z</time>
      </trkpt>
      <trkpt lat="46.442260387" lon="7.051210271">
        <ele>1865.280</ele>
        <time>2026-05-08T15:00:00Z</time>
      </trkpt>
      <trkpt lat="46.442260482" lon="7.051210062">
        <ele>1864.300</ele>
        <time>2026-05-08T15:01:00Z</time>
      </trkpt>
      <trkpt lat="46.442204362" lon="7.051108962">
        <ele>1862.700</ele>
        <time>2026-05-08T15:02:00Z</time>
      </trkpt>
      <trkpt lat="46.442148237" lon="7.051006562">
        <ele>1860.200</ele>
        <time>2026-05-08T15:03:00Z</time>
      </trkpt>
      <trkpt lat="46.442092116" lon="7.050905463">
        <ele>1857.800</ele>
        <time>2026-05-08T15:04:00Z</time>
      </trkpt>
      <trkpt lat="46.442035096" lon="7.050804371">
        <ele>1855.600</ele>
        <time>2026-05-08T15:05:00Z</time>
      </trkpt>
      <trkpt lat="46.441978971" lon="7.050701972">
        <ele>1853.500</ele>
        <time>2026-05-08T15:06:00Z</time>
      </trkpt>
      <trkpt lat="46.441922851" lon="7.050600874">
        <ele>1851.700</ele>
        <time>2026-05-08T15:07:00Z</time>
      </trkpt>
      <trkpt lat="46.441866730" lon="7.050499776">
        <ele>1850.400</ele>
        <time>2026-05-08T15:08:00Z</time>
      </trkpt>
      <trkpt lat="46.441804273" lon="7.050387013">
        <ele>1849.000</ele>
        <time>2026-05-08T15:09:00Z</time>
      </trkpt>
      <trkpt lat="46.441751732" lon="7.050280685">
        <ele>1848.600</ele>
        <time>2026-05-08T15:10:00Z</time>
      </trkpt>
      <trkpt lat="46.441698297" lon="7.050175664">
        <ele>1848.300</ele>
        <time>2026-05-08T15:11:00Z</time>
      </trkpt>
      <trkpt lat="46.441645761" lon="7.050070638">
        <ele>1848.200</ele>
        <time>2026-05-08T15:12:00Z</time>
      </trkpt>
      <trkpt lat="46.441593225" lon="7.049965612">
        <ele>1848.100</ele>
        <time>2026-05-08T15:13:00Z</time>
      </trkpt>
      <trkpt lat="46.441539789" lon="7.049860593">
        <ele>1848.100</ele>
        <time>2026-05-08T15:14:00Z</time>
      </trkpt>
      <trkpt lat="46.441487249" lon="7.049754266">
        <ele>1848.600</ele>
        <time>2026-05-08T15:15:00Z</time>
      </trkpt>
      <trkpt lat="46.441412072" lon="7.049605160">
        <ele>1849.900</ele>
        <time>2026-05-08T15:16:00Z</time>
      </trkpt>
      <trkpt lat="46.441346100" lon="7.049517148">
        <ele>1850.200</ele>
        <time>2026-05-08T15:17:00Z</time>
      </trkpt>
      <trkpt lat="46.441279229" lon="7.049429143">
        <ele>1850.300</ele>
        <time>2026-05-08T15:18:00Z</time>
      </trkpt>
      <trkpt lat="46.441213258" lon="7.049341131">
        <ele>1850.200</ele>
        <time>2026-05-08T15:19:00Z</time>
      </trkpt>
      <trkpt lat="46.441146391" lon="7.049254428">
        <ele>1850.200</ele>
        <time>2026-05-08T15:20:00Z</time>
      </trkpt>
      <trkpt lat="46.441080419" lon="7.049166417">
        <ele>1849.900</ele>
        <time>2026-05-08T15:21:00Z</time>
      </trkpt>
      <trkpt lat="46.441013547" lon="7.049078412">
        <ele>1849.300</ele>
        <time>2026-05-08T15:22:00Z</time>
      </trkpt>
      <trkpt lat="46.440947575" lon="7.048990402">
        <ele>1848.900</ele>
        <time>2026-05-08T15:23:00Z</time>
      </trkpt>
      <trkpt lat="46.440880704" lon="7.048902398">
        <ele>1848.500</ele>
        <time>2026-05-08T15:24:00Z</time>
      </trkpt>
      <trkpt lat="46.440814732" lon="7.048814388">
        <ele>1849.300</ele>
        <time>2026-05-08T15:25:00Z</time>
      </trkpt>
      <trkpt lat="46.440709909" lon="7.048677211">
        <ele>1852.500</ele>
        <time>2026-05-08T15:26:00Z</time>
      </trkpt>
      <trkpt lat="46.440628757" lon="7.048621842">
        <ele>1853.800</ele>
        <time>2026-05-08T15:27:00Z</time>
      </trkpt>
      <trkpt lat="46.440546710" lon="7.048567781">
        <ele>1855.600</ele>
        <time>2026-05-08T15:28:00Z</time>
      </trkpt>
      <trkpt lat="46.440465557" lon="7.048512413">
        <ele>1857.500</ele>
        <time>2026-05-08T15:29:00Z</time>
      </trkpt>
      <trkpt lat="46.440383510" lon="7.048458353">
        <ele>1859.500</ele>
        <time>2026-05-08T15:30:00Z</time>
      </trkpt>
      <trkpt lat="46.440301458" lon="7.048402992">
        <ele>1861.200</ele>
        <time>2026-05-08T15:31:00Z</time>
      </trkpt>
      <trkpt lat="46.440220311" lon="7.048348925">
        <ele>1862.700</ele>
        <time>2026-05-08T15:32:00Z</time>
      </trkpt>
      <trkpt lat="46.440132853" lon="7.048291001">
        <ele>1865.300</ele>
        <time>2026-05-08T15:33:00Z</time>
      </trkpt>
      <trkpt lat="46.440046375" lon="7.048256492">
        <ele>1867.400</ele>
        <time>2026-05-08T15:34:00Z</time>
      </trkpt>
      <trkpt lat="46.439934683" lon="7.048214358">
        <ele>1872.000</ele>
        <time>2026-05-08T15:35:00Z</time>
      </trkpt>
      <trkpt lat="46.439925239" lon="7.048084302">
        <ele>1874.100</ele>
        <time>2026-05-08T15:36:00Z</time>
      </trkpt>
      <trkpt lat="46.439914900" lon="7.047955555">
        <ele>1877.700</ele>
        <time>2026-05-08T15:37:00Z</time>
      </trkpt>
      <trkpt lat="46.439904557" lon="7.047825506">
        <ele>1881.600</ele>
        <time>2026-05-08T15:38:00Z</time>
      </trkpt>
      <trkpt lat="46.439895117" lon="7.047696752">
        <ele>1885.000</ele>
        <time>2026-05-08T15:39:00Z</time>
      </trkpt>
      <trkpt lat="46.439887597" lon="7.047603118">
        <ele>1886.600</ele>
        <time>2026-05-08T15:40:00Z</time>
      </trkpt>
      <trkpt lat="46.439866466" lon="7.047475749">
        <ele>1885.300</ele>
        <time>2026-05-08T15:41:00Z</time>
      </trkpt>
      <trkpt lat="46.439846239" lon="7.047349675">
        <ele>1882.800</ele>
        <time>2026-05-08T15:42:00Z</time>
      </trkpt>
      <trkpt lat="46.439825112" lon="7.047223608">
        <ele>1879.700</ele>
        <time>2026-05-08T15:43:00Z</time>
      </trkpt>
      <trkpt lat="46.439803980" lon="7.047096238">
        <ele>1875.900</ele>
        <time>2026-05-08T15:44:00Z</time>
      </trkpt>
      <trkpt lat="46.439786527" lon="7.046992265">
        <ele>1868.600</ele>
        <time>2026-05-08T15:45:00Z</time>
      </trkpt>
      <trkpt lat="46.439770788" lon="7.046863556">
        <ele>1863.700</ele>
        <time>2026-05-08T15:46:00Z</time>
      </trkpt>
      <trkpt lat="46.439755052" lon="7.046736148">
        <ele>1856.500</ele>
        <time>2026-05-08T15:47:00Z</time>
      </trkpt>
      <trkpt lat="46.439739312" lon="7.046607439">
        <ele>1849.500</ele>
        <time>2026-05-08T15:48:00Z</time>
      </trkpt>
      <trkpt lat="46.439723577" lon="7.046480031">
        <ele>1843.300</ele>
        <time>2026-05-08T15:49:00Z</time>
      </trkpt>
      <trkpt lat="46.439712483" lon="7.046394229">
        <ele>1836.800</ele>
        <time>2026-05-08T15:50:00Z</time>
      </trkpt>
      <trkpt lat="46.439776939" lon="7.046303976">
        <ele>1834.300</ele>
        <time>2026-05-08T15:51:00Z</time>
      </trkpt>
      <trkpt lat="46.439842289" lon="7.046212414">
        <ele>1830.600</ele>
        <time>2026-05-08T15:52:00Z</time>
      </trkpt>
      <trkpt lat="46.439906745" lon="7.046122161">
        <ele>1826.700</ele>
        <time>2026-05-08T15:53:00Z</time>
      </trkpt>
      <trkpt lat="46.440006120" lon="7.045984808">
        <ele>1820.300</ele>
        <time>2026-05-08T15:54:00Z</time>
      </trkpt>
      <trkpt lat="46.440034475" lon="7.045860983">
        <ele>1816.100</ele>
        <time>2026-05-08T15:55:00Z</time>
      </trkpt>
      <trkpt lat="46.440062831" lon="7.045737159">
        <ele>1809.500</ele>
        <time>2026-05-08T15:56:00Z</time>
      </trkpt>
      <trkpt lat="46.440091190" lon="7.045614635">
        <ele>1803.300</ele>
        <time>2026-05-08T15:57:00Z</time>
      </trkpt>
      <trkpt lat="46.440120445" lon="7.045490803">
        <ele>1797.700</ele>
        <time>2026-05-08T15:58:00Z</time>
      </trkpt>
      <trkpt lat="46.440149685" lon="7.045363067">
        <ele>1792.000</ele>
        <time>2026-05-08T15:59:00Z</time>
      </trkpt>
      <trkpt lat="46.440231354" lon="7.045307821">
        <ele>1792.100</ele>
        <time>2026-05-08T16:00:00Z</time>
      </trkpt>
      <trkpt lat="46.440313024" lon="7.045252574">
        <ele>1792.000</ele>
        <time>2026-05-08T16:01:00Z</time>
      </trkpt>
      <trkpt lat="46.440394693" lon="7.045197328">
        <ele>1791.700</ele>
        <time>2026-05-08T16:02:00Z</time>
      </trkpt>
      <trkpt lat="46.440481750" lon="7.045139439">
        <ele>1791.200</ele>
        <time>2026-05-08T16:03:00Z</time>
      </trkpt>
      <trkpt lat="46.440521822" lon="7.045022034">
        <ele>1789.400</ele>
        <time>2026-05-08T16:04:00Z</time>
      </trkpt>
      <trkpt lat="46.440561898" lon="7.044905930">
        <ele>1786.500</ele>
        <time>2026-05-08T16:05:00Z</time>
      </trkpt>
      <trkpt lat="46.440601970" lon="7.044788525">
        <ele>1783.200</ele>
        <time>2026-05-08T16:06:00Z</time>
      </trkpt>
      <trkpt lat="46.440641146" lon="7.044672427">
        <ele>1779.700</ele>
        <time>2026-05-08T16:07:00Z</time>
      </trkpt>
      <trkpt lat="46.440681222" lon="7.044556323">
        <ele>1777.100</ele>
        <time>2026-05-08T16:08:00Z</time>
      </trkpt>
      <trkpt lat="46.440721293" lon="7.044438917">
        <ele>1775.400</ele>
        <time>2026-05-08T16:09:00Z</time>
      </trkpt>
      <trkpt lat="46.440761369" lon="7.044322813">
        <ele>1773.900</ele>
        <time>2026-05-08T16:10:00Z</time>
      </trkpt>
      <trkpt lat="46.440800541" lon="7.044205413">
        <ele>1772.600</ele>
        <time>2026-05-08T16:11:00Z</time>
      </trkpt>
      <trkpt lat="46.440840617" lon="7.044089308">
        <ele>1771.300</ele>
        <time>2026-05-08T16:12:00Z</time>
      </trkpt>
      <trkpt lat="46.440880693" lon="7.043973203">
        <ele>1769.900</ele>
        <time>2026-05-08T16:13:00Z</time>
      </trkpt>
      <trkpt lat="46.440920763" lon="7.043855797">
        <ele>1768.000</ele>
        <time>2026-05-08T16:14:00Z</time>
      </trkpt>
      <trkpt lat="46.440960838" lon="7.043739691">
        <ele>1765.800</ele>
        <time>2026-05-08T16:15:00Z</time>
      </trkpt>
      <trkpt lat="46.440987552" lon="7.043661420">
        <ele>1762.200</ele>
        <time>2026-05-08T16:16:00Z</time>
      </trkpt>
      <trkpt lat="46.441037549" lon="7.043553049">
        <ele>1759.400</ele>
        <time>2026-05-08T16:17:00Z</time>
      </trkpt>
      <trkpt lat="46.441085774" lon="7.043452499">
        <ele>1754.600</ele>
        <time>2026-05-08T16:18:00Z</time>
      </trkpt>
      <trkpt lat="46.441173852" lon="7.043429733">
        <ele>1752.800</ele>
        <time>2026-05-08T16:19:00Z</time>
      </trkpt>
      <trkpt lat="46.441262834" lon="7.043408262">
        <ele>1750.000</ele>
        <time>2026-05-08T16:20:00Z</time>
      </trkpt>
      <trkpt lat="46.441355410" lon="7.043385463">
        <ele>1746.600</ele>
        <time>2026-05-08T16:21:00Z</time>
      </trkpt>
      <trkpt lat="46.441435270" lon="7.043327623">
        <ele>1744.600</ele>
        <time>2026-05-08T16:22:00Z</time>
      </trkpt>
      <trkpt lat="46.441516028" lon="7.043269776">
        <ele>1741.700</ele>
        <time>2026-05-08T16:23:00Z</time>
      </trkpt>
      <trkpt lat="46.441596787" lon="7.043211928">
        <ele>1738.600</ele>
        <time>2026-05-08T16:24:00Z</time>
      </trkpt>
      <trkpt lat="46.441677546" lon="7.043154081">
        <ele>1735.100</ele>
        <time>2026-05-08T16:25:00Z</time>
      </trkpt>
      <trkpt lat="46.441758305" lon="7.043096233">
        <ele>1731.400</ele>
        <time>2026-05-08T16:26:00Z</time>
      </trkpt>
      <trkpt lat="46.441830985" lon="7.043043649">
        <ele>1724.800</ele>
        <time>2026-05-08T16:27:00Z</time>
      </trkpt>
      <trkpt lat="46.441889109" lon="7.042944325">
        <ele>1719.300</ele>
        <time>2026-05-08T16:28:00Z</time>
      </trkpt>
      <trkpt lat="46.441947232" lon="7.042845001">
        <ele>1710.100</ele>
        <time>2026-05-08T16:29:00Z</time>
      </trkpt>
      <trkpt lat="46.442005355" lon="7.042745676">
        <ele>1700.600</ele>
        <time>2026-05-08T16:30:00Z</time>
      </trkpt>
      <trkpt lat="46.442063477" lon="7.042646350">
        <ele>1690.200</ele>
        <time>2026-05-08T16:31:00Z</time>
      </trkpt>
      <trkpt lat="46.442152902" lon="7.042494744">
        <ele>1677.500</ele>
        <time>2026-05-08T16:32:00Z</time>
      </trkpt>
      <trkpt lat="46.442241907" lon="7.042479777">
        <ele>1675.700</ele>
        <time>2026-05-08T16:33:00Z</time>
      </trkpt>
      <trkpt lat="46.442330907" lon="7.042463509">
        <ele>1672.700</ele>
        <time>2026-05-08T16:34:00Z</time>
      </trkpt>
      <trkpt lat="46.442420811" lon="7.042448536">
        <ele>1669.500</ele>
        <time>2026-05-08T16:35:00Z</time>
      </trkpt>
      <trkpt lat="46.442509816" lon="7.042433569">
        <ele>1666.700</ele>
        <time>2026-05-08T16:36:00Z</time>
      </trkpt>
      <trkpt lat="46.442598821" lon="7.042418602">
        <ele>1663.800</ele>
        <time>2026-05-08T16:37:00Z</time>
      </trkpt>
      <trkpt lat="46.442688725" lon="7.042403628">
        <ele>1661.100</ele>
        <time>2026-05-08T16:38:00Z</time>
      </trkpt>
      <trkpt lat="46.442777725" lon="7.042387360">
        <ele>1658.700</ele>
        <time>2026-05-08T16:39:00Z</time>
      </trkpt>
      <trkpt lat="46.442872128" lon="7.042372353">
        <ele>1655.800</ele>
        <time>2026-05-08T16:40:00Z</time>
      </trkpt>
      <trkpt lat="46.442953804" lon="7.042319702">
        <ele>1653.600</ele>
        <time>2026-05-08T16:41:00Z</time>
      </trkpt>
      <trkpt lat="46.443036380" lon="7.042267044">
        <ele>1650.400</ele>
        <time>2026-05-08T16:42:00Z</time>
      </trkpt>
      <trkpt lat="46.443118960" lon="7.042215686">
        <ele>1647.300</ele>
        <time>2026-05-08T16:43:00Z</time>
      </trkpt>
      <trkpt lat="46.443201535" lon="7.042163028">
        <ele>1644.500</ele>
        <time>2026-05-08T16:44:00Z</time>
      </trkpt>
      <trkpt lat="46.443284111" lon="7.042110369">
        <ele>1642.400</ele>
        <time>2026-05-08T16:45:00Z</time>
      </trkpt>
      <trkpt lat="46.443365792" lon="7.042059018">
        <ele>1640.900</ele>
        <time>2026-05-08T16:46:00Z</time>
      </trkpt>
      <trkpt lat="46.443448368" lon="7.042006359">
        <ele>1639.900</ele>
        <time>2026-05-08T16:47:00Z</time>
      </trkpt>
      <trkpt lat="46.443530944" lon="7.041953701">
        <ele>1639.100</ele>
        <time>2026-05-08T16:48:00Z</time>
      </trkpt>
      <trkpt lat="46.443613525" lon="7.041902343">
        <ele>1638.400</ele>
        <time>2026-05-08T16:49:00Z</time>
      </trkpt>
      <trkpt lat="46.443710462" lon="7.041840469">
        <ele>1637.900</ele>
        <time>2026-05-08T16:50:00Z</time>
      </trkpt>
      <trkpt lat="46.443710342" lon="7.041840239">
        <ele>1637.000</ele>
        <time>2026-05-08T16:51:00Z</time>
      </trkpt>
      <trkpt lat="46.443700342" lon="7.041820239">
        <ele>1636.940</ele>
        <time>2026-05-08T16:52:00Z</time>
      </trkpt>
      <trkpt lat="46.444180343" lon="7.041620241">
        <ele>1644.560</ele>
        <time>2026-05-08T16:53:00Z</time>
      </trkpt>
      <trkpt lat="46.444470344" lon="7.041440241">
        <ele>1646.900</ele>
        <time>2026-05-08T16:54:00Z</time>
      </trkpt>
      <trkpt lat="46.444730344" lon="7.041250241">
        <ele>1649.110</ele>
        <time>2026-05-08T16:55:00Z</time>
      </trkpt>
      <trkpt lat="46.445130345" lon="7.040910242">
        <ele>1655.120</ele>
        <time>2026-05-08T16:56:00Z</time>
      </trkpt>
      <trkpt lat="46.445350346" lon="7.040720242">
        <ele>1657.810</ele>
        <time>2026-05-08T16:57:00Z</time>
      </trkpt>
      <trkpt lat="46.445420346" lon="7.040660242">
        <ele>1658.450</ele>
        <time>2026-05-08T16:58:00Z</time>
      </trkpt>
      <trkpt lat="46.445490346" lon="7.040600243">
        <ele>1658.650</ele>
        <time>2026-05-08T16:59:00Z</time>
      </trkpt>
      <trkpt lat="46.445610346" lon="7.040500243">
        <ele>1659.920</ele>
        <time>2026-05-08T17:00:00Z</time>
      </trkpt>
      <trkpt lat="46.445650347" lon="7.040450242">
        <ele>1660.090</ele>
        <time>2026-05-08T17:01:00Z</time>
      </trkpt>
      <trkpt lat="46.445660347" lon="7.040440243">
        <ele>1660.570</ele>
        <time>2026-05-08T17:02:00Z</time>
      </trkpt>
      <trkpt lat="46.445700346" lon="7.040410243">
        <ele>1661.060</ele>
        <time>2026-05-08T17:03:00Z</time>
      </trkpt>
      <trkpt lat="46.445740347" lon="7.040370243">
        <ele>1661.490</ele>
        <time>2026-05-08T17:04:00Z</time>
      </trkpt>
      <trkpt lat="46.445800347" lon="7.040300243">
        <ele>1662.620</ele>
        <time>2026-05-08T17:05:00Z</time>
      </trkpt>
      <trkpt lat="46.445860347" lon="7.040200243">
        <ele>1663.910</ele>
        <time>2026-05-08T17:06:00Z</time>
      </trkpt>
      <trkpt lat="46.445890347" lon="7.040150243">
        <ele>1664.050</ele>
        <time>2026-05-08T17:07:00Z</time>
      </trkpt>
      <trkpt lat="46.445900347" lon="7.040110243">
        <ele>1664.630</ele>
        <time>2026-05-08T17:08:00Z</time>
      </trkpt>
      <trkpt lat="46.445940347" lon="7.040040243">
        <ele>1665.200</ele>
        <time>2026-05-08T17:09:00Z</time>
      </trkpt>
      <trkpt lat="46.445970348" lon="7.039980243">
        <ele>1666.470</ele>
        <time>2026-05-08T17:10:00Z</time>
      </trkpt>
      <trkpt lat="46.445990348" lon="7.039930244">
        <ele>1666.690</ele>
        <time>2026-05-08T17:11:00Z</time>
      </trkpt>
      <trkpt lat="46.446010348" lon="7.039850243">
        <ele>1667.550</ele>
        <time>2026-05-08T17:12:00Z</time>
      </trkpt>
      <trkpt lat="46.446060348" lon="7.039720244">
        <ele>1670.110</ele>
        <time>2026-05-08T17:13:00Z</time>
      </trkpt>
      <trkpt lat="46.446100349" lon="7.039590244">
        <ele>1671.710</ele>
        <time>2026-05-08T17:14:00Z</time>
      </trkpt>
      <trkpt lat="46.446099917" lon="7.039589754">
        <ele>1673.100</ele>
        <time>2026-05-08T17:15:00Z</time>
      </trkpt>
      <trkpt lat="46.446138185" lon="7.039472347">
        <ele>1674.900</ele>
        <time>2026-05-08T17:16:00Z</time>
      </trkpt>
      <trkpt lat="46.446176448" lon="7.039353638">
        <ele>1677.500</ele>
        <time>2026-05-08T17:17:00Z</time>
      </trkpt>
      <trkpt lat="46.446213817" lon="7.039236237">
        <ele>1680.200</ele>
        <time>2026-05-08T17:18:00Z</time>
      </trkpt>
      <trkpt lat="46.446252080" lon="7.039117528">
        <ele>1683.300</ele>
        <time>2026-05-08T17:19:00Z</time>
      </trkpt>
      <trkpt lat="46.446289448" lon="7.039000127">
        <ele>1686.800</ele>
        <time>2026-05-08T17:20:00Z</time>
      </trkpt>
      <trkpt lat="46.446327711" lon="7.038881418">
        <ele>1690.000</ele>
        <time>2026-05-08T17:21:00Z</time>
      </trkpt>
      <trkpt lat="46.446365079" lon="7.038764017">
        <ele>1692.300</ele>
        <time>2026-05-08T17:22:00Z</time>
      </trkpt>
      <trkpt lat="46.446403341" lon="7.038645307">
        <ele>1694.100</ele>
        <time>2026-05-08T17:23:00Z</time>
      </trkpt>
      <trkpt lat="46.446441608" lon="7.038527898">
        <ele>1695.700</ele>
        <time>2026-05-08T17:24:00Z</time>
      </trkpt>
      <trkpt lat="46.446478971" lon="7.038409194">
        <ele>1697.300</ele>
        <time>2026-05-08T17:25:00Z</time>
      </trkpt>
      <trkpt lat="46.446517237" lon="7.038291785">
        <ele>1698.700</ele>
        <time>2026-05-08T17:26:00Z</time>
      </trkpt>
      <trkpt lat="46.446554604" lon="7.038174383">
        <ele>1700.400</ele>
        <time>2026-05-08T17:27:00Z</time>
      </trkpt>
      <trkpt lat="46.446592866" lon="7.038055673">
        <ele>1702.800</ele>
        <time>2026-05-08T17:28:00Z</time>
      </trkpt>
      <trkpt lat="46.446630233" lon="7.037938270">
        <ele>1704.900</ele>
        <time>2026-05-08T17:29:00Z</time>
      </trkpt>
      <trkpt lat="46.446668494" lon="7.037819559">
        <ele>1706.600</ele>
        <time>2026-05-08T17:30:00Z</time>
      </trkpt>
      <trkpt lat="46.446705861" lon="7.037702156">
        <ele>1707.900</ele>
        <time>2026-05-08T17:31:00Z</time>
      </trkpt>
      <trkpt lat="46.446744122" lon="7.037583444">
        <ele>1708.900</ele>
        <time>2026-05-08T17:32:00Z</time>
      </trkpt>
      <trkpt lat="46.446782388" lon="7.037466034">
        <ele>1710.300</ele>
        <time>2026-05-08T17:33:00Z</time>
      </trkpt>
      <trkpt lat="46.446823311" lon="7.037336892">
        <ele>1712.800</ele>
        <time>2026-05-08T17:34:00Z</time>
      </trkpt>
      <trkpt lat="46.446894089" lon="7.037255679">
        <ele>1713.200</ele>
        <time>2026-05-08T17:35:00Z</time>
      </trkpt>
      <trkpt lat="46.446964872" lon="7.037175768">
        <ele>1713.300</ele>
        <time>2026-05-08T17:36:00Z</time>
      </trkpt>
      <trkpt lat="46.447035655" lon="7.037095856">
        <ele>1713.000</ele>
        <time>2026-05-08T17:37:00Z</time>
      </trkpt>
      <trkpt lat="46.447107337" lon="7.037015937">
        <ele>1712.900</ele>
        <time>2026-05-08T17:38:00Z</time>
      </trkpt>
      <trkpt lat="46.447178120" lon="7.036936026">
        <ele>1713.100</ele>
        <time>2026-05-08T17:39:00Z</time>
      </trkpt>
      <trkpt lat="46.447248903" lon="7.036856113">
        <ele>1713.500</ele>
        <time>2026-05-08T17:40:00Z</time>
      </trkpt>
      <trkpt lat="46.447319681" lon="7.036774899">
        <ele>1714.000</ele>
        <time>2026-05-08T17:41:00Z</time>
      </trkpt>
      <trkpt lat="46.447390463" lon="7.036694987">
        <ele>1714.900</ele>
        <time>2026-05-08T17:42:00Z</time>
      </trkpt>
      <trkpt lat="46.447495295" lon="7.036577079">
        <ele>1716.400</ele>
        <time>2026-05-08T17:43:00Z</time>
      </trkpt>
      <trkpt lat="46.447547994" lon="7.036471272">
        <ele>1716.500</ele>
        <time>2026-05-08T17:44:00Z</time>
      </trkpt>
      <trkpt lat="46.447599793" lon="7.036365472">
        <ele>1716.600</ele>
        <time>2026-05-08T17:45:00Z</time>
      </trkpt>
      <trkpt lat="46.447652492" lon="7.036259664">
        <ele>1716.800</ele>
        <time>2026-05-08T17:46:00Z</time>
      </trkpt>
      <trkpt lat="46.447705190" lon="7.036153856">
        <ele>1717.000</ele>
        <time>2026-05-08T17:47:00Z</time>
      </trkpt>
      <trkpt lat="46.447756989" lon="7.036048055">
        <ele>1717.400</ele>
        <time>2026-05-08T17:48:00Z</time>
      </trkpt>
      <trkpt lat="46.447809688" lon="7.035942247">
        <ele>1718.000</ele>
        <time>2026-05-08T17:49:00Z</time>
      </trkpt>
      <trkpt lat="46.447862386" lon="7.035836438">
        <ele>1718.700</ele>
        <time>2026-05-08T17:50:00Z</time>
      </trkpt>
      <trkpt lat="46.447914185" lon="7.035730637">
        <ele>1720.100</ele>
        <time>2026-05-08T17:51:00Z</time>
      </trkpt>
      <trkpt lat="46.447986530" lon="7.035584337">
        <ele>1722.200</ele>
        <time>2026-05-08T17:52:00Z</time>
      </trkpt>
      <trkpt lat="46.448012171" lon="7.035459208">
        <ele>1720.300</ele>
        <time>2026-05-08T17:53:00Z</time>
      </trkpt>
      <trkpt lat="46.448036913" lon="7.035334085">
        <ele>1718.100</ele>
        <time>2026-05-08T17:54:00Z</time>
      </trkpt>
      <trkpt lat="46.448061655" lon="7.035208963">
        <ele>1716.900</ele>
        <time>2026-05-08T17:55:00Z</time>
      </trkpt>
      <trkpt lat="46.448087296" lon="7.035083834">
        <ele>1716.600</ele>
        <time>2026-05-08T17:56:00Z</time>
      </trkpt>
      <trkpt lat="46.448112038" lon="7.034958711">
        <ele>1716.800</ele>
        <time>2026-05-08T17:57:00Z</time>
      </trkpt>
      <trkpt lat="46.448137680" lon="7.034833581">
        <ele>1717.300</ele>
        <time>2026-05-08T17:58:00Z</time>
      </trkpt>
      <trkpt lat="46.448162426" lon="7.034709760">
        <ele>1717.700</ele>
        <time>2026-05-08T17:59:00Z</time>
      </trkpt>
      <trkpt lat="46.448188067" lon="7.034584630">
        <ele>1718.900</ele>
        <time>2026-05-08T18:00:00Z</time>
      </trkpt>
      <trkpt lat="46.448225184" lon="7.034398247">
        <ele>1721.100</ele>
        <time>2026-05-08T18:01:00Z</time>
      </trkpt>
      <trkpt lat="46.448282392" lon="7.034296307">
        <ele>1719.500</ele>
        <time>2026-05-08T18:02:00Z</time>
      </trkpt>
      <trkpt lat="46.448338706" lon="7.034195675">
        <ele>1719.600</ele>
        <time>2026-05-08T18:03:00Z</time>
      </trkpt>
      <trkpt lat="46.448406644" lon="7.034075434">
        <ele>1723.800</ele>
        <time>2026-05-08T18:04:00Z</time>
      </trkpt>
      <trkpt lat="46.448450318" lon="7.033961882">
        <ele>1726.000</ele>
        <time>2026-05-08T18:05:00Z</time>
      </trkpt>
      <trkpt lat="46.448493992" lon="7.033848329">
        <ele>1729.300</ele>
        <time>2026-05-08T18:06:00Z</time>
      </trkpt>
      <trkpt lat="46.448522517" lon="7.033775236">
        <ele>1734.200</ele>
        <time>2026-05-08T18:07:00Z</time>
      </trkpt>
      <trkpt lat="46.448489701" lon="7.033654447">
        <ele>1736.800</ele>
        <time>2026-05-08T18:08:00Z</time>
      </trkpt>
      <trkpt lat="46.448455985" lon="7.033533665">
        <ele>1737.200</ele>
        <time>2026-05-08T18:09:00Z</time>
      </trkpt>
      <trkpt lat="46.448416790" lon="7.033390800">
        <ele>1734.000</ele>
        <time>2026-05-08T18:10:00Z</time>
      </trkpt>
      <trkpt lat="46.448503014" lon="7.033352412">
        <ele>1741.600</ele>
        <time>2026-05-08T18:11:00Z</time>
      </trkpt>
      <trkpt lat="46.448589237" lon="7.033314025">
        <ele>1751.400</ele>
        <time>2026-05-08T18:12:00Z</time>
      </trkpt>
      <trkpt lat="46.448674557" lon="7.033274344">
        <ele>1761.700</ele>
        <time>2026-05-08T18:13:00Z</time>
      </trkpt>
      <trkpt lat="46.448781441" lon="7.033226694">
        <ele>1789.400</ele>
        <time>2026-05-08T18:14:00Z</time>
      </trkpt>
      <trkpt lat="46.448840464" lon="7.033128644">
        <ele>1803.400</ele>
        <time>2026-05-08T18:15:00Z</time>
      </trkpt>
      <trkpt lat="46.448910206" lon="7.033009689">
        <ele>1808.800</ele>
        <time>2026-05-08T18:16:00Z</time>
      </trkpt>
      <trkpt lat="46.448890858" lon="7.032882292">
        <ele>1810.400</ele>
        <time>2026-05-08T18:17:00Z</time>
      </trkpt>
      <trkpt lat="46.448873385" lon="7.032775704">
        <ele>1815.100</ele>
        <time>2026-05-08T18:18:00Z</time>
      </trkpt>
      <trkpt lat="46.448784288" lon="7.032764660">
        <ele>1816.700</ele>
        <time>2026-05-08T18:19:00Z</time>
      </trkpt>
      <trkpt lat="46.448644788" lon="7.032746186">
        <ele>1817.700</ele>
        <time>2026-05-08T18:20:00Z</time>
      </trkpt>
      <trkpt lat="46.448731936" lon="7.032715598">
        <ele>1814.400</ele>
        <time>2026-05-08T18:21:00Z</time>
      </trkpt>
      <trkpt lat="46.448819984" lon="7.032685002">
        <ele>1809.400</ele>
        <time>2026-05-08T18:22:00Z</time>
      </trkpt>
      <trkpt lat="46.448907132" lon="7.032654414">
        <ele>1804.600</ele>
        <time>2026-05-08T18:23:00Z</time>
      </trkpt>
      <trkpt lat="46.448971820" lon="7.032631803">
        <ele>1802.100</ele>
        <time>2026-05-08T18:24:00Z</time>
      </trkpt>
      <trkpt lat="46.448993862" lon="7.032757880">
        <ele>1806.300</ele>
        <time>2026-05-08T18:25:00Z</time>
      </trkpt>
      <trkpt lat="46.449015011" lon="7.032885265">
        <ele>1812.100</ele>
        <time>2026-05-08T18:26:00Z</time>
      </trkpt>
      <trkpt lat="46.449036154" lon="7.033011348">
        <ele>1817.400</ele>
        <time>2026-05-08T18:27:00Z</time>
      </trkpt>
      <trkpt lat="46.449057297" lon="7.033137432">
        <ele>1822.100</ele>
        <time>2026-05-08T18:28:00Z</time>
      </trkpt>
      <trkpt lat="46.449072922" lon="7.033229719">
        <ele>1828.600</ele>
        <time>2026-05-08T18:29:00Z</time>
      </trkpt>
      <trkpt lat="46.449081484" lon="7.033359802">
        <ele>1832.700</ele>
        <time>2026-05-08T18:30:00Z</time>
      </trkpt>
      <trkpt lat="46.449090943" lon="7.033488577">
        <ele>1839.600</ele>
        <time>2026-05-08T18:31:00Z</time>
      </trkpt>
      <trkpt lat="46.449099506" lon="7.033618660">
        <ele>1848.900</ele>
        <time>2026-05-08T18:32:00Z</time>
      </trkpt>
      <trkpt lat="46.449110960" lon="7.033802082">
        <ele>1859.800</ele>
        <time>2026-05-08T18:33:00Z</time>
      </trkpt>
      <trkpt lat="46.449193900" lon="7.033852218">
        <ele>1858.700</ele>
        <time>2026-05-08T18:34:00Z</time>
      </trkpt>
      <trkpt lat="46.449276844" lon="7.033903655">
        <ele>1857.900</ele>
        <time>2026-05-08T18:35:00Z</time>
      </trkpt>
      <trkpt lat="46.449359785" lon="7.033953791">
        <ele>1859.400</ele>
        <time>2026-05-08T18:36:00Z</time>
      </trkpt>
      <trkpt lat="46.449455348" lon="7.034011643">
        <ele>1866.300</ele>
        <time>2026-05-08T18:37:00Z</time>
      </trkpt>
      <trkpt lat="46.449402648" lon="7.034116156">
        <ele>1871.900</ele>
        <time>2026-05-08T18:38:00Z</time>
      </trkpt>
      <trkpt lat="46.449349952" lon="7.034221970">
        <ele>1879.500</ele>
        <time>2026-05-08T18:39:00Z</time>
      </trkpt>
      <trkpt lat="46.449312448" lon="7.034299039">
        <ele>1889.400</ele>
        <time>2026-05-08T18:40:00Z</time>
      </trkpt>
      <trkpt lat="46.449375743" lon="7.034389669">
        <ele>1893.700</ele>
        <time>2026-05-08T18:41:00Z</time>
      </trkpt>
      <trkpt lat="46.449420954" lon="7.034454405">
        <ele>1901.200</ele>
        <time>2026-05-08T18:42:00Z</time>
      </trkpt>
      <trkpt lat="46.449386301" lon="7.034574400">
        <ele>1908.900</ele>
        <time>2026-05-08T18:43:00Z</time>
      </trkpt>
      <trkpt lat="46.449352547" lon="7.034694389">
        <ele>1918.300</ele>
        <time>2026-05-08T18:44:00Z</time>
      </trkpt>
      <trkpt lat="46.449318798" lon="7.034815679">
        <ele>1927.700</ele>
        <time>2026-05-08T18:45:00Z</time>
      </trkpt>
      <trkpt lat="46.449269942" lon="7.034989140">
        <ele>1939.200</ele>
        <time>2026-05-08T18:46:00Z</time>
      </trkpt>
      <trkpt lat="46.449354649" lon="7.035030155">
        <ele>1940.800</ele>
        <time>2026-05-08T18:47:00Z</time>
      </trkpt>
      <trkpt lat="46.449440255" lon="7.035071163">
        <ele>1941.800</ele>
        <time>2026-05-08T18:48:00Z</time>
      </trkpt>
      <trkpt lat="46.449525865" lon="7.035113472">
        <ele>1939.700</ele>
        <time>2026-05-08T18:49:00Z</time>
      </trkpt>
      <trkpt lat="46.449639407" lon="7.035168588">
        <ele>1936.800</ele>
        <time>2026-05-08T18:50:00Z</time>
      </trkpt>
      <trkpt lat="46.449681195" lon="7.035282806">
        <ele>1940.500</ele>
        <time>2026-05-08T18:51:00Z</time>
      </trkpt>
      <trkpt lat="46.449723884" lon="7.035397018">
        <ele>1945.100</ele>
        <time>2026-05-08T18:52:00Z</time>
      </trkpt>
      <trkpt lat="46.449766576" lon="7.035512532">
        <ele>1949.400</ele>
        <time>2026-05-08T18:53:00Z</time>
      </trkpt>
      <trkpt lat="46.449802907" lon="7.035609873">
        <ele>1955.000</ele>
        <time>2026-05-08T18:54:00Z</time>
      </trkpt>
      <trkpt lat="46.449871569" lon="7.035692655">
        <ele>1957.400</ele>
        <time>2026-05-08T18:55:00Z</time>
      </trkpt>
      <trkpt lat="46.449941132" lon="7.035775432">
        <ele>1961.100</ele>
        <time>2026-05-08T18:56:00Z</time>
      </trkpt>
      <trkpt lat="46.450046829" lon="7.035900889">
        <ele>1963.000</ele>
        <time>2026-05-08T18:57:00Z</time>
      </trkpt>
      <trkpt lat="46.450135077" lon="7.035926261">
        <ele>1957.500</ele>
        <time>2026-05-08T18:58:00Z</time>
      </trkpt>
      <trkpt lat="46.450223324" lon="7.035951632">
        <ele>1951.600</ele>
        <time>2026-05-08T18:59:00Z</time>
      </trkpt>
      <trkpt lat="46.450311573" lon="7.035977005">
        <ele>1951.200</ele>
        <time>2026-05-08T19:00:00Z</time>
      </trkpt>
      <trkpt lat="46.450399821" lon="7.036002377">
        <ele>1950.700</ele>
        <time>2026-05-08T19:01:00Z</time>
      </trkpt>
      <trkpt lat="46.450488069" lon="7.036027749">
        <ele>1947.300</ele>
        <time>2026-05-08T19:02:00Z</time>
      </trkpt>
      <trkpt lat="46.450576317" lon="7.036053122">
        <ele>1945.000</ele>
        <time>2026-05-08T19:03:00Z</time>
      </trkpt>
      <trkpt lat="46.450641154" lon="7.036072161">
        <ele>1944.000</ele>
        <time>2026-05-08T19:04:00Z</time>
      </trkpt>
      <trkpt lat="46.450731085" lon="7.036064984">
        <ele>1942.300</ele>
        <time>2026-05-08T19:05:00Z</time>
      </trkpt>
      <trkpt lat="46.450820117" lon="7.036057813">
        <ele>1939.400</ele>
        <time>2026-05-08T19:06:00Z</time>
      </trkpt>
      <trkpt lat="46.450910053" lon="7.036051936">
        <ele>1935.800</ele>
        <time>2026-05-08T19:07:00Z</time>
      </trkpt>
      <trkpt lat="46.450999984" lon="7.036044759">
        <ele>1931.800</ele>
        <time>2026-05-08T19:08:00Z</time>
      </trkpt>
      <trkpt lat="46.451089919" lon="7.036038883">
        <ele>1927.000</ele>
        <time>2026-05-08T19:09:00Z</time>
      </trkpt>
      <trkpt lat="46.451179850" lon="7.036031704">
        <ele>1921.500</ele>
        <time>2026-05-08T19:10:00Z</time>
      </trkpt>
      <trkpt lat="46.451269785" lon="7.036025828">
        <ele>1915.700</ele>
        <time>2026-05-08T19:11:00Z</time>
      </trkpt>
      <trkpt lat="46.451359716" lon="7.036018650">
        <ele>1910.200</ele>
        <time>2026-05-08T19:12:00Z</time>
      </trkpt>
      <trkpt lat="46.451449651" lon="7.036012773">
        <ele>1904.500</ele>
        <time>2026-05-08T19:13:00Z</time>
      </trkpt>
      <trkpt lat="46.451539582" lon="7.036005595">
        <ele>1898.200</ele>
        <time>2026-05-08T19:14:00Z</time>
      </trkpt>
      <trkpt lat="46.451630417" lon="7.035999711">
        <ele>1891.700</ele>
        <time>2026-05-08T19:15:00Z</time>
      </trkpt>
      <trkpt lat="46.451698189" lon="7.036085107">
        <ele>1891.800</ele>
        <time>2026-05-08T19:16:00Z</time>
      </trkpt>
      <trkpt lat="46.451765061" lon="7.036170510">
        <ele>1893.300</ele>
        <time>2026-05-08T19:17:00Z</time>
      </trkpt>
      <trkpt lat="46.451865365" lon="7.036297313">
        <ele>1895.000</ele>
        <time>2026-05-08T19:18:00Z</time>
      </trkpt>
      <trkpt lat="46.451933137" lon="7.036382710">
        <ele>1895.000</ele>
        <time>2026-05-08T19:19:00Z</time>
      </trkpt>
      <trkpt lat="46.452000009" lon="7.036468114">
        <ele>1898.000</ele>
        <time>2026-05-08T19:20:00Z</time>
      </trkpt>
      <trkpt lat="46.452100313" lon="7.036594918">
        <ele>1901.200</ele>
        <time>2026-05-08T19:21:00Z</time>
      </trkpt>
      <trkpt lat="46.452190272" lon="7.036595550">
        <ele>1898.400</ele>
        <time>2026-05-08T19:22:00Z</time>
      </trkpt>
      <trkpt lat="46.452280235" lon="7.036597484">
        <ele>1894.700</ele>
        <time>2026-05-08T19:23:00Z</time>
      </trkpt>
      <trkpt lat="46.452370199" lon="7.036599417">
        <ele>1891.500</ele>
        <time>2026-05-08T19:24:00Z</time>
      </trkpt>
      <trkpt lat="46.452460158" lon="7.036600049">
        <ele>1887.500</ele>
        <time>2026-05-08T19:25:00Z</time>
      </trkpt>
      <trkpt lat="46.452550122" lon="7.036601983">
        <ele>1883.400</ele>
        <time>2026-05-08T19:26:00Z</time>
      </trkpt>
      <trkpt lat="46.452631089" lon="7.036603983">
        <ele>1878.200</ele>
        <time>2026-05-08T19:27:00Z</time>
      </trkpt>
      <trkpt lat="46.452717570" lon="7.036638482">
        <ele>1875.500</ele>
        <time>2026-05-08T19:28:00Z</time>
      </trkpt>
      <trkpt lat="46.452804056" lon="7.036674281">
        <ele>1873.100</ele>
        <time>2026-05-08T19:29:00Z</time>
      </trkpt>
      <trkpt lat="46.452890542" lon="7.036710082">
        <ele>1872.200</ele>
        <time>2026-05-08T19:30:00Z</time>
      </trkpt>
      <trkpt lat="46.452977028" lon="7.036745882">
        <ele>1871.300</ele>
        <time>2026-05-08T19:31:00Z</time>
      </trkpt>
      <trkpt lat="46.453063509" lon="7.036780381">
        <ele>1868.600</ele>
        <time>2026-05-08T19:32:00Z</time>
      </trkpt>
      <trkpt lat="46.453149994" lon="7.036816181">
        <ele>1864.100</ele>
        <time>2026-05-08T19:33:00Z</time>
      </trkpt>
      <trkpt lat="46.453236480" lon="7.036851981">
        <ele>1858.400</ele>
        <time>2026-05-08T19:34:00Z</time>
      </trkpt>
      <trkpt lat="46.453322964" lon="7.036887781">
        <ele>1851.700</ele>
        <time>2026-05-08T19:35:00Z</time>
      </trkpt>
      <trkpt lat="46.453378818" lon="7.036910793">
        <ele>1842.800</ele>
        <time>2026-05-08T19:36:00Z</time>
      </trkpt>
      <trkpt lat="46.453467845" lon="7.036902321">
        <ele>1839.000</ele>
        <time>2026-05-08T19:37:00Z</time>
      </trkpt>
      <trkpt lat="46.453557776" lon="7.036895144">
        <ele>1833.800</ele>
        <time>2026-05-08T19:38:00Z</time>
      </trkpt>
      <trkpt lat="46.453647702" lon="7.036886666">
        <ele>1829.500</ele>
        <time>2026-05-08T19:39:00Z</time>
      </trkpt>
      <trkpt lat="46.453737633" lon="7.036879489">
        <ele>1825.600</ele>
        <time>2026-05-08T19:40:00Z</time>
      </trkpt>
      <trkpt lat="46.453827560" lon="7.036871011">
        <ele>1821.800</ele>
        <time>2026-05-08T19:41:00Z</time>
      </trkpt>
      <trkpt lat="46.453917491" lon="7.036863834">
        <ele>1818.300</ele>
        <time>2026-05-08T19:42:00Z</time>
      </trkpt>
      <trkpt lat="46.454035299" lon="7.036853847">
        <ele>1813.700</ele>
        <time>2026-05-08T19:43:00Z</time>
      </trkpt>
      <trkpt lat="46.454125263" lon="7.036855781">
        <ele>1812.100</ele>
        <time>2026-05-08T19:44:00Z</time>
      </trkpt>
      <trkpt lat="46.454215227" lon="7.036857715">
        <ele>1809.600</ele>
        <time>2026-05-08T19:45:00Z</time>
      </trkpt>
      <trkpt lat="46.454305195" lon="7.036860951">
        <ele>1806.500</ele>
        <time>2026-05-08T19:46:00Z</time>
      </trkpt>
      <trkpt lat="46.454395158" lon="7.036862885">
        <ele>1803.000</ele>
        <time>2026-05-08T19:47:00Z</time>
      </trkpt>
      <trkpt lat="46.454484222" lon="7.036864826">
        <ele>1799.500</ele>
        <time>2026-05-08T19:48:00Z</time>
      </trkpt>
      <trkpt lat="46.454574191" lon="7.036868061">
        <ele>1796.400</ele>
        <time>2026-05-08T19:49:00Z</time>
      </trkpt>
      <trkpt lat="46.454664154" lon="7.036869996">
        <ele>1794.100</ele>
        <time>2026-05-08T19:50:00Z</time>
      </trkpt>
      <trkpt lat="46.454754118" lon="7.036871930">
        <ele>1792.000</ele>
        <time>2026-05-08T19:51:00Z</time>
      </trkpt>
      <trkpt lat="46.454844086" lon="7.036875166">
        <ele>1789.100</ele>
        <time>2026-05-08T19:52:00Z</time>
      </trkpt>
      <trkpt lat="46.454934050" lon="7.036877100">
        <ele>1786.400</ele>
        <time>2026-05-08T19:53:00Z</time>
      </trkpt>
      <trkpt lat="46.455024014" lon="7.036879034">
        <ele>1784.300</ele>
        <time>2026-05-08T19:54:00Z</time>
      </trkpt>
      <trkpt lat="46.455113982" lon="7.036882270">
        <ele>1783.000</ele>
        <time>2026-05-08T19:55:00Z</time>
      </trkpt>
      <trkpt lat="46.455186855" lon="7.036884332">
        <ele>1781.500</ele>
        <time>2026-05-08T19:56:00Z</time>
      </trkpt>
      <trkpt lat="46.455267611" lon="7.036826461">
        <ele>1779.700</ele>
        <time>2026-05-08T19:57:00Z</time>
      </trkpt>
      <trkpt lat="46.455347467" lon="7.036768596">
        <ele>1777.300</ele>
        <time>2026-05-08T19:58:00Z</time>
      </trkpt>
      <trkpt lat="46.455428223" lon="7.036710724">
        <ele>1775.200</ele>
        <time>2026-05-08T19:59:00Z</time>
      </trkpt>
      <trkpt lat="46.455508983" lon="7.036654154">
        <ele>1772.700</ele>
        <time>2026-05-08T20:00:00Z</time>
      </trkpt>
      <trkpt lat="46.455589738" lon="7.036596282">
        <ele>1770.100</ele>
        <time>2026-05-08T20:01:00Z</time>
      </trkpt>
      <trkpt lat="46.455670494" lon="7.036538410">
        <ele>1767.900</ele>
        <time>2026-05-08T20:02:00Z</time>
      </trkpt>
      <trkpt lat="46.455751250" lon="7.036480537">
        <ele>1766.000</ele>
        <time>2026-05-08T20:03:00Z</time>
      </trkpt>
      <trkpt lat="46.455832010" lon="7.036423966">
        <ele>1763.900</ele>
        <time>2026-05-08T20:04:00Z</time>
      </trkpt>
      <trkpt lat="46.455912765" lon="7.036366094">
        <ele>1761.800</ele>
        <time>2026-05-08T20:05:00Z</time>
      </trkpt>
      <trkpt lat="46.455993521" lon="7.036308221">
        <ele>1759.600</ele>
        <time>2026-05-08T20:06:00Z</time>
      </trkpt>
      <trkpt lat="46.456074276" lon="7.036250348">
        <ele>1758.100</ele>
        <time>2026-05-08T20:07:00Z</time>
      </trkpt>
      <trkpt lat="46.456155037" lon="7.036193777">
        <ele>1756.800</ele>
        <time>2026-05-08T20:08:00Z</time>
      </trkpt>
      <trkpt lat="46.456235792" lon="7.036135904">
        <ele>1755.500</ele>
        <time>2026-05-08T20:09:00Z</time>
      </trkpt>
      <trkpt lat="46.456316547" lon="7.036078030">
        <ele>1754.100</ele>
        <time>2026-05-08T20:10:00Z</time>
      </trkpt>
      <trkpt lat="46.456396404" lon="7.036020163">
        <ele>1752.500</ele>
        <time>2026-05-08T20:11:00Z</time>
      </trkpt>
      <trkpt lat="46.456477163" lon="7.035963591">
        <ele>1750.900</ele>
        <time>2026-05-08T20:12:00Z</time>
      </trkpt>
      <trkpt lat="46.456557919" lon="7.035905717">
        <ele>1749.500</ele>
        <time>2026-05-08T20:13:00Z</time>
      </trkpt>
      <trkpt lat="46.456638674" lon="7.035847843">
        <ele>1748.100</ele>
        <time>2026-05-08T20:14:00Z</time>
      </trkpt>
      <trkpt lat="46.456719430" lon="7.035789968">
        <ele>1746.300</ele>
        <time>2026-05-08T20:15:00Z</time>
      </trkpt>
      <trkpt lat="46.456800189" lon="7.035733396">
        <ele>1743.900</ele>
        <time>2026-05-08T20:16:00Z</time>
      </trkpt>
      <trkpt lat="46.456880944" lon="7.035675521">
        <ele>1741.100</ele>
        <time>2026-05-08T20:17:00Z</time>
      </trkpt>
      <trkpt lat="46.456961700" lon="7.035617646">
        <ele>1738.700</ele>
        <time>2026-05-08T20:18:00Z</time>
      </trkpt>
      <trkpt lat="46.457042455" lon="7.035559771">
        <ele>1736.500</ele>
        <time>2026-05-08T20:19:00Z</time>
      </trkpt>
      <trkpt lat="46.457123214" lon="7.035503197">
        <ele>1734.300</ele>
        <time>2026-05-08T20:20:00Z</time>
      </trkpt>
      <trkpt lat="46.457178847" lon="7.035463732">
        <ele>1731.400</ele>
        <time>2026-05-08T20:21:00Z</time>
      </trkpt>
      <trkpt lat="46.457257784" lon="7.035400664">
        <ele>1729.900</ele>
        <time>2026-05-08T20:22:00Z</time>
      </trkpt>
      <trkpt lat="46.457336726" lon="7.035338897">
        <ele>1727.400</ele>
        <time>2026-05-08T20:23:00Z</time>
      </trkpt>
      <trkpt lat="46.457415668" lon="7.035277129">
        <ele>1724.400</ele>
        <time>2026-05-08T20:24:00Z</time>
      </trkpt>
      <trkpt lat="46.457494610" lon="7.035215362">
        <ele>1721.400</ele>
        <time>2026-05-08T20:25:00Z</time>
      </trkpt>
      <trkpt lat="46.457573551" lon="7.035153594">
        <ele>1718.500</ele>
        <time>2026-05-08T20:26:00Z</time>
      </trkpt>
      <trkpt lat="46.457653388" lon="7.035090518">
        <ele>1715.900</ele>
        <time>2026-05-08T20:27:00Z</time>
      </trkpt>
      <trkpt lat="46.457732330" lon="7.035028750">
        <ele>1713.400</ele>
        <time>2026-05-08T20:28:00Z</time>
      </trkpt>
      <trkpt lat="46.457811271" lon="7.034966981">
        <ele>1710.800</ele>
        <time>2026-05-08T20:29:00Z</time>
      </trkpt>
      <trkpt lat="46.457890213" lon="7.034905212">
        <ele>1708.600</ele>
        <time>2026-05-08T20:30:00Z</time>
      </trkpt>
      <trkpt lat="46.457969155" lon="7.034843444">
        <ele>1706.600</ele>
        <time>2026-05-08T20:31:00Z</time>
      </trkpt>
      <trkpt lat="46.458048096" lon="7.034781675">
        <ele>1704.500</ele>
        <time>2026-05-08T20:32:00Z</time>
      </trkpt>
      <trkpt lat="46.458127933" lon="7.034718598">
        <ele>1702.300</ele>
        <time>2026-05-08T20:33:00Z</time>
      </trkpt>
      <trkpt lat="46.458206875" lon="7.034656829">
        <ele>1699.900</ele>
        <time>2026-05-08T20:34:00Z</time>
      </trkpt>
      <trkpt lat="46.458285816" lon="7.034595060">
        <ele>1697.200</ele>
        <time>2026-05-08T20:35:00Z</time>
      </trkpt>
      <trkpt lat="46.458364758" lon="7.034533290">
        <ele>1694.200</ele>
        <time>2026-05-08T20:36:00Z</time>
      </trkpt>
      <trkpt lat="46.458443699" lon="7.034471520">
        <ele>1690.700</ele>
        <time>2026-05-08T20:37:00Z</time>
      </trkpt>
      <trkpt lat="46.458523539" lon="7.034409743">
        <ele>1686.700</ele>
        <time>2026-05-08T20:38:00Z</time>
      </trkpt>
      <trkpt lat="46.458602476" lon="7.034346671">
        <ele>1682.400</ele>
        <time>2026-05-08T20:39:00Z</time>
      </trkpt>
      <trkpt lat="46.458681417" lon="7.034284901">
        <ele>1678.000</ele>
        <time>2026-05-08T20:40:00Z</time>
      </trkpt>
      <trkpt lat="46.458760357" lon="7.034223130">
        <ele>1673.700</ele>
        <time>2026-05-08T20:41:00Z</time>
      </trkpt>
      <trkpt lat="46.458839299" lon="7.034161359">
        <ele>1669.300</ele>
        <time>2026-05-08T20:42:00Z</time>
      </trkpt>
      <trkpt lat="46.458918239" lon="7.034099588">
        <ele>1664.900</ele>
        <time>2026-05-08T20:43:00Z</time>
      </trkpt>
      <trkpt lat="46.458998075" lon="7.034036508">
        <ele>1660.500</ele>
        <time>2026-05-08T20:44:00Z</time>
      </trkpt>
      <trkpt lat="46.459077016" lon="7.033974737">
        <ele>1656.200</ele>
        <time>2026-05-08T20:45:00Z</time>
      </trkpt>
      <trkpt lat="46.459155957" lon="7.033912966">
        <ele>1651.600</ele>
        <time>2026-05-08T20:46:00Z</time>
      </trkpt>
      <trkpt lat="46.459234898" lon="7.033851194">
        <ele>1647.100</ele>
        <time>2026-05-08T20:47:00Z</time>
      </trkpt>
      <trkpt lat="46.459313838" lon="7.033789421">
        <ele>1642.600</ele>
        <time>2026-05-08T20:48:00Z</time>
      </trkpt>
      <trkpt lat="46.459392779" lon="7.033727650">
        <ele>1638.100</ele>
        <time>2026-05-08T20:49:00Z</time>
      </trkpt>
      <trkpt lat="46.459472614" lon="7.033664569">
        <ele>1633.800</ele>
        <time>2026-05-08T20:50:00Z</time>
      </trkpt>
      <trkpt lat="46.459551555" lon="7.033602796">
        <ele>1629.600</ele>
        <time>2026-05-08T20:51:00Z</time>
      </trkpt>
      <trkpt lat="46.459630495" lon="7.033541024">
        <ele>1625.800</ele>
        <time>2026-05-08T20:52:00Z</time>
      </trkpt>
      <trkpt lat="46.459709436" lon="7.033479251">
        <ele>1622.400</ele>
        <time>2026-05-08T20:53:00Z</time>
      </trkpt>
      <trkpt lat="46.459788377" lon="7.033417478">
        <ele>1619.100</ele>
        <time>2026-05-08T20:54:00Z</time>
      </trkpt>
      <trkpt lat="46.459867313" lon="7.033354403">
        <ele>1615.700</ele>
        <time>2026-05-08T20:55:00Z</time>
      </trkpt>
      <trkpt lat="46.459947153" lon="7.033292623">
        <ele>1612.300</ele>
        <time>2026-05-08T20:56:00Z</time>
      </trkpt>
      <trkpt lat="46.460026094" lon="7.033230850">
        <ele>1609.000</ele>
        <time>2026-05-08T20:57:00Z</time>
      </trkpt>
      <trkpt lat="46.460105034" lon="7.033169076">
        <ele>1606.000</ele>
        <time>2026-05-08T20:58:00Z</time>
      </trkpt>
      <trkpt lat="46.460183975" lon="7.033107302">
        <ele>1603.100</ele>
        <time>2026-05-08T20:59:00Z</time>
      </trkpt>
      <trkpt lat="46.460262915" lon="7.033045528">
        <ele>1600.200</ele>
        <time>2026-05-08T21:00:00Z</time>
      </trkpt>
      <trkpt lat="46.460341851" lon="7.032982453">
        <ele>1597.500</ele>
        <time>2026-05-08T21:01:00Z</time>
      </trkpt>
      <trkpt lat="46.460421691" lon="7.032920672">
        <ele>1595.100</ele>
        <time>2026-05-08T21:02:00Z</time>
      </trkpt>
      <trkpt lat="46.460500632" lon="7.032858897">
        <ele>1593.000</ele>
        <time>2026-05-08T21:03:00Z</time>
      </trkpt>
      <trkpt lat="46.460579573" lon="7.032797123">
        <ele>1591.100</ele>
        <time>2026-05-08T21:04:00Z</time>
      </trkpt>
      <trkpt lat="46.460658513" lon="7.032735348">
        <ele>1589.400</ele>
        <time>2026-05-08T21:05:00Z</time>
      </trkpt>
      <trkpt lat="46.460737449" lon="7.032672272">
        <ele>1587.900</ele>
        <time>2026-05-08T21:06:00Z</time>
      </trkpt>
      <trkpt lat="46.460816390" lon="7.032610497">
        <ele>1586.500</ele>
        <time>2026-05-08T21:07:00Z</time>
      </trkpt>
      <trkpt lat="46.460896230" lon="7.032548715">
        <ele>1584.900</ele>
        <time>2026-05-08T21:08:00Z</time>
      </trkpt>
      <trkpt lat="46.460970505" lon="7.032440112">
        <ele>1584.100</ele>
        <time>2026-05-08T21:09:00Z</time>
      </trkpt>
      <trkpt lat="46.460970332" lon="7.032440232">
        <ele>1583.780</ele>
        <time>2026-05-08T21:10:00Z</time>
      </trkpt>
      <trkpt lat="46.460970332" lon="7.032440232">
        <ele>1583.960</ele>
        <time>2026-05-08T21:11:00Z</time>
      </trkpt>
      <trkpt lat="46.461020332" lon="7.032420232">
        <ele>1583.730</ele>
        <time>2026-05-08T21:12:00Z</time>
      </trkpt>
      <trkpt lat="46.461070332" lon="7.032410232">
        <ele>1583.600</ele>
        <time>2026-05-08T21:13:00Z</time>
      </trkpt>
      <trkpt lat="46.461110332" lon="7.032380232">
        <ele>1583.140</ele>
        <time>2026-05-08T21:14:00Z</time>
      </trkpt>
      <trkpt lat="46.461150331" lon="7.032330232">
        <ele>1582.770</ele>
        <time>2026-05-08T21:15:00Z</time>
      </trkpt>
      <trkpt lat="46.461170332" lon="7.032300232">
        <ele>1582.950</ele>
        <time>2026-05-08T21:16:00Z</time>
      </trkpt>
      <trkpt lat="46.461190332" lon="7.032260232">
        <ele>1583.180</ele>
        <time>2026-05-08T21:17:00Z</time>
      </trkpt>
      <trkpt lat="46.461200332" lon="7.032200232">
        <ele>1583.640</ele>
        <time>2026-05-08T21:18:00Z</time>
      </trkpt>
      <trkpt lat="46.461210332" lon="7.032130232">
        <ele>1584.180</ele>
        <time>2026-05-08T21:19:00Z</time>
      </trkpt>
      <trkpt lat="46.461220332" lon="7.032070232">
        <ele>1584.790</ele>
        <time>2026-05-08T21:20:00Z</time>
      </trkpt>
      <trkpt lat="46.461250332" lon="7.032000232">
        <ele>1585.280</ele>
        <time>2026-05-08T21:21:00Z</time>
      </trkpt>
      <trkpt lat="46.461310332" lon="7.031870232">
        <ele>1586.520</ele>
        <time>2026-05-08T21:22:00Z</time>
      </trkpt>
      <trkpt lat="46.461330332" lon="7.031770232">
        <ele>1587.370</ele>
        <time>2026-05-08T21:23:00Z</time>
      </trkpt>
      <trkpt lat="46.461390333" lon="7.031560232">
        <ele>1589.160</ele>
        <time>2026-05-08T21:24:00Z</time>
      </trkpt>
      <trkpt lat="46.461490334" lon="7.031110233">
        <ele>1592.430</ele>
        <time>2026-05-08T21:25:00Z</time>
      </trkpt>
      <trkpt lat="46.461530334" lon="7.031000233">
        <ele>1593.520</ele>
        <time>2026-05-08T21:26:00Z</time>
      </trkpt>
      <trkpt lat="46.461580334" lon="7.030870233">
        <ele>1594.900</ele>
        <time>2026-05-08T21:27:00Z</time>
      </trkpt>
      <trkpt lat="46.461630334" lon="7.030690234">
        <ele>1597.050</ele>
        <time>2026-05-08T21:28:00Z</time>
      </trkpt>
      <trkpt lat="46.461650334" lon="7.030670234">
        <ele>1597.280</ele>
        <time>2026-05-08T21:29:00Z</time>
      </trkpt>
      <trkpt lat="46.461660334" lon="7.030670234">
        <ele>1597.300</ele>
        <time>2026-05-08T21:30:00Z</time>
      </trkpt>
      <trkpt lat="46.461660334" lon="7.030670234">
        <ele>1597.310</ele>
        <time>2026-05-08T21:31:00Z</time>
      </trkpt>
      <trkpt lat="46.461700335" lon="7.030560234">
        <ele>1597.920</ele>
        <time>2026-05-08T21:32:00Z</time>
      </trkpt>
      <trkpt lat="46.461740335" lon="7.030480233">
        <ele>1598.350</ele>
        <time>2026-05-08T21:33:00Z</time>
      </trkpt>
      <trkpt lat="46.461700335" lon="7.030560234">
        <ele>1597.920</ele>
        <time>2026-05-08T21:34:00Z</time>
      </trkpt>
      <trkpt lat="46.461660334" lon="7.030670234">
        <ele>1597.310</ele>
        <time>2026-05-08T21:35:00Z</time>
      </trkpt>
      <trkpt lat="46.461660334" lon="7.030670234">
        <ele>1597.300</ele>
        <time>2026-05-08T21:36:00Z</time>
      </trkpt>
      <trkpt lat="46.461650334" lon="7.030670234">
        <ele>1597.280</ele>
        <time>2026-05-08T21:37:00Z</time>
      </trkpt>
      <trkpt lat="46.461630334" lon="7.030660233">
        <ele>1596.900</ele>
        <time>2026-05-08T21:38:00Z</time>
      </trkpt>
      <trkpt lat="46.461630334" lon="7.030650233">
        <ele>1596.920</ele>
        <time>2026-05-08T21:39:00Z</time>
      </trkpt>
      <trkpt lat="46.461600334" lon="7.030580233">
        <ele>1596.300</ele>
        <time>2026-05-08T21:40:00Z</time>
      </trkpt>
      <trkpt lat="46.461570334" lon="7.030390233">
        <ele>1594.800</ele>
        <time>2026-05-08T21:41:00Z</time>
      </trkpt>
      <trkpt lat="46.461520334" lon="7.030260233">
        <ele>1593.470</ele>
        <time>2026-05-08T21:42:00Z</time>
      </trkpt>
      <trkpt lat="46.461450333" lon="7.030050233">
        <ele>1591.300</ele>
        <time>2026-05-08T21:43:00Z</time>
      </trkpt>
      <trkpt lat="46.461430333" lon="7.029970232">
        <ele>1590.550</ele>
        <time>2026-05-08T21:44:00Z</time>
      </trkpt>
      <trkpt lat="46.461400333" lon="7.029880233">
        <ele>1589.700</ele>
        <time>2026-05-08T21:45:00Z</time>
      </trkpt>
      <trkpt lat="46.461370333" lon="7.029790232">
        <ele>1588.800</ele>
        <time>2026-05-08T21:46:00Z</time>
      </trkpt>
      <trkpt lat="46.461290332" lon="7.029620232">
        <ele>1586.860</ele>
        <time>2026-05-08T21:47:00Z</time>
      </trkpt>
      <trkpt lat="46.461270332" lon="7.029560232">
        <ele>1586.200</ele>
        <time>2026-05-08T21:48:00Z</time>
      </trkpt>
      <trkpt lat="46.461270332" lon="7.029520232">
        <ele>1585.750</ele>
        <time>2026-05-08T21:49:00Z</time>
      </trkpt>
      <trkpt lat="46.461280332" lon="7.029490232">
        <ele>1585.500</ele>
        <time>2026-05-08T21:50:00Z</time>
      </trkpt>
      <trkpt lat="46.461300332" lon="7.029440232">
        <ele>1584.650</ele>
        <time>2026-05-08T21:51:00Z</time>
      </trkpt>
      <trkpt lat="46.461380331" lon="7.029310232">
        <ele>1582.800</ele>
        <time>2026-05-08T21:52:00Z</time>
      </trkpt>
      <trkpt lat="46.461390331" lon="7.029280231">
        <ele>1582.480</ele>
        <time>2026-05-08T21:53:00Z</time>
      </trkpt>
      <trkpt lat="46.461410332" lon="7.029230231">
        <ele>1581.900</ele>
        <time>2026-05-08T21:54:00Z</time>
      </trkpt>
      <trkpt lat="46.461430331" lon="7.029150231">
        <ele>1581.000</ele>
        <time>2026-05-08T21:55:00Z</time>
      </trkpt>
      <trkpt lat="46.461430331" lon="7.029120231">
        <ele>1580.680</ele>
        <time>2026-05-08T21:56:00Z</time>
      </trkpt>
      <trkpt lat="46.461430331" lon="7.028960231">
        <ele>1578.770</ele>
        <time>2026-05-08T21:57:00Z</time>
      </trkpt>
      <trkpt lat="46.461410331" lon="7.028840231">
        <ele>1577.300</ele>
        <time>2026-05-08T21:58:00Z</time>
      </trkpt>
      <trkpt lat="46.461370330" lon="7.028680230">
        <ele>1575.500</ele>
        <time>2026-05-08T21:59:00Z</time>
      </trkpt>
      <trkpt lat="46.461350330" lon="7.028620230">
        <ele>1574.660</ele>
        <time>2026-05-08T22:00:00Z</time>
      </trkpt>
      <trkpt lat="46.461330330" lon="7.028550230">
        <ele>1573.700</ele>
        <time>2026-05-08T22:01:00Z</time>
      </trkpt>
      <trkpt lat="46.461300329" lon="7.028440230">
        <ele>1572.200</ele>
        <time>2026-05-08T22:02:00Z</time>
      </trkpt>
      <trkpt lat="46.461280329" lon="7.028380230">
        <ele>1571.600</ele>
        <time>2026-05-08T22:03:00Z</time>
      </trkpt>
      <trkpt lat="46.461240329" lon="7.028260230">
        <ele>1569.960</ele>
        <time>2026-05-08T22:04:00Z</time>
      </trkpt>
      <trkpt lat="46.461230329" lon="7.028230230">
        <ele>1569.500</ele>
        <time>2026-05-08T22:05:00Z</time>
      </trkpt>
      <trkpt lat="46.461180328" lon="7.028060229">
        <ele>1567.200</ele>
        <time>2026-05-08T22:06:00Z</time>
      </trkpt>
      <trkpt lat="46.461180328" lon="7.028020229">
        <ele>1566.820</ele>
        <time>2026-05-08T22:07:00Z</time>
      </trkpt>
      <trkpt lat="46.461170328" lon="7.027920229">
        <ele>1565.580</ele>
        <time>2026-05-08T22:08:00Z</time>
      </trkpt>
      <trkpt lat="46.461160328" lon="7.027880229">
        <ele>1565.100</ele>
        <time>2026-05-08T22:09:00Z</time>
      </trkpt>
      <trkpt lat="46.461170328" lon="7.027770229">
        <ele>1563.870</ele>
        <time>2026-05-08T22:10:00Z</time>
      </trkpt>
      <trkpt lat="46.461180327" lon="7.027700229">
        <ele>1562.900</ele>
        <time>2026-05-08T22:11:00Z</time>
      </trkpt>
      <trkpt lat="46.461210327" lon="7.027470228">
        <ele>1560.100</ele>
        <time>2026-05-08T22:12:00Z</time>
      </trkpt>
      <trkpt lat="46.461200327" lon="7.027400228">
        <ele>1559.300</ele>
        <time>2026-05-08T22:13:00Z</time>
      </trkpt>
      <trkpt lat="46.461190327" lon="7.027390228">
        <ele>1559.200</ele>
        <time>2026-05-08T22:14:00Z</time>
      </trkpt>
      <trkpt lat="46.461170327" lon="7.027340228">
        <ele>1558.700</ele>
        <time>2026-05-08T22:15:00Z</time>
      </trkpt>
      <trkpt lat="46.461130327" lon="7.027280228">
        <ele>1557.800</ele>
        <time>2026-05-08T22:16:00Z</time>
      </trkpt>
      <trkpt lat="46.460940326" lon="7.027080228">
        <ele>1555.000</ele>
        <time>2026-05-08T22:17:00Z</time>
      </trkpt>
      <trkpt lat="46.460830326" lon="7.026970227">
        <ele>1553.200</ele>
        <time>2026-05-08T22:18:00Z</time>
      </trkpt>
      <trkpt lat="46.460660325" lon="7.026730227">
        <ele>1550.160</ele>
        <time>2026-05-08T22:19:00Z</time>
      </trkpt>
      <trkpt lat="46.460580325" lon="7.026630227">
        <ele>1548.700</ele>
        <time>2026-05-08T22:20:00Z</time>
      </trkpt>
      <trkpt lat="46.460470324" lon="7.026520227">
        <ele>1547.000</ele>
        <time>2026-05-08T22:21:00Z</time>
      </trkpt>
      <trkpt lat="46.460450324" lon="7.026490226">
        <ele>1546.460</ele>
        <time>2026-05-08T22:22:00Z</time>
      </trkpt>
      <trkpt lat="46.460300324" lon="7.026350226">
        <ele>1544.000</ele>
        <time>2026-05-08T22:23:00Z</time>
      </trkpt>
      <trkpt lat="46.460170323" lon="7.026230226">
        <ele>1541.730</ele>
        <time>2026-05-08T22:24:00Z</time>
      </trkpt>
      <trkpt lat="46.460170323" lon="7.026220226">
        <ele>1541.620</ele>
        <time>2026-05-08T22:25:00Z</time>
      </trkpt>
      <trkpt lat="46.460120323" lon="7.026150226">
        <ele>1540.940</ele>
        <time>2026-05-08T22:26:00Z</time>
      </trkpt>
      <trkpt lat="46.460090323" lon="7.026060225">
        <ele>1540.100</ele>
        <time>2026-05-08T22:27:00Z</time>
      </trkpt>
      <trkpt lat="46.460050323" lon="7.025990225">
        <ele>1539.000</ele>
        <time>2026-05-08T22:28:00Z</time>
      </trkpt>
      <trkpt lat="46.460000323" lon="7.025930225">
        <ele>1538.200</ele>
        <time>2026-05-08T22:29:00Z</time>
      </trkpt>
      <trkpt lat="46.459940323" lon="7.025890225">
        <ele>1537.600</ele>
        <time>2026-05-08T22:30:00Z</time>
      </trkpt>
      <trkpt lat="46.459860322" lon="7.025860225">
        <ele>1536.200</ele>
        <time>2026-05-08T22:31:00Z</time>
      </trkpt>
      <trkpt lat="46.459800322" lon="7.025820225">
        <ele>1535.000</ele>
        <time>2026-05-08T22:32:00Z</time>
      </trkpt>
      <trkpt lat="46.459770322" lon="7.025800225">
        <ele>1534.500</ele>
        <time>2026-05-08T22:33:00Z</time>
      </trkpt>
      <trkpt lat="46.459740322" lon="7.025780225">
        <ele>1534.100</ele>
        <time>2026-05-08T22:34:00Z</time>
      </trkpt>
      <trkpt lat="46.459650321" lon="7.025650224">
        <ele>1532.080</ele>
        <time>2026-05-08T22:35:00Z</time>
      </trkpt>
      <trkpt lat="46.459600321" lon="7.025590224">
        <ele>1531.060</ele>
        <time>2026-05-08T22:36:00Z</time>
      </trkpt>
      <trkpt lat="46.459560321" lon="7.025550224">
        <ele>1530.300</ele>
        <time>2026-05-08T22:37:00Z</time>
      </trkpt>
      <trkpt lat="46.459510321" lon="7.025500224">
        <ele>1529.460</ele>
        <time>2026-05-08T22:38:00Z</time>
      </trkpt>
      <trkpt lat="46.459430321" lon="7.025420224">
        <ele>1528.000</ele>
        <time>2026-05-08T22:39:00Z</time>
      </trkpt>
      <trkpt lat="46.459360321" lon="7.025380224">
        <ele>1527.100</ele>
        <time>2026-05-08T22:40:00Z</time>
      </trkpt>
      <trkpt lat="46.459080319" lon="7.025130223">
        <ele>1521.700</ele>
        <time>2026-05-08T22:41:00Z</time>
      </trkpt>
      <trkpt lat="46.459020319" lon="7.025080223">
        <ele>1520.600</ele>
        <time>2026-05-08T22:42:00Z</time>
      </trkpt>
      <trkpt lat="46.458960319" lon="7.025040223">
        <ele>1519.510</ele>
        <time>2026-05-08T22:43:00Z</time>
      </trkpt>
      <trkpt lat="46.458920319" lon="7.025020223">
        <ele>1518.800</ele>
        <time>2026-05-08T22:44:00Z</time>
      </trkpt>
      <trkpt lat="46.458760318" lon="7.024890222">
        <ele>1515.800</ele>
        <time>2026-05-08T22:45:00Z</time>
      </trkpt>
      <trkpt lat="46.458570317" lon="7.024710222">
        <ele>1512.000</ele>
        <time>2026-05-08T22:46:00Z</time>
      </trkpt>
      <trkpt lat="46.458520317" lon="7.024670221">
        <ele>1511.060</ele>
        <time>2026-05-08T22:47:00Z</time>
      </trkpt>
      <trkpt lat="46.458500317" lon="7.024660221">
        <ele>1510.800</ele>
        <time>2026-05-08T22:48:00Z</time>
      </trkpt>
      <trkpt lat="46.458330316" lon="7.024510221">
        <ele>1507.200</ele>
        <time>2026-05-08T22:49:00Z</time>
      </trkpt>
      <trkpt lat="46.458280316" lon="7.024480221">
        <ele>1506.160</ele>
        <time>2026-05-08T22:50:00Z</time>
      </trkpt>
      <trkpt lat="46.458270316" lon="7.024480221">
        <ele>1506.030</ele>
        <time>2026-05-08T22:51:00Z</time>
      </trkpt>
      <trkpt lat="46.458210316" lon="7.024460221">
        <ele>1505.000</ele>
        <time>2026-05-08T22:52:00Z</time>
      </trkpt>
      <trkpt lat="46.458140316" lon="7.024460220">
        <ele>1503.900</ele>
        <time>2026-05-08T22:53:00Z</time>
      </trkpt>
      <trkpt lat="46.458120316" lon="7.024460220">
        <ele>1503.540</ele>
        <time>2026-05-08T22:54:00Z</time>
      </trkpt>
      <trkpt lat="46.458000315" lon="7.024440220">
        <ele>1501.710</ele>
        <time>2026-05-08T22:55:00Z</time>
      </trkpt>
      <trkpt lat="46.457760314" lon="7.024330220">
        <ele>1498.060</ele>
        <time>2026-05-08T22:56:00Z</time>
      </trkpt>
      <trkpt lat="46.457720315" lon="7.024310220">
        <ele>1497.400</ele>
        <time>2026-05-08T22:57:00Z</time>
      </trkpt>
      <trkpt lat="46.457710315" lon="7.024290219">
        <ele>1497.030</ele>
        <time>2026-05-08T22:58:00Z</time>
      </trkpt>
      <trkpt lat="46.457610314" lon="7.024180219">
        <ele>1494.900</ele>
        <time>2026-05-08T22:59:00Z</time>
      </trkpt>
      <trkpt lat="46.457550314" lon="7.024130219">
        <ele>1493.900</ele>
        <time>2026-05-08T23:00:00Z</time>
      </trkpt>
      <trkpt lat="46.457420313" lon="7.024000219">
        <ele>1491.510</ele>
        <time>2026-05-08T23:01:00Z</time>
      </trkpt>
      <trkpt lat="46.457410313" lon="7.024000219">
        <ele>1491.420</ele>
        <time>2026-05-08T23:02:00Z</time>
      </trkpt>
      <trkpt lat="46.457120312" lon="7.023680218">
        <ele>1485.000</ele>
        <time>2026-05-08T23:03:00Z</time>
      </trkpt>
      <trkpt lat="46.457060312" lon="7.023640218">
        <ele>1484.200</ele>
        <time>2026-05-08T23:04:00Z</time>
      </trkpt>
      <trkpt lat="46.456930311" lon="7.023560217">
        <ele>1481.200</ele>
        <time>2026-05-08T23:05:00Z</time>
      </trkpt>
      <trkpt lat="46.456910311" lon="7.023550217">
        <ele>1480.500</ele>
        <time>2026-05-08T23:06:00Z</time>
      </trkpt>
      <trkpt lat="46.456840311" lon="7.023500217">
        <ele>1479.400</ele>
        <time>2026-05-08T23:07:00Z</time>
      </trkpt>
      <trkpt lat="46.456800311" lon="7.023440217">
        <ele>1478.790</ele>
        <time>2026-05-08T23:08:00Z</time>
      </trkpt>
      <trkpt lat="46.456730310" lon="7.023360217">
        <ele>1477.780</ele>
        <time>2026-05-08T23:09:00Z</time>
      </trkpt>
      <trkpt lat="46.456700311" lon="7.023330217">
        <ele>1477.300</ele>
        <time>2026-05-08T23:10:00Z</time>
      </trkpt>
      <trkpt lat="46.456590310" lon="7.023130216">
        <ele>1474.000</ele>
        <time>2026-05-08T23:11:00Z</time>
      </trkpt>
      <trkpt lat="46.456490309" lon="7.022980216">
        <ele>1472.100</ele>
        <time>2026-05-08T23:12:00Z</time>
      </trkpt>
      <trkpt lat="46.456480309" lon="7.022950216">
        <ele>1471.690</ele>
        <time>2026-05-08T23:13:00Z</time>
      </trkpt>
      <trkpt lat="46.456460309" lon="7.022890216">
        <ele>1471.080</ele>
        <time>2026-05-08T23:14:00Z</time>
      </trkpt>
      <trkpt lat="46.456450309" lon="7.022880216">
        <ele>1470.900</ele>
        <time>2026-05-08T23:15:00Z</time>
      </trkpt>
      <trkpt lat="46.456450309" lon="7.022860216">
        <ele>1470.850</ele>
        <time>2026-05-08T23:16:00Z</time>
      </trkpt>
      <trkpt lat="46.456450309" lon="7.022820216">
        <ele>1470.600</ele>
        <time>2026-05-08T23:17:00Z</time>
      </trkpt>
      <trkpt lat="46.456480308" lon="7.022630216">
        <ele>1467.800</ele>
        <time>2026-05-08T23:18:00Z</time>
      </trkpt>
      <trkpt lat="46.456480308" lon="7.022580215">
        <ele>1467.400</ele>
        <time>2026-05-08T23:19:00Z</time>
      </trkpt>
      <trkpt lat="46.456470308" lon="7.022530215">
        <ele>1466.720</ele>
        <time>2026-05-08T23:20:00Z</time>
      </trkpt>
      <trkpt lat="46.456460308" lon="7.022490215">
        <ele>1465.800</ele>
        <time>2026-05-08T23:21:00Z</time>
      </trkpt>
      <trkpt lat="46.456410308" lon="7.022300215">
        <ele>1463.700</ele>
        <time>2026-05-08T23:22:00Z</time>
      </trkpt>
      <trkpt lat="46.456380308" lon="7.022240215">
        <ele>1462.800</ele>
        <time>2026-05-08T23:23:00Z</time>
      </trkpt>
      <trkpt lat="46.456360308" lon="7.022200215">
        <ele>1462.100</ele>
        <time>2026-05-08T23:24:00Z</time>
      </trkpt>
      <trkpt lat="46.456300307" lon="7.022150214">
        <ele>1460.400</ele>
        <time>2026-05-08T23:25:00Z</time>
      </trkpt>
      <trkpt lat="46.456230307" lon="7.022080214">
        <ele>1458.300</ele>
        <time>2026-05-08T23:26:00Z</time>
      </trkpt>
      <trkpt lat="46.456180306" lon="7.022020214">
        <ele>1456.620</ele>
        <time>2026-05-08T23:27:00Z</time>
      </trkpt>
      <trkpt lat="46.456170306" lon="7.022010214">
        <ele>1456.300</ele>
        <time>2026-05-08T23:28:00Z</time>
      </trkpt>
      <trkpt lat="46.456150306" lon="7.021990214">
        <ele>1456.010</ele>
        <time>2026-05-08T23:29:00Z</time>
      </trkpt>
      <trkpt lat="46.456020306" lon="7.021900214">
        <ele>1454.880</ele>
        <time>2026-05-08T23:30:00Z</time>
      </trkpt>
      <trkpt lat="46.456000306" lon="7.021890214">
        <ele>1454.600</ele>
        <time>2026-05-08T23:31:00Z</time>
      </trkpt>
      <trkpt lat="46.455980306" lon="7.021890214">
        <ele>1454.200</ele>
        <time>2026-05-08T23:32:00Z</time>
      </trkpt>
      <trkpt lat="46.455970306" lon="7.021890214">
        <ele>1454.250</ele>
        <time>2026-05-08T23:33:00Z</time>
      </trkpt>
      <trkpt lat="46.455950306" lon="7.021900213">
        <ele>1454.100</ele>
        <time>2026-05-08T23:34:00Z</time>
      </trkpt>
      <trkpt lat="46.455930306" lon="7.021910213">
        <ele>1453.800</ele>
        <time>2026-05-08T23:35:00Z</time>
      </trkpt>
      <trkpt lat="46.455910305" lon="7.021920213">
        <ele>1453.600</ele>
        <time>2026-05-08T23:36:00Z</time>
      </trkpt>
      <trkpt lat="46.455870306" lon="7.021920213">
        <ele>1453.100</ele>
        <time>2026-05-08T23:37:00Z</time>
      </trkpt>
      <trkpt lat="46.455860306" lon="7.021910213">
        <ele>1452.890</ele>
        <time>2026-05-08T23:38:00Z</time>
      </trkpt>
      <trkpt lat="46.455830305" lon="7.021900213">
        <ele>1452.600</ele>
        <time>2026-05-08T23:39:00Z</time>
      </trkpt>
      <trkpt lat="46.455810306" lon="7.021890213">
        <ele>1452.300</ele>
        <time>2026-05-08T23:40:00Z</time>
      </trkpt>
      <trkpt lat="46.455740305" lon="7.021900213">
        <ele>1451.650</ele>
        <time>2026-05-08T23:41:00Z</time>
      </trkpt>
      <trkpt lat="46.455710305" lon="7.021910213">
        <ele>1451.400</ele>
        <time>2026-05-08T23:42:00Z</time>
      </trkpt>
      <trkpt lat="46.455660305" lon="7.021890213">
        <ele>1451.000</ele>
        <time>2026-05-08T23:43:00Z</time>
      </trkpt>
      <trkpt lat="46.455660305" lon="7.021890213">
        <ele>1450.890</ele>
        <time>2026-05-08T23:44:00Z</time>
      </trkpt>
      <trkpt lat="46.455550305" lon="7.021820213">
        <ele>1449.000</ele>
        <time>2026-05-08T23:45:00Z</time>
      </trkpt>
      <trkpt lat="46.455530305" lon="7.021800213">
        <ele>1448.680</ele>
        <time>2026-05-08T23:46:00Z</time>
      </trkpt>
      <trkpt lat="46.455490305" lon="7.021780213">
        <ele>1448.100</ele>
        <time>2026-05-08T23:47:00Z</time>
      </trkpt>
      <trkpt lat="46.455460304" lon="7.021780213">
        <ele>1447.750</ele>
        <time>2026-05-08T23:48:00Z</time>
      </trkpt>
      <trkpt lat="46.455390304" lon="7.021780212">
        <ele>1446.680</ele>
        <time>2026-05-08T23:49:00Z</time>
      </trkpt>
      <trkpt lat="46.455350304" lon="7.021780212">
        <ele>1445.890</ele>
        <time>2026-05-08T23:50:00Z</time>
      </trkpt>
      <trkpt lat="46.455300304" lon="7.021780212">
        <ele>1445.200</ele>
        <time>2026-05-08T23:51:00Z</time>
      </trkpt>
      <trkpt lat="46.455250304" lon="7.021760212">
        <ele>1444.230</ele>
        <time>2026-05-08T23:52:00Z</time>
      </trkpt>
      <trkpt lat="46.455220304" lon="7.021750212">
        <ele>1443.800</ele>
        <time>2026-05-08T23:53:00Z</time>
      </trkpt>
      <trkpt lat="46.455100304" lon="7.021750212">
        <ele>1441.600</ele>
        <time>2026-05-08T23:54:00Z</time>
      </trkpt>
      <trkpt lat="46.454980303" lon="7.021770211">
        <ele>1439.800</ele>
        <time>2026-05-08T23:55:00Z</time>
      </trkpt>
      <trkpt lat="46.454920303" lon="7.021790212">
        <ele>1438.770</ele>
        <time>2026-05-08T23:56:00Z</time>
      </trkpt>
      <trkpt lat="46.454840302" lon="7.021810211">
        <ele>1437.500</ele>
        <time>2026-05-08T23:57:00Z</time>
      </trkpt>
      <trkpt lat="46.454780302" lon="7.021810211">
        <ele>1436.420</ele>
        <time>2026-05-08T23:58:00Z</time>
      </trkpt>
      <trkpt lat="46.454720302" lon="7.021820211">
        <ele>1435.400</ele>
        <time>2026-05-08T23:59:00Z</time>
      </trkpt>
      <trkpt lat="46.454640302" lon="7.021820211">
        <ele>1434.100</ele>
        <time>2026-05-09T00:00:00Z</time>
      </trkpt>
      <trkpt lat="46.454600302" lon="7.021820211">
        <ele>1433.500</ele>
        <time>2026-05-09T00:01:00Z</time>
      </trkpt>
      <trkpt lat="46.454560302" lon="7.021810211">
        <ele>1432.800</ele>
        <time>2026-05-09T00:02:00Z</time>
      </trkpt>
      <trkpt lat="46.454250301" lon="7.021640210">
        <ele>1427.900</ele>
        <time>2026-05-09T00:03:00Z</time>
      </trkpt>
      <trkpt lat="46.454130300" lon="7.021590210">
        <ele>1426.100</ele>
        <time>2026-05-09T00:04:00Z</time>
      </trkpt>
      <trkpt lat="46.454080300" lon="7.021570209">
        <ele>1425.230</ele>
        <time>2026-05-09T00:05:00Z</time>
      </trkpt>
      <trkpt lat="46.454030300" lon="7.021550209">
        <ele>1424.700</ele>
        <time>2026-05-09T00:06:00Z</time>
      </trkpt>
      <trkpt lat="46.453990300" lon="7.021550209">
        <ele>1423.600</ele>
        <time>2026-05-09T00:07:00Z</time>
      </trkpt>
      <trkpt lat="46.453950299" lon="7.021550209">
        <ele>1423.040</ele>
        <time>2026-05-09T00:08:00Z</time>
      </trkpt>
      <trkpt lat="46.453860299" lon="7.021550209">
        <ele>1422.000</ele>
        <time>2026-05-09T00:09:00Z</time>
      </trkpt>
      <trkpt lat="46.453790299" lon="7.021560209">
        <ele>1421.390</ele>
        <time>2026-05-09T00:10:00Z</time>
      </trkpt>
      <trkpt lat="46.453750299" lon="7.021570209">
        <ele>1421.010</ele>
        <time>2026-05-09T00:11:00Z</time>
      </trkpt>
      <trkpt lat="46.453630299" lon="7.021600209">
        <ele>1420.350</ele>
        <time>2026-05-09T00:12:00Z</time>
      </trkpt>
      <trkpt lat="46.453590299" lon="7.021610209">
        <ele>1419.700</ele>
        <time>2026-05-09T00:13:00Z</time>
      </trkpt>
      <trkpt lat="46.453530299" lon="7.021570208">
        <ele>1418.940</ele>
        <time>2026-05-09T00:14:00Z</time>
      </trkpt>
      <trkpt lat="46.453440299" lon="7.021470209">
        <ele>1418.010</ele>
        <time>2026-05-09T00:15:00Z</time>
      </trkpt>
      <trkpt lat="46.453380299" lon="7.021400209">
        <ele>1418.000</ele>
        <time>2026-05-09T00:16:00Z</time>
      </trkpt>
      <trkpt lat="46.453100299" lon="7.021140208">
        <ele>1418.970</ele>
        <time>2026-05-09T00:17:00Z</time>
      </trkpt>
      <trkpt lat="46.453050299" lon="7.021090209">
        <ele>1419.300</ele>
        <time>2026-05-09T00:18:00Z</time>
      </trkpt>
      <trkpt lat="46.452940299" lon="7.021030209">
        <ele>1420.200</ele>
        <time>2026-05-09T00:19:00Z</time>
      </trkpt>
      <trkpt lat="46.452920299" lon="7.020970209">
        <ele>1420.100</ele>
        <time>2026-05-09T00:20:00Z</time>
      </trkpt>
      <trkpt lat="46.452840299" lon="7.020780209">
        <ele>1419.900</ele>
        <time>2026-05-09T00:21:00Z</time>
      </trkpt>
      <trkpt lat="46.452830299" lon="7.020720209">
        <ele>1419.700</ele>
        <time>2026-05-09T00:22:00Z</time>
      </trkpt>
      <trkpt lat="46.452790299" lon="7.020640209">
        <ele>1419.700</ele>
        <time>2026-05-09T00:23:00Z</time>
      </trkpt>
      <trkpt lat="46.452770299" lon="7.020600209">
        <ele>1419.860</ele>
        <time>2026-05-09T00:24:00Z</time>
      </trkpt>
      <trkpt lat="46.452730299" lon="7.020500209">
        <ele>1420.500</ele>
        <time>2026-05-09T00:25:00Z</time>
      </trkpt>
      <trkpt lat="46.452580299" lon="7.020390208">
        <ele>1418.300</ele>
        <time>2026-05-09T00:26:00Z</time>
      </trkpt>
      <trkpt lat="46.452480298" lon="7.020330208">
        <ele>1415.700</ele>
        <time>2026-05-09T00:27:00Z</time>
      </trkpt>
      <trkpt lat="46.452340297" lon="7.020220208">
        <ele>1411.010</ele>
        <time>2026-05-09T00:28:00Z</time>
      </trkpt>
      <trkpt lat="46.452270297" lon="7.020170207">
        <ele>1408.900</ele>
        <time>2026-05-09T00:29:00Z</time>
      </trkpt>
      <trkpt lat="46.452160296" lon="7.020030207">
        <ele>1403.300</ele>
        <time>2026-05-09T00:30:00Z</time>
      </trkpt>
      <trkpt lat="46.452070295" lon="7.019950206">
        <ele>1398.400</ele>
        <time>2026-05-09T00:31:00Z</time>
      </trkpt>
      <trkpt lat="46.451910294" lon="7.019890205">
        <ele>1392.820</ele>
        <time>2026-05-09T00:32:00Z</time>
      </trkpt>
      <trkpt lat="46.451910294" lon="7.019890205">
        <ele>1392.900</ele>
        <time>2026-05-09T00:33:00Z</time>
      </trkpt>
      <trkpt lat="46.451930293" lon="7.019870205">
        <ele>1392.640</ele>
        <time>2026-05-09T00:34:00Z</time>
      </trkpt>
      <trkpt lat="46.451990293" lon="7.019810205">
        <ele>1391.900</ele>
        <time>2026-05-09T00:35:00Z</time>
      </trkpt>
      <trkpt lat="46.452240292" lon="7.019520204">
        <ele>1383.900</ele>
        <time>2026-05-09T00:36:00Z</time>
      </trkpt>
      <trkpt lat="46.452280292" lon="7.019490204">
        <ele>1383.160</ele>
        <time>2026-05-09T00:37:00Z</time>
      </trkpt>
      <trkpt lat="46.452340291" lon="7.019430203">
        <ele>1382.200</ele>
        <time>2026-05-09T00:38:00Z</time>
      </trkpt>
      <trkpt lat="46.452370291" lon="7.019430203">
        <ele>1381.630</ele>
        <time>2026-05-09T00:39:00Z</time>
      </trkpt>
      <trkpt lat="46.452400291" lon="7.019420203">
        <ele>1380.800</ele>
        <time>2026-05-09T00:40:00Z</time>
      </trkpt>
      <trkpt lat="46.452550290" lon="7.019340202">
        <ele>1373.600</ele>
        <time>2026-05-09T00:41:00Z</time>
      </trkpt>
      <trkpt lat="46.452580289" lon="7.019320202">
        <ele>1372.000</ele>
        <time>2026-05-09T00:42:00Z</time>
      </trkpt>
      <trkpt lat="46.452600289" lon="7.019310202">
        <ele>1371.300</ele>
        <time>2026-05-09T00:43:00Z</time>
      </trkpt>
      <trkpt lat="46.452620289" lon="7.019310202">
        <ele>1370.070</ele>
        <time>2026-05-09T00:44:00Z</time>
      </trkpt>
      <trkpt lat="46.452670289" lon="7.019310202">
        <ele>1367.930</ele>
        <time>2026-05-09T00:45:00Z</time>
      </trkpt>
      <trkpt lat="46.452700289" lon="7.019310202">
        <ele>1366.290</ele>
        <time>2026-05-09T00:46:00Z</time>
      </trkpt>
      <trkpt lat="46.452710288" lon="7.019310202">
        <ele>1365.700</ele>
        <time>2026-05-09T00:47:00Z</time>
      </trkpt>
      <trkpt lat="46.452710288" lon="7.019300201">
        <ele>1365.250</ele>
        <time>2026-05-09T00:48:00Z</time>
      </trkpt>
      <trkpt lat="46.452710288" lon="7.019190201">
        <ele>1361.830</ele>
        <time>2026-05-09T00:49:00Z</time>
      </trkpt>
      <trkpt lat="46.452710287" lon="7.019160200">
        <ele>1360.600</ele>
        <time>2026-05-09T00:50:00Z</time>
      </trkpt>
      <trkpt lat="46.452720287" lon="7.019140201">
        <ele>1360.100</ele>
        <time>2026-05-09T00:51:00Z</time>
      </trkpt>
      <trkpt lat="46.452730287" lon="7.019140201">
        <ele>1359.840</ele>
        <time>2026-05-09T00:52:00Z</time>
      </trkpt>
      <trkpt lat="46.452740287" lon="7.019140200">
        <ele>1359.300</ele>
        <time>2026-05-09T00:53:00Z</time>
      </trkpt>
      <trkpt lat="46.452780286" lon="7.019190200">
        <ele>1357.100</ele>
        <time>2026-05-09T00:54:00Z</time>
      </trkpt>
      <trkpt lat="46.452790286" lon="7.019210200">
        <ele>1356.000</ele>
        <time>2026-05-09T00:55:00Z</time>
      </trkpt>
      <trkpt lat="46.452840286" lon="7.019250200">
        <ele>1353.700</ele>
        <time>2026-05-09T00:56:00Z</time>
      </trkpt>
      <trkpt lat="46.452870286" lon="7.019270199">
        <ele>1352.300</ele>
        <time>2026-05-09T00:57:00Z</time>
      </trkpt>
      <trkpt lat="46.452890285" lon="7.019270199">
        <ele>1351.760</ele>
        <time>2026-05-09T00:58:00Z</time>
      </trkpt>
      <trkpt lat="46.452920285" lon="7.019270199">
        <ele>1350.600</ele>
        <time>2026-05-09T00:59:00Z</time>
      </trkpt>
      <trkpt lat="46.452930285" lon="7.019270199">
        <ele>1350.100</ele>
        <time>2026-05-09T01:00:00Z</time>
      </trkpt>
      <trkpt lat="46.452980285" lon="7.019260199">
        <ele>1348.300</ele>
        <time>2026-05-09T01:01:00Z</time>
      </trkpt>
      <trkpt lat="46.453000285" lon="7.019240199">
        <ele>1347.110</ele>
        <time>2026-05-09T01:02:00Z</time>
      </trkpt>
      <trkpt lat="46.453010284" lon="7.019230199">
        <ele>1346.000</ele>
        <time>2026-05-09T01:03:00Z</time>
      </trkpt>
      <trkpt lat="46.453020284" lon="7.019220199">
        <ele>1344.940</ele>
        <time>2026-05-09T01:04:00Z</time>
      </trkpt>
      <trkpt lat="46.453040284" lon="7.019220199">
        <ele>1344.200</ele>
        <time>2026-05-09T01:05:00Z</time>
      </trkpt>
      <trkpt lat="46.453050284" lon="7.019210198">
        <ele>1343.370</ele>
        <time>2026-05-09T01:06:00Z</time>
      </trkpt>
      <trkpt lat="46.453070283" lon="7.019190198">
        <ele>1342.000</ele>
        <time>2026-05-09T01:07:00Z</time>
      </trkpt>
      <trkpt lat="46.453100283" lon="7.019190198">
        <ele>1341.030</ele>
        <time>2026-05-09T01:08:00Z</time>
      </trkpt>
      <trkpt lat="46.453170283" lon="7.019190198">
        <ele>1339.100</ele>
        <time>2026-05-09T01:09:00Z</time>
      </trkpt>
      <trkpt lat="46.453190283" lon="7.019180198">
        <ele>1339.070</ele>
        <time>2026-05-09T01:10:00Z</time>
      </trkpt>
      <trkpt lat="46.453210283" lon="7.019170198">
        <ele>1339.000</ele>
        <time>2026-05-09T01:11:00Z</time>
      </trkpt>
      <trkpt lat="46.453290282" lon="7.019120197">
        <ele>1335.460</ele>
        <time>2026-05-09T01:12:00Z</time>
      </trkpt>
      <trkpt lat="46.453360282" lon="7.019080197">
        <ele>1332.900</ele>
        <time>2026-05-09T01:13:00Z</time>
      </trkpt>
      <trkpt lat="46.453460281" lon="7.018990196">
        <ele>1328.800</ele>
        <time>2026-05-09T01:14:00Z</time>
      </trkpt>
      <trkpt lat="46.453510281" lon="7.018980196">
        <ele>1328.120</ele>
        <time>2026-05-09T01:15:00Z</time>
      </trkpt>
      <trkpt lat="46.453530281" lon="7.018970196">
        <ele>1327.800</ele>
        <time>2026-05-09T01:16:00Z</time>
      </trkpt>
      <trkpt lat="46.453570280" lon="7.018930196">
        <ele>1325.700</ele>
        <time>2026-05-09T01:17:00Z</time>
      </trkpt>
      <trkpt lat="46.453600280" lon="7.018890196">
        <ele>1324.500</ele>
        <time>2026-05-09T01:18:00Z</time>
      </trkpt>
      <trkpt lat="46.453640279" lon="7.018850195">
        <ele>1322.300</ele>
        <time>2026-05-09T01:19:00Z</time>
      </trkpt>
      <trkpt lat="46.453680279" lon="7.018790195">
        <ele>1319.460</ele>
        <time>2026-05-09T01:20:00Z</time>
      </trkpt>
      <trkpt lat="46.453690279" lon="7.018770195">
        <ele>1318.700</ele>
        <time>2026-05-09T01:21:00Z</time>
      </trkpt>
      <trkpt lat="46.453720279" lon="7.018740194">
        <ele>1317.200</ele>
        <time>2026-05-09T01:22:00Z</time>
      </trkpt>
      <trkpt lat="46.453750278" lon="7.018710195">
        <ele>1315.800</ele>
        <time>2026-05-09T01:23:00Z</time>
      </trkpt>
      <trkpt lat="46.453810277" lon="7.018670194">
        <ele>1312.050</ele>
        <time>2026-05-09T01:24:00Z</time>
      </trkpt>
      <trkpt lat="46.453810277" lon="7.018660194">
        <ele>1311.710</ele>
        <time>2026-05-09T01:25:00Z</time>
      </trkpt>
      <trkpt lat="46.453900277" lon="7.018600193">
        <ele>1308.100</ele>
        <time>2026-05-09T01:26:00Z</time>
      </trkpt>
      <trkpt lat="46.454060277" lon="7.018560193">
        <ele>1306.000</ele>
        <time>2026-05-09T01:27:00Z</time>
      </trkpt>
      <trkpt lat="46.454090276" lon="7.018530193">
        <ele>1304.200</ele>
        <time>2026-05-09T01:28:00Z</time>
      </trkpt>
      <trkpt lat="46.454110276" lon="7.018520193">
        <ele>1303.540</ele>
        <time>2026-05-09T01:29:00Z</time>
      </trkpt>
      <trkpt lat="46.454140276" lon="7.018510193">
        <ele>1302.700</ele>
        <time>2026-05-09T01:30:00Z</time>
      </trkpt>
      <trkpt lat="46.454260275" lon="7.018340192">
        <ele>1297.300</ele>
        <time>2026-05-09T01:31:00Z</time>
      </trkpt>
      <trkpt lat="46.454320274" lon="7.018280191">
        <ele>1294.290</ele>
        <time>2026-05-09T01:32:00Z</time>
      </trkpt>
      <trkpt lat="46.454330274" lon="7.018270191">
        <ele>1293.900</ele>
        <time>2026-05-09T01:33:00Z</time>
      </trkpt>
      <trkpt lat="46.454350274" lon="7.018280191">
        <ele>1293.440</ele>
        <time>2026-05-09T01:34:00Z</time>
      </trkpt>
      <trkpt lat="46.454390273" lon="7.018280191">
        <ele>1292.000</ele>
        <time>2026-05-09T01:35:00Z</time>
      </trkpt>
      <trkpt lat="46.454420273" lon="7.018260191">
        <ele>1290.200</ele>
        <time>2026-05-09T01:36:00Z</time>
      </trkpt>
      <trkpt lat="46.454440273" lon="7.018250191">
        <ele>1289.490</ele>
        <time>2026-05-09T01:37:00Z</time>
      </trkpt>
      <trkpt lat="46.454460273" lon="7.018230191">
        <ele>1288.000</ele>
        <time>2026-05-09T01:38:00Z</time>
      </trkpt>
      <trkpt lat="46.454500272" lon="7.018180190">
        <ele>1286.010</ele>
        <time>2026-05-09T01:39:00Z</time>
      </trkpt>
      <trkpt lat="46.454510272" lon="7.018180190">
        <ele>1285.790</ele>
        <time>2026-05-09T01:40:00Z</time>
      </trkpt>
      <trkpt lat="46.454550272" lon="7.018140190">
        <ele>1284.300</ele>
        <time>2026-05-09T01:41:00Z</time>
      </trkpt>
      <trkpt lat="46.454580272" lon="7.018100190">
        <ele>1282.300</ele>
        <time>2026-05-09T01:42:00Z</time>
      </trkpt>
      <trkpt lat="46.454610271" lon="7.018070190">
        <ele>1281.630</ele>
        <time>2026-05-09T01:43:00Z</time>
      </trkpt>
      <trkpt lat="46.454620271" lon="7.018050190">
        <ele>1281.300</ele>
        <time>2026-05-09T01:44:00Z</time>
      </trkpt>
      <trkpt lat="46.454640272" lon="7.018040190">
        <ele>1281.320</ele>
        <time>2026-05-09T01:45:00Z</time>
      </trkpt>
      <trkpt lat="46.454660271" lon="7.018020190">
        <ele>1281.300</ele>
        <time>2026-05-09T01:46:00Z</time>
      </trkpt>
      <trkpt lat="46.454690271" lon="7.017970189">
        <ele>1280.290</ele>
        <time>2026-05-09T01:47:00Z</time>
      </trkpt>
      <trkpt lat="46.454690271" lon="7.017960189">
        <ele>1280.100</ele>
        <time>2026-05-09T01:48:00Z</time>
      </trkpt>
      <trkpt lat="46.454710271" lon="7.017940189">
        <ele>1278.900</ele>
        <time>2026-05-09T01:49:00Z</time>
      </trkpt>
      <trkpt lat="46.454730271" lon="7.017940189">
        <ele>1278.490</ele>
        <time>2026-05-09T01:50:00Z</time>
      </trkpt>
      <trkpt lat="46.454770271" lon="7.017920189">
        <ele>1276.500</ele>
        <time>2026-05-09T01:51:00Z</time>
      </trkpt>
      <trkpt lat="46.454790270" lon="7.017890189">
        <ele>1275.520</ele>
        <time>2026-05-09T01:52:00Z</time>
      </trkpt>
      <trkpt lat="46.454800270" lon="7.017880189">
        <ele>1275.200</ele>
        <time>2026-05-09T01:53:00Z</time>
      </trkpt>
      <trkpt lat="46.454830270" lon="7.017820189">
        <ele>1273.700</ele>
        <time>2026-05-09T01:54:00Z</time>
      </trkpt>
      <trkpt lat="46.454870270" lon="7.017780188">
        <ele>1272.150</ele>
        <time>2026-05-09T01:55:00Z</time>
      </trkpt>
      <trkpt lat="46.454900269" lon="7.017750188">
        <ele>1271.100</ele>
        <time>2026-05-09T01:56:00Z</time>
      </trkpt>
      <trkpt lat="46.454930269" lon="7.017680188">
        <ele>1269.600</ele>
        <time>2026-05-09T01:57:00Z</time>
      </trkpt>
      <trkpt lat="46.454960269" lon="7.017640188">
        <ele>1267.900</ele>
        <time>2026-05-09T01:58:00Z</time>
      </trkpt>
      <trkpt lat="46.454980269" lon="7.017600188">
        <ele>1267.530</ele>
        <time>2026-05-09T01:59:00Z</time>
      </trkpt>
      <trkpt lat="46.454990269" lon="7.017590188">
        <ele>1267.400</ele>
        <time>2026-05-09T02:00:00Z</time>
      </trkpt>
      <trkpt lat="46.455020268" lon="7.017510187">
        <ele>1264.540</ele>
        <time>2026-05-09T02:01:00Z</time>
      </trkpt>
      <trkpt lat="46.455030268" lon="7.017390187">
        <ele>1262.200</ele>
        <time>2026-05-09T02:02:00Z</time>
      </trkpt>
      <trkpt lat="46.455040268" lon="7.017280187">
        <ele>1262.000</ele>
        <time>2026-05-09T02:03:00Z</time>
      </trkpt>
      <trkpt lat="46.455040267" lon="7.017250187">
        <ele>1260.210</ele>
        <time>2026-05-09T02:04:00Z</time>
      </trkpt>
      <trkpt lat="46.455030267" lon="7.017200186">
        <ele>1257.500</ele>
        <time>2026-05-09T02:05:00Z</time>
      </trkpt>
      <trkpt lat="46.455040266" lon="7.017170186">
        <ele>1256.160</ele>
        <time>2026-05-09T02:06:00Z</time>
      </trkpt>
      <trkpt lat="46.455060266" lon="7.017110186">
        <ele>1254.020</ele>
        <time>2026-05-09T02:07:00Z</time>
      </trkpt>
      <trkpt lat="46.455080266" lon="7.017070186">
        <ele>1252.700</ele>
        <time>2026-05-09T02:08:00Z</time>
      </trkpt>
      <trkpt lat="46.455100265" lon="7.017020185">
        <ele>1251.400</ele>
        <time>2026-05-09T02:09:00Z</time>
      </trkpt>
      <trkpt lat="46.455100265" lon="7.016990185">
        <ele>1250.770</ele>
        <time>2026-05-09T02:10:00Z</time>
      </trkpt>
      <trkpt lat="46.455110265" lon="7.016980186">
        <ele>1250.500</ele>
        <time>2026-05-09T02:11:00Z</time>
      </trkpt>
      <trkpt lat="46.455090265" lon="7.016920185">
        <ele>1249.210</ele>
        <time>2026-05-09T02:12:00Z</time>
      </trkpt>
      <trkpt lat="46.455090265" lon="7.016910185">
        <ele>1248.980</ele>
        <time>2026-05-09T02:13:00Z</time>
      </trkpt>
      <trkpt lat="46.455080265" lon="7.016860185">
        <ele>1247.500</ele>
        <time>2026-05-09T02:14:00Z</time>
      </trkpt>
      <trkpt lat="46.455080264" lon="7.016760185">
        <ele>1245.400</ele>
        <time>2026-05-09T02:15:00Z</time>
      </trkpt>
      <trkpt lat="46.455080264" lon="7.016750185">
        <ele>1245.490</ele>
        <time>2026-05-09T02:16:00Z</time>
      </trkpt>
      <trkpt lat="46.455070264" lon="7.016740185">
        <ele>1245.170</ele>
        <time>2026-05-09T02:17:00Z</time>
      </trkpt>
      <trkpt lat="46.455060264" lon="7.016700184">
        <ele>1244.100</ele>
        <time>2026-05-09T02:18:00Z</time>
      </trkpt>
      <trkpt lat="46.455000264" lon="7.016590184">
        <ele>1241.840</ele>
        <time>2026-05-09T02:19:00Z</time>
      </trkpt>
      <trkpt lat="46.455000264" lon="7.016590184">
        <ele>1241.800</ele>
        <time>2026-05-09T02:20:00Z</time>
      </trkpt>
      <trkpt lat="46.454990264" lon="7.016570184">
        <ele>1241.640</ele>
        <time>2026-05-09T02:21:00Z</time>
      </trkpt>
      <trkpt lat="46.454990264" lon="7.016540184">
        <ele>1241.400</ele>
        <time>2026-05-09T02:22:00Z</time>
      </trkpt>
      <trkpt lat="46.454960263" lon="7.016490184">
        <ele>1240.530</ele>
        <time>2026-05-09T02:23:00Z</time>
      </trkpt>
      <trkpt lat="46.454890263" lon="7.016390184">
        <ele>1238.800</ele>
        <time>2026-05-09T02:24:00Z</time>
      </trkpt>
      <trkpt lat="46.454840263" lon="7.016300184">
        <ele>1237.300</ele>
        <time>2026-05-09T02:25:00Z</time>
      </trkpt>
      <trkpt lat="46.454830262" lon="7.016220183">
        <ele>1235.300</ele>
        <time>2026-05-09T02:26:00Z</time>
      </trkpt>
      <trkpt lat="46.454850262" lon="7.016080183">
        <ele>1231.070</ele>
        <time>2026-05-09T02:27:00Z</time>
      </trkpt>
      <trkpt lat="46.454860261" lon="7.015960182">
        <ele>1227.850</ele>
        <time>2026-05-09T02:28:00Z</time>
      </trkpt>
      <trkpt lat="46.454860261" lon="7.015950182">
        <ele>1227.600</ele>
        <time>2026-05-09T02:29:00Z</time>
      </trkpt>
      <trkpt lat="46.454770260" lon="7.015910182">
        <ele>1222.700</ele>
        <time>2026-05-09T02:30:00Z</time>
      </trkpt>
      <trkpt lat="46.454720260" lon="7.015900181">
        <ele>1221.000</ele>
        <time>2026-05-09T02:31:00Z</time>
      </trkpt>
      <trkpt lat="46.454690259" lon="7.015910181">
        <ele>1220.400</ele>
        <time>2026-05-09T02:32:00Z</time>
      </trkpt>
      <trkpt lat="46.454650259" lon="7.015910181">
        <ele>1219.100</ele>
        <time>2026-05-09T02:33:00Z</time>
      </trkpt>
      <trkpt lat="46.454640259" lon="7.015900181">
        <ele>1217.990</ele>
        <time>2026-05-09T02:34:00Z</time>
      </trkpt>
      <trkpt lat="46.454630259" lon="7.015900181">
        <ele>1217.830</ele>
        <time>2026-05-09T02:35:00Z</time>
      </trkpt>
      <trkpt lat="46.454630259" lon="7.015900181">
        <ele>1217.780</ele>
        <time>2026-05-09T02:36:00Z</time>
      </trkpt>
      <trkpt lat="46.454620259" lon="7.015870181">
        <ele>1217.200</ele>
        <time>2026-05-09T02:37:00Z</time>
      </trkpt>
      <trkpt lat="46.454630258" lon="7.015830181">
        <ele>1215.700</ele>
        <time>2026-05-09T02:38:00Z</time>
      </trkpt>
      <trkpt lat="46.454600257" lon="7.015690180">
        <ele>1209.900</ele>
        <time>2026-05-09T02:39:00Z</time>
      </trkpt>
      <trkpt lat="46.454550256" lon="7.015520179">
        <ele>1206.200</ele>
        <time>2026-05-09T02:40:00Z</time>
      </trkpt>
      <trkpt lat="46.454520256" lon="7.015440179">
        <ele>1204.080</ele>
        <time>2026-05-09T02:41:00Z</time>
      </trkpt>
      <trkpt lat="46.454510256" lon="7.015430179">
        <ele>1203.900</ele>
        <time>2026-05-09T02:42:00Z</time>
      </trkpt>
      <trkpt lat="46.454510256" lon="7.015380179">
        <ele>1202.240</ele>
        <time>2026-05-09T02:43:00Z</time>
      </trkpt>
      <trkpt lat="46.454500256" lon="7.015350179">
        <ele>1201.700</ele>
        <time>2026-05-09T02:44:00Z</time>
      </trkpt>
      <trkpt lat="46.454480255" lon="7.015330179">
        <ele>1200.800</ele>
        <time>2026-05-09T02:45:00Z</time>
      </trkpt>
      <trkpt lat="46.454460255" lon="7.015290178">
        <ele>1198.700</ele>
        <time>2026-05-09T02:46:00Z</time>
      </trkpt>
      <trkpt lat="46.454450255" lon="7.015270178">
        <ele>1198.400</ele>
        <time>2026-05-09T02:47:00Z</time>
      </trkpt>
      <trkpt lat="46.454450255" lon="7.015250178">
        <ele>1198.100</ele>
        <time>2026-05-09T02:48:00Z</time>
      </trkpt>
      <trkpt lat="46.454450255" lon="7.015200178">
        <ele>1196.200</ele>
        <time>2026-05-09T02:49:00Z</time>
      </trkpt>
      <trkpt lat="46.454440254" lon="7.015170178">
        <ele>1195.280</ele>
        <time>2026-05-09T02:50:00Z</time>
      </trkpt>
      <trkpt lat="46.454430254" lon="7.015130178">
        <ele>1194.300</ele>
        <time>2026-05-09T02:51:00Z</time>
      </trkpt>
      <trkpt lat="46.454400253" lon="7.015030177">
        <ele>1190.100</ele>
        <time>2026-05-09T02:52:00Z</time>
      </trkpt>
      <trkpt lat="46.454350253" lon="7.014950177">
        <ele>1186.400</ele>
        <time>2026-05-09T02:53:00Z</time>
      </trkpt>
      <trkpt lat="46.454340253" lon="7.014940177">
        <ele>1186.050</ele>
        <time>2026-05-09T02:54:00Z</time>
      </trkpt>
      <trkpt lat="46.454300252" lon="7.014860176">
        <ele>1183.500</ele>
        <time>2026-05-09T02:55:00Z</time>
      </trkpt>
      <trkpt lat="46.454280252" lon="7.014840176">
        <ele>1182.090</ele>
        <time>2026-05-09T02:56:00Z</time>
      </trkpt>
      <trkpt lat="46.454240251" lon="7.014810176">
        <ele>1179.800</ele>
        <time>2026-05-09T02:57:00Z</time>
      </trkpt>
      <trkpt lat="46.454130250" lon="7.014640175">
        <ele>1172.500</ele>
        <time>2026-05-09T02:58:00Z</time>
      </trkpt>
      <trkpt lat="46.454080249" lon="7.014550174">
        <ele>1167.700</ele>
        <time>2026-05-09T02:59:00Z</time>
      </trkpt>
      <trkpt lat="46.454040248" lon="7.014460173">
        <ele>1163.820</ele>
        <time>2026-05-09T03:00:00Z</time>
      </trkpt>
      <trkpt lat="46.454010248" lon="7.014410173">
        <ele>1161.300</ele>
        <time>2026-05-09T03:01:00Z</time>
      </trkpt>
      <trkpt lat="46.453940247" lon="7.014330173">
        <ele>1159.100</ele>
        <time>2026-05-09T03:02:00Z</time>
      </trkpt>
      <trkpt lat="46.453850247" lon="7.014230172">
        <ele>1154.500</ele>
        <time>2026-05-09T03:03:00Z</time>
      </trkpt>
      <trkpt lat="46.453760246" lon="7.014140172">
        <ele>1151.300</ele>
        <time>2026-05-09T03:04:00Z</time>
      </trkpt>
      <trkpt lat="46.453740245" lon="7.014100172">
        <ele>1149.980</ele>
        <time>2026-05-09T03:05:00Z</time>
      </trkpt>
      <trkpt lat="46.453720245" lon="7.014060171">
        <ele>1148.200</ele>
        <time>2026-05-09T03:06:00Z</time>
      </trkpt>
      <trkpt lat="46.453520244" lon="7.013800170">
        <ele>1139.600</ele>
        <time>2026-05-09T03:07:00Z</time>
      </trkpt>
      <trkpt lat="46.453500243" lon="7.013790170">
        <ele>1138.810</ele>
        <time>2026-05-09T03:08:00Z</time>
      </trkpt>
      <trkpt lat="46.453480243" lon="7.013770170">
        <ele>1138.200</ele>
        <time>2026-05-09T03:09:00Z</time>
      </trkpt>
      <trkpt lat="46.453470243" lon="7.013800170">
        <ele>1137.740</ele>
        <time>2026-05-09T03:10:00Z</time>
      </trkpt>
      <trkpt lat="46.453460243" lon="7.013810170">
        <ele>1137.200</ele>
        <time>2026-05-09T03:11:00Z</time>
      </trkpt>
      <trkpt lat="46.453450243" lon="7.013810170">
        <ele>1137.270</ele>
        <time>2026-05-09T03:12:00Z</time>
      </trkpt>
      <trkpt lat="46.453410243" lon="7.013750169">
        <ele>1135.600</ele>
        <time>2026-05-09T03:13:00Z</time>
      </trkpt>
      <trkpt lat="46.453330242" lon="7.013620169">
        <ele>1131.700</ele>
        <time>2026-05-09T03:14:00Z</time>
      </trkpt>
      <trkpt lat="46.453290241" lon="7.013550169">
        <ele>1128.900</ele>
        <time>2026-05-09T03:15:00Z</time>
      </trkpt>
      <trkpt lat="46.453290241" lon="7.013550169">
        <ele>1128.920</ele>
        <time>2026-05-09T03:16:00Z</time>
      </trkpt>
      <trkpt lat="46.453190241" lon="7.013560168">
        <ele>1126.700</ele>
        <time>2026-05-09T03:17:00Z</time>
      </trkpt>
      <trkpt lat="46.453150240" lon="7.013530168">
        <ele>1124.500</ele>
        <time>2026-05-09T03:18:00Z</time>
      </trkpt>
      <trkpt lat="46.453140240" lon="7.013520168">
        <ele>1124.480</ele>
        <time>2026-05-09T03:19:00Z</time>
      </trkpt>
      <trkpt lat="46.453140240" lon="7.013520168">
        <ele>1124.500</ele>
        <time>2026-05-09T03:20:00Z</time>
      </trkpt>
      <trkpt lat="46.453160240" lon="7.013480168">
        <ele>1124.280</ele>
        <time>2026-05-09T03:21:00Z</time>
      </trkpt>
      <trkpt lat="46.453170240" lon="7.013460168">
        <ele>1124.200</ele>
        <time>2026-05-09T03:22:00Z</time>
      </trkpt>
      <trkpt lat="46.453180240" lon="7.013440168">
        <ele>1124.000</ele>
        <time>2026-05-09T03:23:00Z</time>
      </trkpt>
      <trkpt lat="46.453200240" lon="7.013430168">
        <ele>1123.980</ele>
        <time>2026-05-09T03:24:00Z</time>
      </trkpt>
      <trkpt lat="46.453210240" lon="7.013430168">
        <ele>1123.900</ele>
        <time>2026-05-09T03:25:00Z</time>
      </trkpt>
      <trkpt lat="46.453270240" lon="7.013420168">
        <ele>1123.360</ele>
        <time>2026-05-09T03:26:00Z</time>
      </trkpt>
      <trkpt lat="46.453280240" lon="7.013420168">
        <ele>1122.920</ele>
        <time>2026-05-09T03:27:00Z</time>
      </trkpt>
      <trkpt lat="46.453270240" lon="7.013420168">
        <ele>1123.360</ele>
        <time>2026-05-09T03:28:00Z</time>
      </trkpt>
      <trkpt lat="46.453420240" lon="7.013420167">
        <ele>1121.400</ele>
        <time>2026-05-09T03:29:00Z</time>
      </trkpt>
      <trkpt lat="46.453600239" lon="7.013370167">
        <ele>1119.400</ele>
        <time>2026-05-09T03:30:00Z</time>
      </trkpt>
      <trkpt lat="46.453730239" lon="7.013280167">
        <ele>1118.400</ele>
        <time>2026-05-09T03:31:00Z</time>
      </trkpt>
      <trkpt lat="46.453780239" lon="7.013240167">
        <ele>1117.900</ele>
        <time>2026-05-09T03:32:00Z</time>
      </trkpt>
      <trkpt lat="46.453820239" lon="7.013190167">
        <ele>1117.300</ele>
        <time>2026-05-09T03:33:00Z</time>
      </trkpt>
      <trkpt lat="46.453840239" lon="7.013150167">
        <ele>1116.500</ele>
        <time>2026-05-09T03:34:00Z</time>
      </trkpt>
      <trkpt lat="46.453840239" lon="7.013130167">
        <ele>1116.490</ele>
        <time>2026-05-09T03:35:00Z</time>
      </trkpt>
      <trkpt lat="46.453850239" lon="7.013060167">
        <ele>1116.240</ele>
        <time>2026-05-09T03:36:00Z</time>
      </trkpt>
      <trkpt lat="46.453870239" lon="7.012980167">
        <ele>1115.900</ele>
        <time>2026-05-09T03:37:00Z</time>
      </trkpt>
      <trkpt lat="46.453860239" lon="7.012940167">
        <ele>1115.640</ele>
        <time>2026-05-09T03:38:00Z</time>
      </trkpt>
      <trkpt lat="46.453850239" lon="7.012820167">
        <ele>1114.620</ele>
        <time>2026-05-09T03:39:00Z</time>
      </trkpt>
      <trkpt lat="46.453840239" lon="7.012780167">
        <ele>1114.500</ele>
        <time>2026-05-09T03:40:00Z</time>
      </trkpt>
      <trkpt lat="46.453820238" lon="7.012740166">
        <ele>1114.220</ele>
        <time>2026-05-09T03:41:00Z</time>
      </trkpt>
      <trkpt lat="46.453810238" lon="7.012730167">
        <ele>1114.100</ele>
        <time>2026-05-09T03:42:00Z</time>
      </trkpt>
      <trkpt lat="46.453780238" lon="7.012600167">
        <ele>1113.700</ele>
        <time>2026-05-09T03:43:00Z</time>
      </trkpt>
      <trkpt lat="46.453750238" lon="7.012480166">
        <ele>1112.790</ele>
        <time>2026-05-09T03:44:00Z</time>
      </trkpt>
      <trkpt lat="46.453750238" lon="7.012460167">
        <ele>1112.600</ele>
        <time>2026-05-09T03:45:00Z</time>
      </trkpt>
      <trkpt lat="46.453730238" lon="7.012370166">
        <ele>1112.000</ele>
        <time>2026-05-09T03:46:00Z</time>
      </trkpt>
      <trkpt lat="46.453720238" lon="7.012280166">
        <ele>1111.400</ele>
        <time>2026-05-09T03:47:00Z</time>
      </trkpt>
      <trkpt lat="46.453750238" lon="7.012090166">
        <ele>1111.300</ele>
        <time>2026-05-09T03:48:00Z</time>
      </trkpt>
      <trkpt lat="46.453770238" lon="7.011870166">
        <ele>1110.300</ele>
        <time>2026-05-09T03:49:00Z</time>
      </trkpt>
      <trkpt lat="46.453820237" lon="7.011480166">
        <ele>1109.400</ele>
        <time>2026-05-09T03:50:00Z</time>
      </trkpt>
      <trkpt lat="46.453830237" lon="7.011240166">
        <ele>1108.930</ele>
        <time>2026-05-09T03:51:00Z</time>
      </trkpt>
      <trkpt lat="46.453830237" lon="7.011210166">
        <ele>1109.100</ele>
        <time>2026-05-09T03:52:00Z</time>
      </trkpt>
      <trkpt lat="46.453860238" lon="7.011040166">
        <ele>1110.300</ele>
        <time>2026-05-09T03:53:00Z</time>
      </trkpt>
      <trkpt lat="46.453890237" lon="7.010950166">
        <ele>1110.820</ele>
        <time>2026-05-09T03:54:00Z</time>
      </trkpt>
      <trkpt lat="46.453900238" lon="7.010880166">
        <ele>1111.200</ele>
        <time>2026-05-09T03:55:00Z</time>
      </trkpt>
      <trkpt lat="46.453920238" lon="7.010840166">
        <ele>1111.080</ele>
        <time>2026-05-09T03:56:00Z</time>
      </trkpt>
      <trkpt lat="46.453990238" lon="7.010710166">
        <ele>1110.900</ele>
        <time>2026-05-09T03:57:00Z</time>
      </trkpt>
      <trkpt lat="46.454030238" lon="7.010700166">
        <ele>1110.830</ele>
        <time>2026-05-09T03:58:00Z</time>
      </trkpt>
      <trkpt lat="46.454050238" lon="7.010690166">
        <ele>1110.800</ele>
        <time>2026-05-09T03:59:00Z</time>
      </trkpt>
      <trkpt lat="46.454110238" lon="7.010680166">
        <ele>1110.700</ele>
        <time>2026-05-09T04:00:00Z</time>
      </trkpt>
      <trkpt lat="46.454130237" lon="7.010700166">
        <ele>1110.670</ele>
        <time>2026-05-09T04:01:00Z</time>
      </trkpt>
      <trkpt lat="46.454150238" lon="7.010710166">
        <ele>1110.600</ele>
        <time>2026-05-09T04:02:00Z</time>
      </trkpt>
      <trkpt lat="46.454180237" lon="7.010740166">
        <ele>1110.460</ele>
        <time>2026-05-09T04:03:00Z</time>
      </trkpt>
      <trkpt lat="46.454220238" lon="7.010790166">
        <ele>1110.300</ele>
        <time>2026-05-09T04:04:00Z</time>
      </trkpt>
      <trkpt lat="46.454350237" lon="7.011010166">
        <ele>1109.300</ele>
        <time>2026-05-09T04:05:00Z</time>
      </trkpt>
      <trkpt lat="46.454410237" lon="7.011090166">
        <ele>1109.100</ele>
        <time>2026-05-09T04:06:00Z</time>
      </trkpt>
      <trkpt lat="46.454480237" lon="7.011140166">
        <ele>1109.100</ele>
        <time>2026-05-09T04:07:00Z</time>
      </trkpt>
      <trkpt lat="46.454490237" lon="7.011150166">
        <ele>1109.030</ele>
        <time>2026-05-09T04:08:00Z</time>
      </trkpt>
      <trkpt lat="46.454510237" lon="7.011160166">
        <ele>1109.000</ele>
        <time>2026-05-09T04:09:00Z</time>
      </trkpt>
      <trkpt lat="46.454560237" lon="7.011200166">
        <ele>1108.800</ele>
        <time>2026-05-09T04:10:00Z</time>
      </trkpt>
      <trkpt lat="46.454650237" lon="7.011240166">
        <ele>1108.600</ele>
        <time>2026-05-09T04:11:00Z</time>
      </trkpt>
      <trkpt lat="46.454710237" lon="7.011270166">
        <ele>1108.200</ele>
        <time>2026-05-09T04:12:00Z</time>
      </trkpt>
      <trkpt lat="46.454730237" lon="7.011280166">
        <ele>1108.100</ele>
        <time>2026-05-09T04:13:00Z</time>
      </trkpt>
      <trkpt lat="46.454830237" lon="7.011300166">
        <ele>1107.800</ele>
        <time>2026-05-09T04:14:00Z</time>
      </trkpt>
      <trkpt lat="46.455020237" lon="7.011300166">
        <ele>1107.200</ele>
        <time>2026-05-09T04:15:00Z</time>
      </trkpt>
      <trkpt lat="46.455050237" lon="7.011290166">
        <ele>1107.110</ele>
        <time>2026-05-09T04:16:00Z</time>
      </trkpt>
      <trkpt lat="46.455060237" lon="7.011290166">
        <ele>1107.100</ele>
        <time>2026-05-09T04:17:00Z</time>
      </trkpt>
      <trkpt lat="46.455180237" lon="7.011300166">
        <ele>1106.700</ele>
        <time>2026-05-09T04:18:00Z</time>
      </trkpt>
      <trkpt lat="46.455210237" lon="7.011310166">
        <ele>1106.690</ele>
        <time>2026-05-09T04:19:00Z</time>
      </trkpt>
      <trkpt lat="46.455290237" lon="7.011330165">
        <ele>1106.700</ele>
        <time>2026-05-09T04:20:00Z</time>
      </trkpt>
      <trkpt lat="46.455460237" lon="7.011380165">
        <ele>1105.990</ele>
        <time>2026-05-09T04:21:00Z</time>
      </trkpt>
      <trkpt lat="46.455530236" lon="7.011400166">
        <ele>1105.700</ele>
        <time>2026-05-09T04:22:00Z</time>
      </trkpt>
      <trkpt lat="46.455650236" lon="7.011410165">
        <ele>1104.900</ele>
        <time>2026-05-09T04:23:00Z</time>
      </trkpt>
      <trkpt lat="46.455930236" lon="7.011450165">
        <ele>1104.060</ele>
        <time>2026-05-09T04:24:00Z</time>
      </trkpt>
      <trkpt lat="46.456060236" lon="7.011460165">
        <ele>1103.400</ele>
        <time>2026-05-09T04:25:00Z</time>
      </trkpt>
      <trkpt lat="46.456160236" lon="7.011490165">
        <ele>1102.800</ele>
        <time>2026-05-09T04:26:00Z</time>
      </trkpt>
      <trkpt lat="46.456240236" lon="7.011550165">
        <ele>1102.700</ele>
        <time>2026-05-09T04:27:00Z</time>
      </trkpt>
      <trkpt lat="46.456310236" lon="7.011600165">
        <ele>1102.760</ele>
        <time>2026-05-09T04:28:00Z</time>
      </trkpt>
      <trkpt lat="46.456340236" lon="7.011610165">
        <ele>1102.750</ele>
        <time>2026-05-09T04:29:00Z</time>
      </trkpt>
      <trkpt lat="46.456420236" lon="7.011670165">
        <ele>1102.500</ele>
        <time>2026-05-09T04:30:00Z</time>
      </trkpt>
      <trkpt lat="46.456500236" lon="7.011710165">
        <ele>1102.180</ele>
        <time>2026-05-09T04:31:00Z</time>
      </trkpt>
      <trkpt lat="46.456520236" lon="7.011720165">
        <ele>1102.100</ele>
        <time>2026-05-09T04:32:00Z</time>
      </trkpt>
      <trkpt lat="46.456610236" lon="7.011790165">
        <ele>1101.700</ele>
        <time>2026-05-09T04:33:00Z</time>
      </trkpt>
      <trkpt lat="46.456690236" lon="7.011860165">
        <ele>1101.400</ele>
        <time>2026-05-09T04:34:00Z</time>
      </trkpt>
      <trkpt lat="46.456710236" lon="7.011880165">
        <ele>1101.280</ele>
        <time>2026-05-09T04:35:00Z</time>
      </trkpt>
      <trkpt lat="46.456800236" lon="7.011940165">
        <ele>1101.000</ele>
        <time>2026-05-09T04:36:00Z</time>
      </trkpt>
      <trkpt lat="46.456910235" lon="7.012060164">
        <ele>1100.090</ele>
        <time>2026-05-09T04:37:00Z</time>
      </trkpt>
      <trkpt lat="46.456950236" lon="7.012090165">
        <ele>1099.800</ele>
        <time>2026-05-09T04:38:00Z</time>
      </trkpt>
      <trkpt lat="46.456990235" lon="7.012150165">
        <ele>1100.200</ele>
        <time>2026-05-09T04:39:00Z</time>
      </trkpt>
      <trkpt lat="46.457230235" lon="7.012300164">
        <ele>1099.350</ele>
        <time>2026-05-09T04:40:00Z</time>
      </trkpt>
      <trkpt lat="46.457240236" lon="7.012300164">
        <ele>1099.300</ele>
        <time>2026-05-09T04:41:00Z</time>
      </trkpt>
      <trkpt lat="46.457290235" lon="7.012390165">
        <ele>1098.980</ele>
        <time>2026-05-09T04:42:00Z</time>
      </trkpt>
      <trkpt lat="46.457320235" lon="7.012440165">
        <ele>1098.800</ele>
        <time>2026-05-09T04:43:00Z</time>
      </trkpt>
      <trkpt lat="46.457370235" lon="7.012520164">
        <ele>1098.500</ele>
        <time>2026-05-09T04:44:00Z</time>
      </trkpt>
      <trkpt lat="46.457460235" lon="7.012580164">
        <ele>1098.100</ele>
        <time>2026-05-09T04:45:00Z</time>
      </trkpt>
      <trkpt lat="46.457570235" lon="7.012650164">
        <ele>1097.900</ele>
        <time>2026-05-09T04:46:00Z</time>
      </trkpt>
      <trkpt lat="46.457650235" lon="7.012660164">
        <ele>1097.700</ele>
        <time>2026-05-09T04:47:00Z</time>
      </trkpt>
      <trkpt lat="46.457720235" lon="7.012690164">
        <ele>1097.550</ele>
        <time>2026-05-09T04:48:00Z</time>
      </trkpt>
      <trkpt lat="46.457740235" lon="7.012700164">
        <ele>1097.500</ele>
        <time>2026-05-09T04:49:00Z</time>
      </trkpt>
      <trkpt lat="46.457760235" lon="7.012710164">
        <ele>1097.470</ele>
        <time>2026-05-09T04:50:00Z</time>
      </trkpt>
      <trkpt lat="46.457800235" lon="7.012740164">
        <ele>1097.400</ele>
        <time>2026-05-09T04:51:00Z</time>
      </trkpt>
      <trkpt lat="46.457810235" lon="7.012760164">
        <ele>1097.330</ele>
        <time>2026-05-09T04:52:00Z</time>
      </trkpt>
      <trkpt lat="46.457860235" lon="7.012820164">
        <ele>1097.000</ele>
        <time>2026-05-09T04:53:00Z</time>
      </trkpt>
      <trkpt lat="46.457930235" lon="7.012930164">
        <ele>1096.400</ele>
        <time>2026-05-09T04:54:00Z</time>
      </trkpt>
      <trkpt lat="46.457990235" lon="7.013000164">
        <ele>1095.970</ele>
        <time>2026-05-09T04:55:00Z</time>
      </trkpt>
      <trkpt lat="46.458050235" lon="7.013070164">
        <ele>1095.600</ele>
        <time>2026-05-09T04:56:00Z</time>
      </trkpt>
      <trkpt lat="46.458180234" lon="7.013200164">
        <ele>1094.900</ele>
        <time>2026-05-09T04:57:00Z</time>
      </trkpt>
      <trkpt lat="46.458220235" lon="7.013220164">
        <ele>1094.770</ele>
        <time>2026-05-09T04:58:00Z</time>
      </trkpt>
      <trkpt lat="46.458290235" lon="7.013260164">
        <ele>1094.600</ele>
        <time>2026-05-09T04:59:00Z</time>
      </trkpt>
      <trkpt lat="46.458350235" lon="7.013270164">
        <ele>1094.400</ele>
        <time>2026-05-09T05:00:00Z</time>
      </trkpt>
      <trkpt lat="46.458400235" lon="7.013270164">
        <ele>1094.200</ele>
        <time>2026-05-09T05:01:00Z</time>
      </trkpt>
      <trkpt lat="46.458480234" lon="7.013240164">
        <ele>1093.500</ele>
        <time>2026-05-09T05:02:00Z</time>
      </trkpt>
      <trkpt lat="46.458540234" lon="7.013210164">
        <ele>1093.270</ele>
        <time>2026-05-09T05:03:00Z</time>
      </trkpt>
      <trkpt lat="46.458560234" lon="7.013200164">
        <ele>1093.100</ele>
        <time>2026-05-09T05:04:00Z</time>
      </trkpt>
      <trkpt lat="46.458740234" lon="7.013150164">
        <ele>1093.600</ele>
        <time>2026-05-09T05:05:00Z</time>
      </trkpt>
      <trkpt lat="46.458850234" lon="7.013150164">
        <ele>1093.500</ele>
        <time>2026-05-09T05:06:00Z</time>
      </trkpt>
      <trkpt lat="46.458940234" lon="7.013160164">
        <ele>1093.400</ele>
        <time>2026-05-09T05:07:00Z</time>
      </trkpt>
      <trkpt lat="46.458990234" lon="7.013170164">
        <ele>1093.290</ele>
        <time>2026-05-09T05:08:00Z</time>
      </trkpt>
      <trkpt lat="46.459230234" lon="7.013250164">
        <ele>1093.400</ele>
        <time>2026-05-09T05:09:00Z</time>
      </trkpt>
      <trkpt lat="46.459340234" lon="7.013290164">
        <ele>1093.500</ele>
        <time>2026-05-09T05:10:00Z</time>
      </trkpt>
      <trkpt lat="46.459590234" lon="7.013390164">
        <ele>1093.000</ele>
        <time>2026-05-09T05:11:00Z</time>
      </trkpt>
      <trkpt lat="46.460000234" lon="7.013590164">
        <ele>1093.500</ele>
        <time>2026-05-09T05:12:00Z</time>
      </trkpt>
      <trkpt lat="46.460150234" lon="7.013690164">
        <ele>1093.360</ele>
        <time>2026-05-09T05:13:00Z</time>
      </trkpt>
      <trkpt lat="46.460410234" lon="7.013850164">
        <ele>1092.900</ele>
        <time>2026-05-09T05:14:00Z</time>
      </trkpt>
      <trkpt lat="46.460490234" lon="7.013910164">
        <ele>1092.700</ele>
        <time>2026-05-09T05:15:00Z</time>
      </trkpt>
      <trkpt lat="46.460570234" lon="7.013970164">
        <ele>1092.700</ele>
        <time>2026-05-09T05:16:00Z</time>
      </trkpt>
      <trkpt lat="46.460610234" lon="7.013980164">
        <ele>1092.730</ele>
        <time>2026-05-09T05:17:00Z</time>
      </trkpt>
      <trkpt lat="46.460670234" lon="7.013990164">
        <ele>1092.800</ele>
        <time>2026-05-09T05:18:00Z</time>
      </trkpt>
      <trkpt lat="46.460740234" lon="7.013990164">
        <ele>1092.700</ele>
        <time>2026-05-09T05:19:00Z</time>
      </trkpt>
      <trkpt lat="46.460790234" lon="7.013980164">
        <ele>1092.680</ele>
        <time>2026-05-09T05:20:00Z</time>
      </trkpt>
      <trkpt lat="46.460860234" lon="7.013980164">
        <ele>1092.700</ele>
        <time>2026-05-09T05:21:00Z</time>
      </trkpt>
      <trkpt lat="46.460920234" lon="7.013990164">
        <ele>1092.720</ele>
        <time>2026-05-09T05:22:00Z</time>
      </trkpt>
      <trkpt lat="46.460950234" lon="7.013990164">
        <ele>1092.760</ele>
        <time>2026-05-09T05:23:00Z</time>
      </trkpt>
      <trkpt lat="46.461000234" lon="7.013990164">
        <ele>1092.800</ele>
        <time>2026-05-09T05:24:00Z</time>
      </trkpt>
      <trkpt lat="46.461050234" lon="7.014000164">
        <ele>1092.900</ele>
        <time>2026-05-09T05:25:00Z</time>
      </trkpt>
      <trkpt lat="46.461200234" lon="7.014070164">
        <ele>1093.000</ele>
        <time>2026-05-09T05:26:00Z</time>
      </trkpt>
      <trkpt lat="46.461250234" lon="7.014090164">
        <ele>1092.980</ele>
        <time>2026-05-09T05:27:00Z</time>
      </trkpt>
      <trkpt lat="46.461280234" lon="7.014100164">
        <ele>1093.000</ele>
        <time>2026-05-09T05:28:00Z</time>
      </trkpt>
      <trkpt lat="46.461390234" lon="7.014130164">
        <ele>1092.900</ele>
        <time>2026-05-09T05:29:00Z</time>
      </trkpt>
      <trkpt lat="46.461490234" lon="7.014140164">
        <ele>1093.200</ele>
        <time>2026-05-09T05:30:00Z</time>
      </trkpt>
      <trkpt lat="46.461550234" lon="7.014140164">
        <ele>1093.200</ele>
        <time>2026-05-09T05:31:00Z</time>
      </trkpt>
      <trkpt lat="46.461590234" lon="7.014120164">
        <ele>1092.970</ele>
        <time>2026-05-09T05:32:00Z</time>
      </trkpt>
      <trkpt lat="46.461610234" lon="7.014110164">
        <ele>1092.830</ele>
        <time>2026-05-09T05:33:00Z</time>
      </trkpt>
      <trkpt lat="46.461620234" lon="7.014100164">
        <ele>1092.900</ele>
        <time>2026-05-09T05:34:00Z</time>
      </trkpt>
      <trkpt lat="46.461450234" lon="7.014070163">
        <ele>1091.230</ele>
        <time>2026-05-09T05:35:00Z</time>
      </trkpt>
      <trkpt lat="46.461430234" lon="7.014060163">
        <ele>1090.800</ele>
        <time>2026-05-09T05:36:00Z</time>
      </trkpt>
      <trkpt lat="46.461350234" lon="7.014040163">
        <ele>1090.100</ele>
        <time>2026-05-09T05:37:00Z</time>
      </trkpt>
      <trkpt lat="46.461270234" lon="7.014010163">
        <ele>1089.700</ele>
        <time>2026-05-09T05:38:00Z</time>
      </trkpt>
      <trkpt lat="46.461190233" lon="7.013960163">
        <ele>1089.400</ele>
        <time>2026-05-09T05:39:00Z</time>
      </trkpt>
      <trkpt lat="46.461010233" lon="7.013820163">
        <ele>1087.400</ele>
        <time>2026-05-09T05:40:00Z</time>
      </trkpt>
      <trkpt lat="46.460810232" lon="7.013680162">
        <ele>1083.300</ele>
        <time>2026-05-09T05:41:00Z</time>
      </trkpt>
      <trkpt lat="46.460760232" lon="7.013620162">
        <ele>1081.890</ele>
        <time>2026-05-09T05:42:00Z</time>
      </trkpt>
      <trkpt lat="46.460710232" lon="7.013570162">
        <ele>1080.600</ele>
        <time>2026-05-09T05:43:00Z</time>
      </trkpt>
      <trkpt lat="46.460630232" lon="7.013530162">
        <ele>1079.220</ele>
        <time>2026-05-09T05:44:00Z</time>
      </trkpt>
      <trkpt lat="46.460580231" lon="7.013500161">
        <ele>1078.200</ele>
        <time>2026-05-09T05:45:00Z</time>
      </trkpt>
      <trkpt lat="46.460520231" lon="7.013440161">
        <ele>1077.650</ele>
        <time>2026-05-09T05:46:00Z</time>
      </trkpt>
      <trkpt lat="46.460500231" lon="7.013420162">
        <ele>1077.400</ele>
        <time>2026-05-09T05:47:00Z</time>
      </trkpt>
      <trkpt lat="46.460490231" lon="7.013400162">
        <ele>1077.320</ele>
        <time>2026-05-09T05:48:00Z</time>
      </trkpt>
      <trkpt lat="46.460450231" lon="7.013370161">
        <ele>1077.100</ele>
        <time>2026-05-09T05:49:00Z</time>
      </trkpt>
      <trkpt lat="46.460280231" lon="7.013140161">
        <ele>1074.700</ele>
        <time>2026-05-09T05:50:00Z</time>
      </trkpt>
      <trkpt lat="46.460240230" lon="7.013080161">
        <ele>1074.120</ele>
        <time>2026-05-09T05:51:00Z</time>
      </trkpt>
      <trkpt lat="46.460150230" lon="7.012940161">
        <ele>1072.800</ele>
        <time>2026-05-09T05:52:00Z</time>
      </trkpt>
      <trkpt lat="46.460080230" lon="7.012810161">
        <ele>1072.400</ele>
        <time>2026-05-09T05:53:00Z</time>
      </trkpt>
      <trkpt lat="46.460060230" lon="7.012790161">
        <ele>1072.200</ele>
        <time>2026-05-09T05:54:00Z</time>
      </trkpt>
      <trkpt lat="46.459890230" lon="7.012640161">
        <ele>1069.400</ele>
        <time>2026-05-09T05:55:00Z</time>
      </trkpt>
      <trkpt lat="46.459790229" lon="7.012540160">
        <ele>1067.050</ele>
        <time>2026-05-09T05:56:00Z</time>
      </trkpt>
      <trkpt lat="46.459660228" lon="7.012420160">
        <ele>1064.160</ele>
        <time>2026-05-09T05:57:00Z</time>
      </trkpt>
      <trkpt lat="46.459570228" lon="7.012350160">
        <ele>1062.500</ele>
        <time>2026-05-09T05:58:00Z</time>
      </trkpt>
      <trkpt lat="46.459410228" lon="7.012240159">
        <ele>1060.600</ele>
        <time>2026-05-09T05:59:00Z</time>
      </trkpt>
      <trkpt lat="46.459340228" lon="7.012210159">
        <ele>1059.700</ele>
        <time>2026-05-09T06:00:00Z</time>
      </trkpt>
      <trkpt lat="46.459300227" lon="7.012190159">
        <ele>1058.640</ele>
        <time>2026-05-09T06:01:00Z</time>
      </trkpt>
      <trkpt lat="46.459270227" lon="7.012180159">
        <ele>1058.000</ele>
        <time>2026-05-09T06:02:00Z</time>
      </trkpt>
      <trkpt lat="46.459240227" lon="7.012160159">
        <ele>1057.650</ele>
        <time>2026-05-09T06:03:00Z</time>
      </trkpt>
      <trkpt lat="46.459210227" lon="7.012140159">
        <ele>1057.000</ele>
        <time>2026-05-09T06:04:00Z</time>
      </trkpt>
      <trkpt lat="46.459110227" lon="7.012050158">
        <ele>1055.590</ele>
        <time>2026-05-09T06:05:00Z</time>
      </trkpt>
      <trkpt lat="46.459040226" lon="7.012010159">
        <ele>1054.300</ele>
        <time>2026-05-09T06:06:00Z</time>
      </trkpt>
      <trkpt lat="46.458860226" lon="7.011990158">
        <ele>1052.400</ele>
        <time>2026-05-09T06:07:00Z</time>
      </trkpt>
      <trkpt lat="46.458810226" lon="7.011950158">
        <ele>1051.230</ele>
        <time>2026-05-09T06:08:00Z</time>
      </trkpt>
      <trkpt lat="46.458760226" lon="7.011910158">
        <ele>1050.100</ele>
        <time>2026-05-09T06:09:00Z</time>
      </trkpt>
      <trkpt lat="46.458670225" lon="7.011830158">
        <ele>1048.400</ele>
        <time>2026-05-09T06:10:00Z</time>
      </trkpt>
      <trkpt lat="46.458560225" lon="7.011730157">
        <ele>1047.800</ele>
        <time>2026-05-09T06:11:00Z</time>
      </trkpt>
      <trkpt lat="46.458510225" lon="7.011690157">
        <ele>1047.500</ele>
        <time>2026-05-09T06:12:00Z</time>
      </trkpt>
      <trkpt lat="46.458470225" lon="7.011680157">
        <ele>1046.960</ele>
        <time>2026-05-09T06:13:00Z</time>
      </trkpt>
      <trkpt lat="46.458430225" lon="7.011670157">
        <ele>1046.500</ele>
        <time>2026-05-09T06:14:00Z</time>
      </trkpt>
      <trkpt lat="46.458330225" lon="7.011610157">
        <ele>1044.690</ele>
        <time>2026-05-09T06:15:00Z</time>
      </trkpt>
      <trkpt lat="46.458290224" lon="7.011580157">
        <ele>1043.800</ele>
        <time>2026-05-09T06:16:00Z</time>
      </trkpt>
      <trkpt lat="46.458190224" lon="7.011520157">
        <ele>1042.000</ele>
        <time>2026-05-09T06:17:00Z</time>
      </trkpt>
      <trkpt lat="46.458100224" lon="7.011480156">
        <ele>1040.450</ele>
        <time>2026-05-09T06:18:00Z</time>
      </trkpt>
      <trkpt lat="46.457900223" lon="7.011370156">
        <ele>1036.940</ele>
        <time>2026-05-09T06:19:00Z</time>
      </trkpt>
      <trkpt lat="46.457810223" lon="7.011320156">
        <ele>1035.240</ele>
        <time>2026-05-09T06:20:00Z</time>
      </trkpt>
      <trkpt lat="46.457760223" lon="7.011290156">
        <ele>1034.400</ele>
        <time>2026-05-09T06:21:00Z</time>
      </trkpt>
      <trkpt lat="46.457720222" lon="7.011260156">
        <ele>1033.820</ele>
        <time>2026-05-09T06:22:00Z</time>
      </trkpt>
      <trkpt lat="46.457710222" lon="7.011250156">
        <ele>1033.780</ele>
        <time>2026-05-09T06:23:00Z</time>
      </trkpt>
      <trkpt lat="46.457690222" lon="7.011230155">
        <ele>1033.410</ele>
        <time>2026-05-09T06:24:00Z</time>
      </trkpt>
      <trkpt lat="46.457630222" lon="7.011180155">
        <ele>1032.700</ele>
        <time>2026-05-09T06:25:00Z</time>
      </trkpt>
      <trkpt lat="46.457540222" lon="7.011060155">
        <ele>1031.300</ele>
        <time>2026-05-09T06:26:00Z</time>
      </trkpt>
      <trkpt lat="46.457500222" lon="7.011040155">
        <ele>1031.160</ele>
        <time>2026-05-09T06:27:00Z</time>
      </trkpt>
      <trkpt lat="46.457460222" lon="7.011010155">
        <ele>1031.000</ele>
        <time>2026-05-09T06:28:00Z</time>
      </trkpt>
      <trkpt lat="46.457440222" lon="7.010990155">
        <ele>1031.040</ele>
        <time>2026-05-09T06:29:00Z</time>
      </trkpt>
      <trkpt lat="46.457400222" lon="7.010960155">
        <ele>1031.090</ele>
        <time>2026-05-09T06:30:00Z</time>
      </trkpt>
      <trkpt lat="46.457390222" lon="7.010960155">
        <ele>1031.100</ele>
        <time>2026-05-09T06:31:00Z</time>
      </trkpt>
      <trkpt lat="46.457430222" lon="7.010880155">
        <ele>1030.750</ele>
        <time>2026-05-09T06:32:00Z</time>
      </trkpt>
      <trkpt lat="46.457450222" lon="7.010810155">
        <ele>1029.700</ele>
        <time>2026-05-09T06:33:00Z</time>
      </trkpt>
      <trkpt lat="46.457440221" lon="7.010670154">
        <ele>1026.530</ele>
        <time>2026-05-09T06:34:00Z</time>
      </trkpt>
      <trkpt lat="46.457440221" lon="7.010670154">
        <ele>1026.600</ele>
        <time>2026-05-09T06:35:00Z</time>
      </trkpt>
      <trkpt lat="46.457470221" lon="7.010610154">
        <ele>1024.900</ele>
        <time>2026-05-09T06:36:00Z</time>
      </trkpt>
      <trkpt lat="46.457480220" lon="7.010550154">
        <ele>1023.100</ele>
        <time>2026-05-09T06:37:00Z</time>
      </trkpt>
      <trkpt lat="46.457480220" lon="7.010550154">
        <ele>1023.210</ele>
        <time>2026-05-09T06:38:00Z</time>
      </trkpt>
      <trkpt lat="46.457500220" lon="7.010530154">
        <ele>1022.810</ele>
        <time>2026-05-09T06:39:00Z</time>
      </trkpt>
      <trkpt lat="46.457520220" lon="7.010500154">
        <ele>1022.200</ele>
        <time>2026-05-09T06:40:00Z</time>
      </trkpt>
      <trkpt lat="46.457530220" lon="7.010330154">
        <ele>1018.800</ele>
        <time>2026-05-09T06:41:00Z</time>
      </trkpt>
      <trkpt lat="46.457510219" lon="7.010260153">
        <ele>1017.790</ele>
        <time>2026-05-09T06:42:00Z</time>
      </trkpt>
      <trkpt lat="46.457510219" lon="7.010230153">
        <ele>1017.400</ele>
        <time>2026-05-09T06:43:00Z</time>
      </trkpt>
      <trkpt lat="46.457510219" lon="7.010230153">
        <ele>1017.500</ele>
        <time>2026-05-09T06:44:00Z</time>
      </trkpt>
      <trkpt lat="46.457560218" lon="7.009900152">
        <ele>1010.800</ele>
        <time>2026-05-09T06:45:00Z</time>
      </trkpt>
      <trkpt lat="46.457650217" lon="7.009750152">
        <ele>1007.500</ele>
        <time>2026-05-09T06:46:00Z</time>
      </trkpt>
      <trkpt lat="46.457710217" lon="7.009680151">
        <ele>1004.850</ele>
        <time>2026-05-09T06:47:00Z</time>
      </trkpt>
      <trkpt lat="46.457740217" lon="7.009650151">
        <ele>1003.500</ele>
        <time>2026-05-09T06:48:00Z</time>
      </trkpt>
      <trkpt lat="46.457770216" lon="7.009650151">
        <ele>1003.160</ele>
        <time>2026-05-09T06:49:00Z</time>
      </trkpt>
      <trkpt lat="46.457840216" lon="7.009650151">
        <ele>1001.600</ele>
        <time>2026-05-09T06:50:00Z</time>
      </trkpt>
      <trkpt lat="46.457870216" lon="7.009660151">
        <ele>1000.810</ele>
        <time>2026-05-09T06:51:00Z</time>
      </trkpt>
      <trkpt lat="46.457900216" lon="7.009670151">
        <ele>999.900</ele>
        <time>2026-05-09T06:52:00Z</time>
      </trkpt>
      <trkpt lat="46.457980216" lon="7.009660151">
        <ele>998.380</ele>
        <time>2026-05-09T06:53:00Z</time>
      </trkpt>
      <trkpt lat="46.458060215" lon="7.009660150">
        <ele>996.600</ele>
        <time>2026-05-09T06:54:00Z</time>
      </trkpt>
      <trkpt lat="46.458090215" lon="7.009650150">
        <ele>996.180</ele>
        <time>2026-05-09T06:55:00Z</time>
      </trkpt>
      <trkpt lat="46.458120215" lon="7.009640150">
        <ele>995.800</ele>
        <time>2026-05-09T06:56:00Z</time>
      </trkpt>
      <trkpt lat="46.458200214" lon="7.009650150">
        <ele>993.520</ele>
        <time>2026-05-09T06:57:00Z</time>
      </trkpt>
      <trkpt lat="46.458240214" lon="7.009660150">
        <ele>992.400</ele>
        <time>2026-05-09T06:58:00Z</time>
      </trkpt>
      <trkpt lat="46.458400214" lon="7.009650150">
        <ele>991.400</ele>
        <time>2026-05-09T06:59:00Z</time>
      </trkpt>
      <trkpt lat="46.458430214" lon="7.009630150">
        <ele>991.300</ele>
        <time>2026-05-09T07:00:00Z</time>
      </trkpt>
      <trkpt lat="46.458450214" lon="7.009610150">
        <ele>991.300</ele>
        <time>2026-05-09T07:01:00Z</time>
      </trkpt>
      <trkpt lat="46.458770212" lon="7.009460148">
        <ele>980.100</ele>
        <time>2026-05-09T07:02:00Z</time>
      </trkpt>
      <trkpt lat="46.458820212" lon="7.009450148">
        <ele>978.860</ele>
        <time>2026-05-09T07:03:00Z</time>
      </trkpt>
      <trkpt lat="46.458860211" lon="7.009440148">
        <ele>977.600</ele>
        <time>2026-05-09T07:04:00Z</time>
      </trkpt>
      <trkpt lat="46.458910211" lon="7.009410148">
        <ele>976.080</ele>
        <time>2026-05-09T07:05:00Z</time>
      </trkpt>
      <trkpt lat="46.458950211" lon="7.009380147">
        <ele>974.800</ele>
        <time>2026-05-09T07:06:00Z</time>
      </trkpt>
      <trkpt lat="46.459070210" lon="7.009370147">
        <ele>973.400</ele>
        <time>2026-05-09T07:07:00Z</time>
      </trkpt>
      <trkpt lat="46.459120210" lon="7.009320147">
        <ele>971.000</ele>
        <time>2026-05-09T07:08:00Z</time>
      </trkpt>
      <trkpt lat="46.459200209" lon="7.009250146">
        <ele>968.500</ele>
        <time>2026-05-09T07:09:00Z</time>
      </trkpt>
      <trkpt lat="46.459370209" lon="7.009200146">
        <ele>964.800</ele>
        <time>2026-05-09T07:10:00Z</time>
      </trkpt>
      <trkpt lat="46.459470208" lon="7.009170146">
        <ele>961.800</ele>
        <time>2026-05-09T07:11:00Z</time>
      </trkpt>
      <trkpt lat="46.459560208" lon="7.009130145">
        <ele>959.560</ele>
        <time>2026-05-09T07:12:00Z</time>
      </trkpt>
      <trkpt lat="46.459570208" lon="7.009130145">
        <ele>959.380</ele>
        <time>2026-05-09T07:13:00Z</time>
      </trkpt>
      <trkpt lat="46.459610207" lon="7.009090145">
        <ele>956.900</ele>
        <time>2026-05-09T07:14:00Z</time>
      </trkpt>
      <trkpt lat="46.459670206" lon="7.008990144">
        <ele>952.400</ele>
        <time>2026-05-09T07:15:00Z</time>
      </trkpt>
      <trkpt lat="46.459730205" lon="7.008800143">
        <ele>947.100</ele>
        <time>2026-05-09T07:16:00Z</time>
      </trkpt>
      <trkpt lat="46.459760205" lon="7.008740143">
        <ele>946.500</ele>
        <time>2026-05-09T07:17:00Z</time>
      </trkpt>
      <trkpt lat="46.459770205" lon="7.008720144">
        <ele>946.230</ele>
        <time>2026-05-09T07:18:00Z</time>
      </trkpt>
      <trkpt lat="46.459790205" lon="7.008690143">
        <ele>945.600</ele>
        <time>2026-05-09T07:19:00Z</time>
      </trkpt>
      <trkpt lat="46.459890205" lon="7.008650143">
        <ele>944.800</ele>
        <time>2026-05-09T07:20:00Z</time>
      </trkpt>
      <trkpt lat="46.459920205" lon="7.008620143">
        <ele>944.380</ele>
        <time>2026-05-09T07:21:00Z</time>
      </trkpt>
      <trkpt lat="46.460070204" lon="7.008500143">
        <ele>943.000</ele>
        <time>2026-05-09T07:22:00Z</time>
      </trkpt>
      <trkpt lat="46.460140205" lon="7.008460143">
        <ele>942.500</ele>
        <time>2026-05-09T07:23:00Z</time>
      </trkpt>
      <trkpt lat="46.460200204" lon="7.008440143">
        <ele>941.900</ele>
        <time>2026-05-09T07:24:00Z</time>
      </trkpt>
      <trkpt lat="46.460230204" lon="7.008390143">
        <ele>941.430</ele>
        <time>2026-05-09T07:25:00Z</time>
      </trkpt>
      <trkpt lat="46.460240204" lon="7.008380143">
        <ele>941.300</ele>
        <time>2026-05-09T07:26:00Z</time>
      </trkpt>
      <trkpt lat="46.460330204" lon="7.008100143">
        <ele>941.600</ele>
        <time>2026-05-09T07:27:00Z</time>
      </trkpt>
      <trkpt lat="46.460360204" lon="7.007980143">
        <ele>943.100</ele>
        <time>2026-05-09T07:28:00Z</time>
      </trkpt>
      <trkpt lat="46.460410205" lon="7.007780144">
        <ele>945.200</ele>
        <time>2026-05-09T07:29:00Z</time>
      </trkpt>
      <trkpt lat="46.460450205" lon="7.007610144">
        <ele>946.700</ele>
        <time>2026-05-09T07:30:00Z</time>
      </trkpt>
      <trkpt lat="46.460450205" lon="7.007610144">
        <ele>946.790</ele>
        <time>2026-05-09T07:31:00Z</time>
      </trkpt>
      <trkpt lat="46.460460205" lon="7.007610144">
        <ele>946.880</ele>
        <time>2026-05-09T07:32:00Z</time>
      </trkpt>
      <trkpt lat="46.460470205" lon="7.007600144">
        <ele>947.060</ele>
        <time>2026-05-09T07:33:00Z</time>
      </trkpt>
      <trkpt lat="46.460480205" lon="7.007600144">
        <ele>947.220</ele>
        <time>2026-05-09T07:34:00Z</time>
      </trkpt>
      <trkpt lat="46.460500205" lon="7.007590143">
        <ele>947.400</ele>
        <time>2026-05-09T07:35:00Z</time>
      </trkpt>
      <trkpt lat="46.460520205" lon="7.007590143">
        <ele>947.550</ele>
        <time>2026-05-09T07:36:00Z</time>
      </trkpt>
      <trkpt lat="46.460570205" lon="7.007600144">
        <ele>947.980</ele>
        <time>2026-05-09T07:37:00Z</time>
      </trkpt>
      <trkpt lat="46.460620205" lon="7.007610144">
        <ele>948.500</ele>
        <time>2026-05-09T07:38:00Z</time>
      </trkpt>
      <trkpt lat="46.460690205" lon="7.007610144">
        <ele>949.450</ele>
        <time>2026-05-09T07:39:00Z</time>
      </trkpt>
      <trkpt lat="46.460770206" lon="7.007600144">
        <ele>950.700</ele>
        <time>2026-05-09T07:40:00Z</time>
      </trkpt>
      <trkpt lat="46.460820206" lon="7.007600144">
        <ele>951.930</ele>
        <time>2026-05-09T07:41:00Z</time>
      </trkpt>
      <trkpt lat="46.460990207" lon="7.007600144">
        <ele>954.650</ele>
        <time>2026-05-09T07:42:00Z</time>
      </trkpt>
      <trkpt lat="46.461030207" lon="7.007600145">
        <ele>955.600</ele>
        <time>2026-05-09T07:43:00Z</time>
      </trkpt>
      <trkpt lat="46.461070207" lon="7.007580145">
        <ele>955.980</ele>
        <time>2026-05-09T07:44:00Z</time>
      </trkpt>
      <trkpt lat="46.461080207" lon="7.007570145">
        <ele>956.100</ele>
        <time>2026-05-09T07:45:00Z</time>
      </trkpt>
      <trkpt lat="46.461090207" lon="7.007560145">
        <ele>956.420</ele>
        <time>2026-05-09T07:46:00Z</time>
      </trkpt>
      <trkpt lat="46.461170207" lon="7.007490145">
        <ele>957.990</ele>
        <time>2026-05-09T07:47:00Z</time>
      </trkpt>
      <trkpt lat="46.461240208" lon="7.007440145">
        <ele>959.500</ele>
        <time>2026-05-09T07:48:00Z</time>
      </trkpt>
      <trkpt lat="46.461280208" lon="7.007390146">
        <ele>961.250</ele>
        <time>2026-05-09T07:49:00Z</time>
      </trkpt>
      <trkpt lat="46.461300208" lon="7.007370146">
        <ele>962.170</ele>
        <time>2026-05-09T07:50:00Z</time>
      </trkpt>
      <trkpt lat="46.461340209" lon="7.007310146">
        <ele>963.980</ele>
        <time>2026-05-09T07:51:00Z</time>
      </trkpt>
      <trkpt lat="46.461360209" lon="7.007280146">
        <ele>964.850</ele>
        <time>2026-05-09T07:52:00Z</time>
      </trkpt>
      <trkpt lat="46.461380209" lon="7.007240146">
        <ele>965.700</ele>
        <time>2026-05-09T07:53:00Z</time>
      </trkpt>
      <trkpt lat="46.461390209" lon="7.007240146">
        <ele>965.780</ele>
        <time>2026-05-09T07:54:00Z</time>
      </trkpt>
      <trkpt lat="46.461430209" lon="7.007230146">
        <ele>966.120</ele>
        <time>2026-05-09T07:55:00Z</time>
      </trkpt>
      <trkpt lat="46.461460209" lon="7.007230146">
        <ele>966.500</ele>
        <time>2026-05-09T07:56:00Z</time>
      </trkpt>
      <trkpt lat="46.461530210" lon="7.007170146">
        <ele>968.010</ele>
        <time>2026-05-09T07:57:00Z</time>
      </trkpt>
      <trkpt lat="46.461540210" lon="7.007160146">
        <ele>968.200</ele>
        <time>2026-05-09T07:58:00Z</time>
      </trkpt>
      <trkpt lat="46.461540210" lon="7.007160146">
        <ele>968.210</ele>
        <time>2026-05-09T07:59:00Z</time>
      </trkpt>
      <trkpt lat="46.461550210" lon="7.007150147">
        <ele>968.700</ele>
        <time>2026-05-09T08:00:00Z</time>
      </trkpt>
      <trkpt lat="46.461590210" lon="7.007140147">
        <ele>969.060</ele>
        <time>2026-05-09T08:01:00Z</time>
      </trkpt>
      <trkpt lat="46.461600210" lon="7.007140147">
        <ele>969.200</ele>
        <time>2026-05-09T08:02:00Z</time>
      </trkpt>
      <trkpt lat="46.461610210" lon="7.007140147">
        <ele>969.260</ele>
        <time>2026-05-09T08:03:00Z</time>
      </trkpt>
      <trkpt lat="46.461640210" lon="7.007140147">
        <ele>969.400</ele>
        <time>2026-05-09T08:04:00Z</time>
      </trkpt>
      <trkpt lat="46.461660210" lon="7.007130146">
        <ele>969.440</ele>
        <time>2026-05-09T08:05:00Z</time>
      </trkpt>
      <trkpt lat="46.461660210" lon="7.007130146">
        <ele>969.400</ele>
        <time>2026-05-09T08:06:00Z</time>
      </trkpt>
      <trkpt lat="46.461790210" lon="7.007070147">
        <ele>970.500</ele>
        <time>2026-05-09T08:07:00Z</time>
      </trkpt>
      <trkpt lat="46.461810210" lon="7.007070147">
        <ele>970.320</ele>
        <time>2026-05-09T08:08:00Z</time>
      </trkpt>
      <trkpt lat="46.461810210" lon="7.007070147">
        <ele>970.300</ele>
        <time>2026-05-09T08:09:00Z</time>
      </trkpt>
      <trkpt lat="46.461830210" lon="7.007060147">
        <ele>970.290</ele>
        <time>2026-05-09T08:10:00Z</time>
      </trkpt>
      <trkpt lat="46.461850210" lon="7.007050147">
        <ele>970.300</ele>
        <time>2026-05-09T08:11:00Z</time>
      </trkpt>
      <trkpt lat="46.461940210" lon="7.006990147">
        <ele>970.710</ele>
        <time>2026-05-09T08:12:00Z</time>
      </trkpt>
      <trkpt lat="46.461990210" lon="7.006960147">
        <ele>971.300</ele>
        <time>2026-05-09T08:13:00Z</time>
      </trkpt>
      <trkpt lat="46.462050211" lon="7.006900147">
        <ele>973.400</ele>
        <time>2026-05-09T08:14:00Z</time>
      </trkpt>
      <trkpt lat="46.462120211" lon="7.006800147">
        <ele>975.500</ele>
        <time>2026-05-09T08:15:00Z</time>
      </trkpt>
      <trkpt lat="46.462150211" lon="7.006770147">
        <ele>976.200</ele>
        <time>2026-05-09T08:16:00Z</time>
      </trkpt>
      <trkpt lat="46.462260211" lon="7.006550148">
        <ele>976.300</ele>
        <time>2026-05-09T08:17:00Z</time>
      </trkpt>
      <trkpt lat="46.462300211" lon="7.006500148">
        <ele>977.140</ele>
        <time>2026-05-09T08:18:00Z</time>
      </trkpt>
      <trkpt lat="46.462300211" lon="7.006490148">
        <ele>977.280</ele>
        <time>2026-05-09T08:19:00Z</time>
      </trkpt>
      <trkpt lat="46.462330211" lon="7.006440148">
        <ele>978.100</ele>
        <time>2026-05-09T08:20:00Z</time>
      </trkpt>
      <trkpt lat="46.462360212" lon="7.006420148">
        <ele>978.390</ele>
        <time>2026-05-09T08:21:00Z</time>
      </trkpt>
      <trkpt lat="46.462390211" lon="7.006390148">
        <ele>978.720</ele>
        <time>2026-05-09T08:22:00Z</time>
      </trkpt>
      <trkpt lat="46.462500212" lon="7.006320148">
        <ele>979.300</ele>
        <time>2026-05-09T08:23:00Z</time>
      </trkpt>
      <trkpt lat="46.462620212" lon="7.006180148">
        <ele>981.500</ele>
        <time>2026-05-09T08:24:00Z</time>
      </trkpt>
      <trkpt lat="46.462720213" lon="7.006080148">
        <ele>983.360</ele>
        <time>2026-05-09T08:25:00Z</time>
      </trkpt>
      <trkpt lat="46.462720213" lon="7.006080148">
        <ele>983.350</ele>
        <time>2026-05-09T08:26:00Z</time>
      </trkpt>
      <trkpt lat="46.462760213" lon="7.006030149">
        <ele>984.300</ele>
        <time>2026-05-09T08:27:00Z</time>
      </trkpt>
      <trkpt lat="46.462770212" lon="7.006030149">
        <ele>984.340</ele>
        <time>2026-05-09T08:28:00Z</time>
      </trkpt>
      <trkpt lat="46.462800213" lon="7.006020149">
        <ele>985.130</ele>
        <time>2026-05-09T08:29:00Z</time>
      </trkpt>
      <trkpt lat="46.462820213" lon="7.006020149">
        <ele>985.560</ele>
        <time>2026-05-09T08:30:00Z</time>
      </trkpt>
      <trkpt lat="46.462870213" lon="7.006010149">
        <ele>986.790</ele>
        <time>2026-05-09T08:31:00Z</time>
      </trkpt>
      <trkpt lat="46.462910214" lon="7.006010149">
        <ele>987.600</ele>
        <time>2026-05-09T08:32:00Z</time>
      </trkpt>
      <trkpt lat="46.462950213" lon="7.005990149">
        <ele>988.390</ele>
        <time>2026-05-09T08:33:00Z</time>
      </trkpt>
      <trkpt lat="46.463020214" lon="7.005970149">
        <ele>989.600</ele>
        <time>2026-05-09T08:34:00Z</time>
      </trkpt>
      <trkpt lat="46.463120214" lon="7.005970149">
        <ele>990.100</ele>
        <time>2026-05-09T08:35:00Z</time>
      </trkpt>
      <trkpt lat="46.463150214" lon="7.005950150">
        <ele>990.030</ele>
        <time>2026-05-09T08:36:00Z</time>
      </trkpt>
      <trkpt lat="46.463190214" lon="7.005930149">
        <ele>990.280</ele>
        <time>2026-05-09T08:37:00Z</time>
      </trkpt>
      <trkpt lat="46.463240214" lon="7.005910149">
        <ele>990.400</ele>
        <time>2026-05-09T08:38:00Z</time>
      </trkpt>
      <trkpt lat="46.463370214" lon="7.005870149">
        <ele>990.890</ele>
        <time>2026-05-09T08:39:00Z</time>
      </trkpt>
      <trkpt lat="46.463410214" lon="7.005860149">
        <ele>991.290</ele>
        <time>2026-05-09T08:40:00Z</time>
      </trkpt>
      <trkpt lat="46.463450214" lon="7.005850150">
        <ele>991.800</ele>
        <time>2026-05-09T08:41:00Z</time>
      </trkpt>
      <trkpt lat="46.463520214" lon="7.005820150">
        <ele>992.700</ele>
        <time>2026-05-09T08:42:00Z</time>
      </trkpt>
      <trkpt lat="46.463540215" lon="7.005810150">
        <ele>993.150</ele>
        <time>2026-05-09T08:43:00Z</time>
      </trkpt>
      <trkpt lat="46.463600215" lon="7.005780150">
        <ele>994.000</ele>
        <time>2026-05-09T08:44:00Z</time>
      </trkpt>
      <trkpt lat="46.463630215" lon="7.005760150">
        <ele>994.890</ele>
        <time>2026-05-09T08:45:00Z</time>
      </trkpt>
      <trkpt lat="46.463630215" lon="7.005750150">
        <ele>995.170</ele>
        <time>2026-05-09T08:46:00Z</time>
      </trkpt>
      <trkpt lat="46.463640215" lon="7.005740150">
        <ele>995.600</ele>
        <time>2026-05-09T08:47:00Z</time>
      </trkpt>
      <trkpt lat="46.463650215" lon="7.005740150">
        <ele>995.440</ele>
        <time>2026-05-09T08:48:00Z</time>
      </trkpt>
      <trkpt lat="46.463650215" lon="7.005730150">
        <ele>995.680</ele>
        <time>2026-05-09T08:49:00Z</time>
      </trkpt>
      <trkpt lat="46.463650215" lon="7.005720150">
        <ele>995.780</ele>
        <time>2026-05-09T08:50:00Z</time>
      </trkpt>
      <trkpt lat="46.463650215" lon="7.005690150">
        <ele>996.120</ele>
        <time>2026-05-09T08:51:00Z</time>
      </trkpt>
      <trkpt lat="46.463650215" lon="7.005690150">
        <ele>996.130</ele>
        <time>2026-05-09T08:52:00Z</time>
      </trkpt>
      <trkpt lat="46.463750215" lon="7.005660150">
        <ele>997.000</ele>
        <time>2026-05-09T08:53:00Z</time>
      </trkpt>
      <trkpt lat="46.463790215" lon="7.005640151">
        <ele>997.360</ele>
        <time>2026-05-09T08:54:00Z</time>
      </trkpt>
      <trkpt lat="46.463880215" lon="7.005600151">
        <ele>998.100</ele>
        <time>2026-05-09T08:55:00Z</time>
      </trkpt>
      <trkpt lat="46.463930216" lon="7.005540151">
        <ele>998.730</ele>
        <time>2026-05-09T08:56:00Z</time>
      </trkpt>
      <trkpt lat="46.463940216" lon="7.005530151">
        <ele>998.900</ele>
        <time>2026-05-09T08:57:00Z</time>
      </trkpt>
      <trkpt lat="46.463970216" lon="7.005460151">
        <ele>999.500</ele>
        <time>2026-05-09T08:58:00Z</time>
      </trkpt>
      <trkpt lat="46.464010216" lon="7.005270151">
        <ele>1001.700</ele>
        <time>2026-05-09T08:59:00Z</time>
      </trkpt>
      <trkpt lat="46.464030216" lon="7.005210151">
        <ele>1002.480</ele>
        <time>2026-05-09T09:00:00Z</time>
      </trkpt>
      <trkpt lat="46.464030216" lon="7.005200151">
        <ele>1002.500</ele>
        <time>2026-05-09T09:01:00Z</time>
      </trkpt>
      <trkpt lat="46.464060216" lon="7.005150151">
        <ele>1002.850</ele>
        <time>2026-05-09T09:02:00Z</time>
      </trkpt>
      <trkpt lat="46.464070216" lon="7.005120151">
        <ele>1003.140</ele>
        <time>2026-05-09T09:03:00Z</time>
      </trkpt>
      <trkpt lat="46.464070216" lon="7.005110151">
        <ele>1003.100</ele>
        <time>2026-05-09T09:04:00Z</time>
      </trkpt>
      <trkpt lat="46.464100217" lon="7.005090151">
        <ele>1003.070</ele>
        <time>2026-05-09T09:05:00Z</time>
      </trkpt>
      <trkpt lat="46.464170217" lon="7.005030151">
        <ele>1003.000</ele>
        <time>2026-05-09T09:06:00Z</time>
      </trkpt>
      <trkpt lat="46.464210216" lon="7.005010151">
        <ele>1003.000</ele>
        <time>2026-05-09T09:07:00Z</time>
      </trkpt>
      <trkpt lat="46.464240216" lon="7.004990151">
        <ele>1003.000</ele>
        <time>2026-05-09T09:08:00Z</time>
      </trkpt>
      <trkpt lat="46.464250216" lon="7.004990151">
        <ele>1002.980</ele>
        <time>2026-05-09T09:09:00Z</time>
      </trkpt>
      <trkpt lat="46.464290217" lon="7.004980151">
        <ele>1002.980</ele>
        <time>2026-05-09T09:10:00Z</time>
      </trkpt>
      <trkpt lat="46.464310216" lon="7.004980151">
        <ele>1003.020</ele>
        <time>2026-05-09T09:11:00Z</time>
      </trkpt>
      <trkpt lat="46.464340216" lon="7.004980151">
        <ele>1003.040</ele>
        <time>2026-05-09T09:12:00Z</time>
      </trkpt>
      <trkpt lat="46.464350217" lon="7.004980151">
        <ele>1003.000</ele>
        <time>2026-05-09T09:13:00Z</time>
      </trkpt>
      <trkpt lat="46.464400216" lon="7.004990151">
        <ele>1003.000</ele>
        <time>2026-05-09T09:14:00Z</time>
      </trkpt>
      <trkpt lat="46.464420217" lon="7.005010151">
        <ele>1003.100</ele>
        <time>2026-05-09T09:15:00Z</time>
      </trkpt>
      <trkpt lat="46.464430216" lon="7.005020151">
        <ele>1003.090</ele>
        <time>2026-05-09T09:16:00Z</time>
      </trkpt>
      <trkpt lat="46.464450216" lon="7.005040151">
        <ele>1003.160</ele>
        <time>2026-05-09T09:17:00Z</time>
      </trkpt>
      <trkpt lat="46.464480217" lon="7.005070151">
        <ele>1003.200</ele>
        <time>2026-05-09T09:18:00Z</time>
      </trkpt>
      <trkpt lat="46.464520216" lon="7.005140151">
        <ele>1003.270</ele>
        <time>2026-05-09T09:19:00Z</time>
      </trkpt>
      <trkpt lat="46.464550217" lon="7.005180151">
        <ele>1003.380</ele>
        <time>2026-05-09T09:20:00Z</time>
      </trkpt>
      <trkpt lat="46.464560216" lon="7.005200151">
        <ele>1003.400</ele>
        <time>2026-05-09T09:21:00Z</time>
      </trkpt>
      <trkpt lat="46.464740217" lon="7.005540151">
        <ele>1004.100</ele>
        <time>2026-05-09T09:22:00Z</time>
      </trkpt>
      <trkpt lat="46.464760216" lon="7.005570151">
        <ele>1004.180</ele>
        <time>2026-05-09T09:23:00Z</time>
      </trkpt>
      <trkpt lat="46.464790217" lon="7.005630151">
        <ele>1004.330</ele>
        <time>2026-05-09T09:24:00Z</time>
      </trkpt>
      <trkpt lat="46.464820217" lon="7.005710152">
        <ele>1004.500</ele>
        <time>2026-05-09T09:25:00Z</time>
      </trkpt>
      <trkpt lat="46.464850217" lon="7.005730151">
        <ele>1004.600</ele>
        <time>2026-05-09T09:26:00Z</time>
      </trkpt>
      <trkpt lat="46.464860217" lon="7.005740151">
        <ele>1004.680</ele>
        <time>2026-05-09T09:27:00Z</time>
      </trkpt>
      <trkpt lat="46.464900217" lon="7.005750151">
        <ele>1004.770</ele>
        <time>2026-05-09T09:28:00Z</time>
      </trkpt>
      <trkpt lat="46.464910217" lon="7.005760151">
        <ele>1004.800</ele>
        <time>2026-05-09T09:29:00Z</time>
      </trkpt>
      <trkpt lat="46.464930217" lon="7.005760151">
        <ele>1004.830</ele>
        <time>2026-05-09T09:30:00Z</time>
      </trkpt>
      <trkpt lat="46.464980217" lon="7.005760151">
        <ele>1004.900</ele>
        <time>2026-05-09T09:31:00Z</time>
      </trkpt>
      <trkpt lat="46.464990217" lon="7.005750151">
        <ele>1004.970</ele>
        <time>2026-05-09T09:32:00Z</time>
      </trkpt>
      <trkpt lat="46.465030217" lon="7.005740151">
        <ele>1005.090</ele>
        <time>2026-05-09T09:33:00Z</time>
      </trkpt>
      <trkpt lat="46.465050217" lon="7.005730152">
        <ele>1005.200</ele>
        <time>2026-05-09T09:34:00Z</time>
      </trkpt>
      <trkpt lat="46.465090217" lon="7.005700151">
        <ele>1005.250</ele>
        <time>2026-05-09T09:35:00Z</time>
      </trkpt>
      <trkpt lat="46.465190217" lon="7.005640151">
        <ele>1005.500</ele>
        <time>2026-05-09T09:36:00Z</time>
      </trkpt>
      <trkpt lat="46.465240217" lon="7.005610152">
        <ele>1005.500</ele>
        <time>2026-05-09T09:37:00Z</time>
      </trkpt>
      <trkpt lat="46.465260217" lon="7.005610152">
        <ele>1005.560</ele>
        <time>2026-05-09T09:38:00Z</time>
      </trkpt>
      <trkpt lat="46.465260217" lon="7.005610152">
        <ele>1005.570</ele>
        <time>2026-05-09T09:39:00Z</time>
      </trkpt>
      <trkpt lat="46.465320217" lon="7.005610152">
        <ele>1005.660</ele>
        <time>2026-05-09T09:40:00Z</time>
      </trkpt>
      <trkpt lat="46.465330217" lon="7.005610152">
        <ele>1005.660</ele>
        <time>2026-05-09T09:41:00Z</time>
      </trkpt>
      <trkpt lat="46.465340217" lon="7.005610152">
        <ele>1005.700</ele>
        <time>2026-05-09T09:42:00Z</time>
      </trkpt>
      <trkpt lat="46.465370217" lon="7.005610152">
        <ele>1005.730</ele>
        <time>2026-05-09T09:43:00Z</time>
      </trkpt>
      <trkpt lat="46.465410217" lon="7.005630151">
        <ele>1005.800</ele>
        <time>2026-05-09T09:44:00Z</time>
      </trkpt>
      <trkpt lat="46.465440217" lon="7.005630151">
        <ele>1005.800</ele>
        <time>2026-05-09T09:45:00Z</time>
      </trkpt>
      <trkpt lat="46.465520217" lon="7.005680152">
        <ele>1005.970</ele>
        <time>2026-05-09T09:46:00Z</time>
      </trkpt>
      <trkpt lat="46.465520217" lon="7.005680152">
        <ele>1005.960</ele>
        <time>2026-05-09T09:47:00Z</time>
      </trkpt>
      <trkpt lat="46.465760217" lon="7.005840152">
        <ele>1006.370</ele>
        <time>2026-05-09T09:48:00Z</time>
      </trkpt>
      <trkpt lat="46.465900217" lon="7.005930152">
        <ele>1006.550</ele>
        <time>2026-05-09T09:49:00Z</time>
      </trkpt>
      <trkpt lat="46.465940217" lon="7.005960152">
        <ele>1006.600</ele>
        <time>2026-05-09T09:50:00Z</time>
      </trkpt>
      <trkpt lat="46.465980217" lon="7.005980152">
        <ele>1006.650</ele>
        <time>2026-05-09T09:51:00Z</time>
      </trkpt>
      <trkpt lat="46.466140217" lon="7.006060152">
        <ele>1006.920</ele>
        <time>2026-05-09T09:52:00Z</time>
      </trkpt>
      <trkpt lat="46.466180217" lon="7.006070152">
        <ele>1006.990</ele>
        <time>2026-05-09T09:53:00Z</time>
      </trkpt>
      <trkpt lat="46.466230217" lon="7.006080152">
        <ele>1007.100</ele>
        <time>2026-05-09T09:54:00Z</time>
      </trkpt>
      <trkpt lat="46.466270217" lon="7.006090152">
        <ele>1007.180</ele>
        <time>2026-05-09T09:55:00Z</time>
      </trkpt>
      <trkpt lat="46.466370218" lon="7.006110152">
        <ele>1007.400</ele>
        <time>2026-05-09T09:56:00Z</time>
      </trkpt>
      <trkpt lat="46.466430217" lon="7.006130152">
        <ele>1007.500</ele>
        <time>2026-05-09T09:57:00Z</time>
      </trkpt>
      <trkpt lat="46.466440218" lon="7.006140152">
        <ele>1007.530</ele>
        <time>2026-05-09T09:58:00Z</time>
      </trkpt>
      <trkpt lat="46.466470217" lon="7.006150152">
        <ele>1007.610</ele>
        <time>2026-05-09T09:59:00Z</time>
      </trkpt>
      <trkpt lat="46.466510217" lon="7.006170152">
        <ele>1007.700</ele>
        <time>2026-05-09T10:00:00Z</time>
      </trkpt>
      <trkpt lat="46.466540217" lon="7.006200152">
        <ele>1007.760</ele>
        <time>2026-05-09T10:01:00Z</time>
      </trkpt>
      <trkpt lat="46.466620218" lon="7.006250152">
        <ele>1007.900</ele>
        <time>2026-05-09T10:02:00Z</time>
      </trkpt>
      <trkpt lat="46.466690218" lon="7.006310152">
        <ele>1008.060</ele>
        <time>2026-05-09T10:03:00Z</time>
      </trkpt>
      <trkpt lat="46.466700217" lon="7.006310152">
        <ele>1008.070</ele>
        <time>2026-05-09T10:04:00Z</time>
      </trkpt>
      <trkpt lat="46.466710217" lon="7.006320152">
        <ele>1008.090</ele>
        <time>2026-05-09T10:05:00Z</time>
      </trkpt>
      <trkpt lat="46.466730217" lon="7.006340152">
        <ele>1008.100</ele>
        <time>2026-05-09T10:06:00Z</time>
      </trkpt>
      <trkpt lat="46.466990218" lon="7.006550152">
        <ele>1008.200</ele>
        <time>2026-05-09T10:07:00Z</time>
      </trkpt>
      <trkpt lat="46.467130218" lon="7.006650152">
        <ele>1008.290</ele>
        <time>2026-05-09T10:08:00Z</time>
      </trkpt>
      <trkpt lat="46.467230218" lon="7.006730152">
        <ele>1008.370</ele>
        <time>2026-05-09T10:09:00Z</time>
      </trkpt>
      <trkpt lat="46.467420218" lon="7.006870152">
        <ele>1008.500</ele>
        <time>2026-05-09T10:10:00Z</time>
      </trkpt>
      <trkpt lat="46.467640217" lon="7.007020152">
        <ele>1008.570</ele>
        <time>2026-05-09T10:11:00Z</time>
      </trkpt>
      <trkpt lat="46.467740218" lon="7.007090152">
        <ele>1008.570</ele>
        <time>2026-05-09T10:12:00Z</time>
      </trkpt>
      <trkpt lat="46.468010217" lon="7.007290152">
        <ele>1008.600</ele>
        <time>2026-05-09T10:13:00Z</time>
      </trkpt>
      <trkpt lat="46.468130217" lon="7.007360152">
        <ele>1008.530</ele>
        <time>2026-05-09T10:14:00Z</time>
      </trkpt>
      <trkpt lat="46.468200217" lon="7.007400152">
        <ele>1008.430</ele>
        <time>2026-05-09T10:15:00Z</time>
      </trkpt>
      <trkpt lat="46.468300217" lon="7.007460152">
        <ele>1008.200</ele>
        <time>2026-05-09T10:16:00Z</time>
      </trkpt>
      <trkpt lat="46.468350218" lon="7.007480152">
        <ele>1008.090</ele>
        <time>2026-05-09T10:17:00Z</time>
      </trkpt>
      <trkpt lat="46.468460218" lon="7.007540152">
        <ele>1007.800</ele>
        <time>2026-05-09T10:18:00Z</time>
      </trkpt>
      <trkpt lat="46.468550217" lon="7.007560152">
        <ele>1007.500</ele>
        <time>2026-05-09T10:19:00Z</time>
      </trkpt>
      <trkpt lat="46.468600217" lon="7.007570152">
        <ele>1007.290</ele>
        <time>2026-05-09T10:20:00Z</time>
      </trkpt>
      <trkpt lat="46.468640217" lon="7.007570152">
        <ele>1007.140</ele>
        <time>2026-05-09T10:21:00Z</time>
      </trkpt>
      <trkpt lat="46.468650217" lon="7.007580152">
        <ele>1007.100</ele>
        <time>2026-05-09T10:22:00Z</time>
      </trkpt>
      <trkpt lat="46.468690217" lon="7.007570152">
        <ele>1006.940</ele>
        <time>2026-05-09T10:23:00Z</time>
      </trkpt>
      <trkpt lat="46.468750217" lon="7.007560152">
        <ele>1006.700</ele>
        <time>2026-05-09T10:24:00Z</time>
      </trkpt>
      <trkpt lat="46.468790217" lon="7.007550152">
        <ele>1006.590</ele>
        <time>2026-05-09T10:25:00Z</time>
      </trkpt>
      <trkpt lat="46.468850217" lon="7.007530152">
        <ele>1006.400</ele>
        <time>2026-05-09T10:26:00Z</time>
      </trkpt>
      <trkpt lat="46.468870217" lon="7.007530152">
        <ele>1006.350</ele>
        <time>2026-05-09T10:27:00Z</time>
      </trkpt>
      <trkpt lat="46.468890217" lon="7.007530152">
        <ele>1006.240</ele>
        <time>2026-05-09T10:28:00Z</time>
      </trkpt>
      <trkpt lat="46.468910217" lon="7.007530152">
        <ele>1006.200</ele>
        <time>2026-05-09T10:29:00Z</time>
      </trkpt>
      <trkpt lat="46.468940217" lon="7.007530152">
        <ele>1006.190</ele>
        <time>2026-05-09T10:30:00Z</time>
      </trkpt>
      <trkpt lat="46.468970217" lon="7.007520152">
        <ele>1006.200</ele>
        <time>2026-05-09T10:31:00Z</time>
      </trkpt>
      <trkpt lat="46.469000217" lon="7.007530152">
        <ele>1006.040</ele>
        <time>2026-05-09T10:32:00Z</time>
      </trkpt>
      <trkpt lat="46.469020217" lon="7.007540151">
        <ele>1005.990</ele>
        <time>2026-05-09T10:33:00Z</time>
      </trkpt>
      <trkpt lat="46.469030217" lon="7.007540151">
        <ele>1005.950</ele>
        <time>2026-05-09T10:34:00Z</time>
      </trkpt>
      <trkpt lat="46.469070217" lon="7.007560152">
        <ele>1005.800</ele>
        <time>2026-05-09T10:35:00Z</time>
      </trkpt>
      <trkpt lat="46.469130217" lon="7.007580152">
        <ele>1005.560</ele>
        <time>2026-05-09T10:36:00Z</time>
      </trkpt>
      <trkpt lat="46.469140217" lon="7.007580152">
        <ele>1005.500</ele>
        <time>2026-05-09T10:37:00Z</time>
      </trkpt>
      <trkpt lat="46.469270217" lon="7.007650151">
        <ele>1005.100</ele>
        <time>2026-05-09T10:38:00Z</time>
      </trkpt>
      <trkpt lat="46.469270217" lon="7.007650151">
        <ele>1005.130</ele>
        <time>2026-05-09T10:39:00Z</time>
      </trkpt>
      <trkpt lat="46.469280217" lon="7.007660151">
        <ele>1005.100</ele>
        <time>2026-05-09T10:40:00Z</time>
      </trkpt>
      <trkpt lat="46.469360217" lon="7.007720151">
        <ele>1004.780</ele>
        <time>2026-05-09T10:41:00Z</time>
      </trkpt>
      <trkpt lat="46.469380217" lon="7.007740152">
        <ele>1004.710</ele>
        <time>2026-05-09T10:42:00Z</time>
      </trkpt>
      <trkpt lat="46.469390217" lon="7.007750152">
        <ele>1004.680</ele>
        <time>2026-05-09T10:43:00Z</time>
      </trkpt>
      <trkpt lat="46.469410217" lon="7.007780151">
        <ele>1004.570</ele>
        <time>2026-05-09T10:44:00Z</time>
      </trkpt>
      <trkpt lat="46.469420217" lon="7.007790152">
        <ele>1004.550</ele>
        <time>2026-05-09T10:45:00Z</time>
      </trkpt>
      <trkpt lat="46.469450217" lon="7.007860152">
        <ele>1004.300</ele>
        <time>2026-05-09T10:46:00Z</time>
      </trkpt>
      <trkpt lat="46.469530217" lon="7.008010151">
        <ele>1003.800</ele>
        <time>2026-05-09T10:47:00Z</time>
      </trkpt>
      <trkpt lat="46.469590216" lon="7.008110151">
        <ele>1003.550</ele>
        <time>2026-05-09T10:48:00Z</time>
      </trkpt>
      <trkpt lat="46.469690217" lon="7.008240151">
        <ele>1003.120</ele>
        <time>2026-05-09T10:49:00Z</time>
      </trkpt>
      <trkpt lat="46.469720216" lon="7.008270151">
        <ele>1002.990</ele>
        <time>2026-05-09T10:50:00Z</time>
      </trkpt>
    </trkseg>
  </trk>
</gpx>
